<?xml version="1.0" encoding="UTF-8" standalone="no" ?>
<gpx xmlns="http://www.topografix.com/GPX/1/1" xmlns:xsi="http://www.w3.org/2001/XMLSchema-instance" xsi:schemaLocation="http://www.topografix.com/GPX/1/1 http://www.topografix.com/GPX/1/1/gpx.xsd" version="1.1" creator="VisuGPX - https://www.visugpx.com">
  <metadata>
    <name>CURRENT TRACK- 22 JUL 2020 BOUGNON 2 inv</name>
  </metadata>
  <trk>
    <name><![CDATA[CURRENT TRACK- 22 JUL 2020 BOUGNON 2 inv]]></name>
    <trkseg>
      <trkpt lat="43.28178" lon="6.58728">
        <ele>2.5475</ele>
        <time>2020-07-20T10:34:04Z</time>
      </trkpt>
      <trkpt lat="43.28179" lon="6.58737">
        <ele>2.425287</ele>
        <time>2020-07-20T10:48:04Z</time>
      </trkpt>
      <trkpt lat="43.28178" lon="6.58734">
        <ele>2.4707</ele>
        <time>2020-07-22T06:14:48Z</time>
      </trkpt>
      <trkpt lat="43.28174" lon="6.58719">
        <ele>2.4775</ele>
        <time>2020-07-22T06:25:56Z</time>
      </trkpt>
      <trkpt lat="43.28181" lon="6.58695">
        <ele>3.1725</ele>
        <time>2020-07-22T06:26:11Z</time>
      </trkpt>
      <trkpt lat="43.28176" lon="6.58706">
        <ele>2.7975</ele>
        <time>2020-07-22T06:26:27Z</time>
      </trkpt>
      <trkpt lat="43.28173" lon="6.58732">
        <ele>2.2425</ele>
        <time>2020-07-22T06:26:38Z</time>
      </trkpt>
      <trkpt lat="43.28167" lon="6.58759">
        <ele>1.579106</ele>
        <time>2020-07-22T06:26:46Z</time>
      </trkpt>
      <trkpt lat="43.28169" lon="6.58751">
        <ele>1.793784</ele>
        <time>2020-07-22T06:26:56Z</time>
      </trkpt>
      <trkpt lat="43.28174" lon="6.58725">
        <ele>2.38875</ele>
        <time>2020-07-22T06:27:09Z</time>
      </trkpt>
      <trkpt lat="43.28179" lon="6.58701">
        <ele>2.98</ele>
        <time>2020-07-22T06:27:23Z</time>
      </trkpt>
      <trkpt lat="43.28173" lon="6.587">
        <ele>2.7325</ele>
        <time>2020-07-22T06:27:37Z</time>
      </trkpt>
      <trkpt lat="43.28182" lon="6.58691">
        <ele>3.25875</ele>
        <time>2020-07-22T06:27:48Z</time>
      </trkpt>
      <trkpt lat="43.28182" lon="6.58682">
        <ele>3.39625</ele>
        <time>2020-07-22T06:28:11Z</time>
      </trkpt>
      <trkpt lat="43.28171" lon="6.58658">
        <ele>3.4845</ele>
        <time>2020-07-22T06:28:19Z</time>
      </trkpt>
      <trkpt lat="43.28165" lon="6.58634">
        <ele>3.961044</ele>
        <time>2020-07-22T06:28:27Z</time>
      </trkpt>
      <trkpt lat="43.28183" lon="6.58625">
        <ele>4.852759</ele>
        <time>2020-07-22T06:28:36Z</time>
      </trkpt>
      <trkpt lat="43.28202" lon="6.58616">
        <ele>5.577281</ele>
        <time>2020-07-22T06:28:45Z</time>
      </trkpt>
      <trkpt lat="43.28217" lon="6.58634">
        <ele>5.6775</ele>
        <time>2020-07-22T06:28:54Z</time>
      </trkpt>
      <trkpt lat="43.28223" lon="6.58661">
        <ele>5.405</ele>
        <time>2020-07-22T06:29:01Z</time>
      </trkpt>
      <trkpt lat="43.2823" lon="6.58687">
        <ele>5.237834</ele>
        <time>2020-07-22T06:29:07Z</time>
      </trkpt>
      <trkpt lat="43.28239" lon="6.58716">
        <ele>5.287997</ele>
        <time>2020-07-22T06:29:13Z</time>
      </trkpt>
      <trkpt lat="43.28245" lon="6.5874">
        <ele>5.433969</ele>
        <time>2020-07-22T06:29:18Z</time>
      </trkpt>
      <trkpt lat="43.28252" lon="6.58765">
        <ele>5.358112</ele>
        <time>2020-07-22T06:29:23Z</time>
      </trkpt>
      <trkpt lat="43.2826" lon="6.58789">
        <ele>5.40125</ele>
        <time>2020-07-22T06:29:28Z</time>
      </trkpt>
      <trkpt lat="43.28267" lon="6.58814">
        <ele>5.20985</ele>
        <time>2020-07-22T06:29:33Z</time>
      </trkpt>
      <trkpt lat="43.28274" lon="6.58838">
        <ele>5.008781</ele>
        <time>2020-07-22T06:29:38Z</time>
      </trkpt>
      <trkpt lat="43.28281" lon="6.58863">
        <ele>4.908837</ele>
        <time>2020-07-22T06:29:44Z</time>
      </trkpt>
      <trkpt lat="43.28287" lon="6.5889">
        <ele>4.651294</ele>
        <time>2020-07-22T06:29:51Z</time>
      </trkpt>
      <trkpt lat="43.28295" lon="6.58916">
        <ele>4.33</ele>
        <time>2020-07-22T06:29:58Z</time>
      </trkpt>
      <trkpt lat="43.28301" lon="6.5894">
        <ele>4.21125</ele>
        <time>2020-07-22T06:30:04Z</time>
      </trkpt>
      <trkpt lat="43.2831" lon="6.58972">
        <ele>4.45125</ele>
        <time>2020-07-22T06:30:11Z</time>
      </trkpt>
      <trkpt lat="43.28318" lon="6.59">
        <ele>4.5875</ele>
        <time>2020-07-22T06:30:17Z</time>
      </trkpt>
      <trkpt lat="43.28325" lon="6.59028">
        <ele>4.64875</ele>
        <time>2020-07-22T06:30:22Z</time>
      </trkpt>
      <trkpt lat="43.28332" lon="6.59054">
        <ele>4.801116</ele>
        <time>2020-07-22T06:30:26Z</time>
      </trkpt>
      <trkpt lat="43.28341" lon="6.59084">
        <ele>4.422112</ele>
        <time>2020-07-22T06:30:30Z</time>
      </trkpt>
      <trkpt lat="43.28348" lon="6.59108">
        <ele>4.233562</ele>
        <time>2020-07-22T06:30:33Z</time>
      </trkpt>
      <trkpt lat="43.28357" lon="6.59137">
        <ele>4.35</ele>
        <time>2020-07-22T06:30:37Z</time>
      </trkpt>
      <trkpt lat="43.28364" lon="6.59164">
        <ele>4.44625</ele>
        <time>2020-07-22T06:30:42Z</time>
      </trkpt>
      <trkpt lat="43.28371" lon="6.59192">
        <ele>4.370497</ele>
        <time>2020-07-22T06:30:48Z</time>
      </trkpt>
      <trkpt lat="43.28378" lon="6.59218">
        <ele>3.945</ele>
        <time>2020-07-22T06:30:53Z</time>
      </trkpt>
      <trkpt lat="43.28385" lon="6.59242">
        <ele>3.55875</ele>
        <time>2020-07-22T06:30:57Z</time>
      </trkpt>
      <trkpt lat="43.28392" lon="6.59266">
        <ele>3.53375</ele>
        <time>2020-07-22T06:31:01Z</time>
      </trkpt>
      <trkpt lat="43.284" lon="6.59295">
        <ele>3.48</ele>
        <time>2020-07-22T06:31:06Z</time>
      </trkpt>
      <trkpt lat="43.28408" lon="6.59321">
        <ele>3.4725</ele>
        <time>2020-07-22T06:31:11Z</time>
      </trkpt>
      <trkpt lat="43.28415" lon="6.59349">
        <ele>3.3948</ele>
        <time>2020-07-22T06:31:16Z</time>
      </trkpt>
      <trkpt lat="43.28423" lon="6.59379">
        <ele>3.613606</ele>
        <time>2020-07-22T06:31:21Z</time>
      </trkpt>
      <trkpt lat="43.28429" lon="6.59404">
        <ele>3.890875</ele>
        <time>2020-07-22T06:31:25Z</time>
      </trkpt>
      <trkpt lat="43.2844" lon="6.5943">
        <ele>4.640425</ele>
        <time>2020-07-22T06:31:30Z</time>
      </trkpt>
      <trkpt lat="43.28446" lon="6.59454">
        <ele>4.628938</ele>
        <time>2020-07-22T06:31:36Z</time>
      </trkpt>
      <trkpt lat="43.2845" lon="6.59481">
        <ele>4.189291</ele>
        <time>2020-07-22T06:31:41Z</time>
      </trkpt>
      <trkpt lat="43.28458" lon="6.59508">
        <ele>4.136137</ele>
        <time>2020-07-22T06:31:46Z</time>
      </trkpt>
      <trkpt lat="43.28465" lon="6.59532">
        <ele>4.166062</ele>
        <time>2020-07-22T06:31:53Z</time>
      </trkpt>
      <trkpt lat="43.28472" lon="6.59556">
        <ele>3.963844</ele>
        <time>2020-07-22T06:31:58Z</time>
      </trkpt>
      <trkpt lat="43.28478" lon="6.59584">
        <ele>4.345475</ele>
        <time>2020-07-22T06:32:03Z</time>
      </trkpt>
      <trkpt lat="43.28486" lon="6.59611">
        <ele>4.622281</ele>
        <time>2020-07-22T06:32:08Z</time>
      </trkpt>
      <trkpt lat="43.2849" lon="6.59636">
        <ele>5.180387</ele>
        <time>2020-07-22T06:32:12Z</time>
      </trkpt>
      <trkpt lat="43.28497" lon="6.59664">
        <ele>6.249494</ele>
        <time>2020-07-22T06:32:17Z</time>
      </trkpt>
      <trkpt lat="43.28505" lon="6.59691">
        <ele>7.37</ele>
        <time>2020-07-22T06:32:22Z</time>
      </trkpt>
      <trkpt lat="43.28512" lon="6.59716">
        <ele>8.1</ele>
        <time>2020-07-22T06:32:27Z</time>
      </trkpt>
      <trkpt lat="43.2852" lon="6.59742">
        <ele>8.87</ele>
        <time>2020-07-22T06:32:32Z</time>
      </trkpt>
      <trkpt lat="43.28527" lon="6.59767">
        <ele>9.260169</ele>
        <time>2020-07-22T06:32:37Z</time>
      </trkpt>
      <trkpt lat="43.28534" lon="6.59795">
        <ele>9.394106</ele>
        <time>2020-07-22T06:32:42Z</time>
      </trkpt>
      <trkpt lat="43.2854" lon="6.59819">
        <ele>9.593437</ele>
        <time>2020-07-22T06:32:46Z</time>
      </trkpt>
      <trkpt lat="43.28548" lon="6.59843">
        <ele>9.960825</ele>
        <time>2020-07-22T06:32:52Z</time>
      </trkpt>
      <trkpt lat="43.28555" lon="6.59868">
        <ele>10.4895</ele>
        <time>2020-07-22T06:32:56Z</time>
      </trkpt>
      <trkpt lat="43.28564" lon="6.59894">
        <ele>10.985</ele>
        <time>2020-07-22T06:33:00Z</time>
      </trkpt>
      <trkpt lat="43.28573" lon="6.59915">
        <ele>11.442347</ele>
        <time>2020-07-22T06:33:04Z</time>
      </trkpt>
      <trkpt lat="43.28584" lon="6.59938">
        <ele>11.780525</ele>
        <time>2020-07-22T06:33:09Z</time>
      </trkpt>
      <trkpt lat="43.28597" lon="6.5996">
        <ele>11.550625</ele>
        <time>2020-07-22T06:33:14Z</time>
      </trkpt>
      <trkpt lat="43.2861" lon="6.59981">
        <ele>10.932569</ele>
        <time>2020-07-22T06:33:19Z</time>
      </trkpt>
      <trkpt lat="43.28621" lon="6.60003">
        <ele>10.2525</ele>
        <time>2020-07-22T06:33:24Z</time>
      </trkpt>
      <trkpt lat="43.28633" lon="6.60023">
        <ele>9.915</ele>
        <time>2020-07-22T06:33:29Z</time>
      </trkpt>
      <trkpt lat="43.28645" lon="6.60043">
        <ele>9.5325</ele>
        <time>2020-07-22T06:33:34Z</time>
      </trkpt>
      <trkpt lat="43.28657" lon="6.60067">
        <ele>8.936369</ele>
        <time>2020-07-22T06:33:39Z</time>
      </trkpt>
      <trkpt lat="43.2867" lon="6.6009">
        <ele>8.804991</ele>
        <time>2020-07-22T06:33:44Z</time>
      </trkpt>
      <trkpt lat="43.28682" lon="6.60114">
        <ele>8.770075</ele>
        <time>2020-07-22T06:33:49Z</time>
      </trkpt>
      <trkpt lat="43.28696" lon="6.60136">
        <ele>9.105</ele>
        <time>2020-07-22T06:33:54Z</time>
      </trkpt>
      <trkpt lat="43.28709" lon="6.60158">
        <ele>8.7825</ele>
        <time>2020-07-22T06:33:59Z</time>
      </trkpt>
      <trkpt lat="43.28722" lon="6.60181">
        <ele>8.667768</ele>
        <time>2020-07-22T06:34:04Z</time>
      </trkpt>
      <trkpt lat="43.28734" lon="6.60204">
        <ele>8.61</ele>
        <time>2020-07-22T06:34:09Z</time>
      </trkpt>
      <trkpt lat="43.28748" lon="6.60225">
        <ele>8.788363</ele>
        <time>2020-07-22T06:34:14Z</time>
      </trkpt>
      <trkpt lat="43.28758" lon="6.60247">
        <ele>8.439607</ele>
        <time>2020-07-22T06:34:20Z</time>
      </trkpt>
      <trkpt lat="43.2877" lon="6.60266">
        <ele>8.4075</ele>
        <time>2020-07-22T06:34:27Z</time>
      </trkpt>
      <trkpt lat="43.28782" lon="6.60287">
        <ele>8.623507</ele>
        <time>2020-07-22T06:34:32Z</time>
      </trkpt>
      <trkpt lat="43.28794" lon="6.60309">
        <ele>8.78</ele>
        <time>2020-07-22T06:34:37Z</time>
      </trkpt>
      <trkpt lat="43.28806" lon="6.60329">
        <ele>8.90275</ele>
        <time>2020-07-22T06:34:42Z</time>
      </trkpt>
      <trkpt lat="43.28818" lon="6.6035">
        <ele>9.008347</ele>
        <time>2020-07-22T06:34:47Z</time>
      </trkpt>
      <trkpt lat="43.28831" lon="6.60372">
        <ele>9.3342</ele>
        <time>2020-07-22T06:34:52Z</time>
      </trkpt>
      <trkpt lat="43.28847" lon="6.60394">
        <ele>9.51625</ele>
        <time>2020-07-22T06:34:57Z</time>
      </trkpt>
      <trkpt lat="43.2886" lon="6.60411">
        <ele>9.4075</ele>
        <time>2020-07-22T06:35:01Z</time>
      </trkpt>
      <trkpt lat="43.28875" lon="6.60429">
        <ele>9.452844</ele>
        <time>2020-07-22T06:35:05Z</time>
      </trkpt>
      <trkpt lat="43.28893" lon="6.60449">
        <ele>9.517035</ele>
        <time>2020-07-22T06:35:09Z</time>
      </trkpt>
      <trkpt lat="43.28909" lon="6.60472">
        <ele>9.296725</ele>
        <time>2020-07-22T06:35:13Z</time>
      </trkpt>
      <trkpt lat="43.28924" lon="6.60495">
        <ele>8.2945</ele>
        <time>2020-07-22T06:35:17Z</time>
      </trkpt>
      <trkpt lat="43.28938" lon="6.60517">
        <ele>7.2175</ele>
        <time>2020-07-22T06:35:21Z</time>
      </trkpt>
      <trkpt lat="43.2895" lon="6.6054">
        <ele>6.7825</ele>
        <time>2020-07-22T06:35:25Z</time>
      </trkpt>
      <trkpt lat="43.2896" lon="6.60562">
        <ele>6.4475</ele>
        <time>2020-07-22T06:35:29Z</time>
      </trkpt>
      <trkpt lat="43.28972" lon="6.60584">
        <ele>6.31865</ele>
        <time>2020-07-22T06:35:34Z</time>
      </trkpt>
      <trkpt lat="43.28984" lon="6.60609">
        <ele>6.056</ele>
        <time>2020-07-22T06:35:39Z</time>
      </trkpt>
      <trkpt lat="43.28993" lon="6.60636">
        <ele>5.298725</ele>
        <time>2020-07-22T06:35:44Z</time>
      </trkpt>
      <trkpt lat="43.29" lon="6.6066">
        <ele>5.02</ele>
        <time>2020-07-22T06:35:48Z</time>
      </trkpt>
      <trkpt lat="43.29006" lon="6.60687">
        <ele>4.63</ele>
        <time>2020-07-22T06:35:52Z</time>
      </trkpt>
      <trkpt lat="43.29011" lon="6.60717">
        <ele>4.155703</ele>
        <time>2020-07-22T06:35:56Z</time>
      </trkpt>
      <trkpt lat="43.29016" lon="6.60749">
        <ele>3.737594</ele>
        <time>2020-07-22T06:36:00Z</time>
      </trkpt>
      <trkpt lat="43.2902" lon="6.60782">
        <ele>3.040663</ele>
        <time>2020-07-22T06:36:04Z</time>
      </trkpt>
      <trkpt lat="43.29022" lon="6.60808">
        <ele>2.432644</ele>
        <time>2020-07-22T06:36:07Z</time>
      </trkpt>
      <trkpt lat="43.29028" lon="6.60833">
        <ele>1.90875</ele>
        <time>2020-07-22T06:36:10Z</time>
      </trkpt>
      <trkpt lat="43.2904" lon="6.60858">
        <ele>2.087375</ele>
        <time>2020-07-22T06:36:14Z</time>
      </trkpt>
      <trkpt lat="43.29053" lon="6.60879">
        <ele>2.01585</ele>
        <time>2020-07-22T06:36:18Z</time>
      </trkpt>
      <trkpt lat="43.29066" lon="6.60899">
        <ele>1.775</ele>
        <time>2020-07-22T06:36:22Z</time>
      </trkpt>
      <trkpt lat="43.29078" lon="6.60919">
        <ele>1.974875</ele>
        <time>2020-07-22T06:36:26Z</time>
      </trkpt>
      <trkpt lat="43.29095" lon="6.60935">
        <ele>2.304319</ele>
        <time>2020-07-22T06:36:30Z</time>
      </trkpt>
      <trkpt lat="43.29111" lon="6.60948">
        <ele>2.395481</ele>
        <time>2020-07-22T06:36:34Z</time>
      </trkpt>
      <trkpt lat="43.29126" lon="6.60969">
        <ele>2.593419</ele>
        <time>2020-07-22T06:36:39Z</time>
      </trkpt>
      <trkpt lat="43.29136" lon="6.60989">
        <ele>2.598681</ele>
        <time>2020-07-22T06:36:43Z</time>
      </trkpt>
      <trkpt lat="43.29146" lon="6.61012">
        <ele>2.211125</ele>
        <time>2020-07-22T06:36:47Z</time>
      </trkpt>
      <trkpt lat="43.29154" lon="6.61037">
        <ele>1.7275</ele>
        <time>2020-07-22T06:36:51Z</time>
      </trkpt>
      <trkpt lat="43.29161" lon="6.61063">
        <ele>1.792562</ele>
        <time>2020-07-22T06:36:55Z</time>
      </trkpt>
      <trkpt lat="43.29168" lon="6.61088">
        <ele>1.856275</ele>
        <time>2020-07-22T06:36:59Z</time>
      </trkpt>
      <trkpt lat="43.29175" lon="6.61113">
        <ele>1.79435</ele>
        <time>2020-07-22T06:37:03Z</time>
      </trkpt>
      <trkpt lat="43.29181" lon="6.61138">
        <ele>1.5424</ele>
        <time>2020-07-22T06:37:07Z</time>
      </trkpt>
      <trkpt lat="43.29188" lon="6.61163">
        <ele>1.4344</ele>
        <time>2020-07-22T06:37:11Z</time>
      </trkpt>
      <trkpt lat="43.29195" lon="6.61188">
        <ele>1.363725</ele>
        <time>2020-07-22T06:37:15Z</time>
      </trkpt>
      <trkpt lat="43.29201" lon="6.61216">
        <ele>1.4757</ele>
        <time>2020-07-22T06:37:20Z</time>
      </trkpt>
      <trkpt lat="43.29209" lon="6.61244">
        <ele>1.707781</ele>
        <time>2020-07-22T06:37:25Z</time>
      </trkpt>
      <trkpt lat="43.29219" lon="6.61271">
        <ele>1.667625</ele>
        <time>2020-07-22T06:37:30Z</time>
      </trkpt>
      <trkpt lat="43.29233" lon="6.61296">
        <ele>1.6125</ele>
        <time>2020-07-22T06:37:35Z</time>
      </trkpt>
      <trkpt lat="43.29249" lon="6.61317">
        <ele>2.1574</ele>
        <time>2020-07-22T06:37:40Z</time>
      </trkpt>
      <trkpt lat="43.29263" lon="6.61336">
        <ele>2.442825</ele>
        <time>2020-07-22T06:37:44Z</time>
      </trkpt>
      <trkpt lat="43.2928" lon="6.61352">
        <ele>2.694825</ele>
        <time>2020-07-22T06:37:48Z</time>
      </trkpt>
      <trkpt lat="43.29294" lon="6.61368">
        <ele>2.914275</ele>
        <time>2020-07-22T06:37:52Z</time>
      </trkpt>
      <trkpt lat="43.29312" lon="6.61386">
        <ele>2.836838</ele>
        <time>2020-07-22T06:37:57Z</time>
      </trkpt>
      <trkpt lat="43.29328" lon="6.61404">
        <ele>2.586831</ele>
        <time>2020-07-22T06:38:02Z</time>
      </trkpt>
      <trkpt lat="43.29345" lon="6.61422">
        <ele>2.904537</ele>
        <time>2020-07-22T06:38:07Z</time>
      </trkpt>
      <trkpt lat="43.29362" lon="6.61439">
        <ele>2.865163</ele>
        <time>2020-07-22T06:38:12Z</time>
      </trkpt>
      <trkpt lat="43.29378" lon="6.61456">
        <ele>2.642978</ele>
        <time>2020-07-22T06:38:17Z</time>
      </trkpt>
      <trkpt lat="43.29395" lon="6.61474">
        <ele>2.342688</ele>
        <time>2020-07-22T06:38:22Z</time>
      </trkpt>
      <trkpt lat="43.29412" lon="6.61493">
        <ele>2.8642</ele>
        <time>2020-07-22T06:38:27Z</time>
      </trkpt>
      <trkpt lat="43.29424" lon="6.61511">
        <ele>3.6757</ele>
        <time>2020-07-22T06:38:31Z</time>
      </trkpt>
      <trkpt lat="43.29437" lon="6.61532">
        <ele>4.06815</ele>
        <time>2020-07-22T06:38:35Z</time>
      </trkpt>
      <trkpt lat="43.29449" lon="6.61553">
        <ele>3.917044</ele>
        <time>2020-07-22T06:38:39Z</time>
      </trkpt>
      <trkpt lat="43.2946" lon="6.61574">
        <ele>4.07</ele>
        <time>2020-07-22T06:38:43Z</time>
      </trkpt>
      <trkpt lat="43.29471" lon="6.616">
        <ele>4.09</ele>
        <time>2020-07-22T06:38:48Z</time>
      </trkpt>
      <trkpt lat="43.29482" lon="6.61624">
        <ele>4.432406</ele>
        <time>2020-07-22T06:38:53Z</time>
      </trkpt>
      <trkpt lat="43.29493" lon="6.61647">
        <ele>4.227</ele>
        <time>2020-07-22T06:38:58Z</time>
      </trkpt>
      <trkpt lat="43.29503" lon="6.61668">
        <ele>4.0175</ele>
        <time>2020-07-22T06:39:03Z</time>
      </trkpt>
      <trkpt lat="43.29514" lon="6.61689">
        <ele>4.3775</ele>
        <time>2020-07-22T06:39:08Z</time>
      </trkpt>
      <trkpt lat="43.29523" lon="6.6171">
        <ele>4.64</ele>
        <time>2020-07-22T06:39:13Z</time>
      </trkpt>
      <trkpt lat="43.29533" lon="6.61734">
        <ele>4.801275</ele>
        <time>2020-07-22T06:39:18Z</time>
      </trkpt>
      <trkpt lat="43.2954" lon="6.61761">
        <ele>4.794016</ele>
        <time>2020-07-22T06:39:23Z</time>
      </trkpt>
      <trkpt lat="43.29545" lon="6.6179">
        <ele>4.893594</ele>
        <time>2020-07-22T06:39:28Z</time>
      </trkpt>
      <trkpt lat="43.29551" lon="6.61818">
        <ele>4.555737</ele>
        <time>2020-07-22T06:39:32Z</time>
      </trkpt>
      <trkpt lat="43.29558" lon="6.61844">
        <ele>4.126963</ele>
        <time>2020-07-22T06:39:36Z</time>
      </trkpt>
      <trkpt lat="43.29567" lon="6.61871">
        <ele>3.547388</ele>
        <time>2020-07-22T06:39:41Z</time>
      </trkpt>
      <trkpt lat="43.29581" lon="6.61895">
        <ele>3.0225</ele>
        <time>2020-07-22T06:39:46Z</time>
      </trkpt>
      <trkpt lat="43.29591" lon="6.61918">
        <ele>2.3375</ele>
        <time>2020-07-22T06:39:50Z</time>
      </trkpt>
      <trkpt lat="43.29601" lon="6.61942">
        <ele>2.157669</ele>
        <time>2020-07-22T06:39:54Z</time>
      </trkpt>
      <trkpt lat="43.29612" lon="6.61967">
        <ele>1.6316</ele>
        <time>2020-07-22T06:39:58Z</time>
      </trkpt>
      <trkpt lat="43.29623" lon="6.61991">
        <ele>1.5325</ele>
        <time>2020-07-22T06:40:02Z</time>
      </trkpt>
      <trkpt lat="43.29634" lon="6.62012">
        <ele>2.01375</ele>
        <time>2020-07-22T06:40:06Z</time>
      </trkpt>
      <trkpt lat="43.29645" lon="6.62034">
        <ele>2.43625</ele>
        <time>2020-07-22T06:40:10Z</time>
      </trkpt>
      <trkpt lat="43.29653" lon="6.62057">
        <ele>2.676625</ele>
        <time>2020-07-22T06:40:14Z</time>
      </trkpt>
      <trkpt lat="43.29661" lon="6.62085">
        <ele>3.5309</ele>
        <time>2020-07-22T06:40:19Z</time>
      </trkpt>
      <trkpt lat="43.29664" lon="6.62111">
        <ele>4.193363</ele>
        <time>2020-07-22T06:40:24Z</time>
      </trkpt>
      <trkpt lat="43.29665" lon="6.62138">
        <ele>4.428556</ele>
        <time>2020-07-22T06:40:29Z</time>
      </trkpt>
      <trkpt lat="43.29665" lon="6.62164">
        <ele>4.5908</ele>
        <time>2020-07-22T06:40:34Z</time>
      </trkpt>
      <trkpt lat="43.29667" lon="6.62192">
        <ele>5.467237</ele>
        <time>2020-07-22T06:40:39Z</time>
      </trkpt>
      <trkpt lat="43.29668" lon="6.62223">
        <ele>6.575875</ele>
        <time>2020-07-22T06:40:44Z</time>
      </trkpt>
      <trkpt lat="43.29666" lon="6.62248">
        <ele>6.958063</ele>
        <time>2020-07-22T06:40:48Z</time>
      </trkpt>
      <trkpt lat="43.29664" lon="6.62273">
        <ele>6.9109</ele>
        <time>2020-07-22T06:40:52Z</time>
      </trkpt>
      <trkpt lat="43.29659" lon="6.62299">
        <ele>6.342312</ele>
        <time>2020-07-22T06:40:58Z</time>
      </trkpt>
      <trkpt lat="43.29655" lon="6.62323">
        <ele>6.331806</ele>
        <time>2020-07-22T06:41:06Z</time>
      </trkpt>
      <trkpt lat="43.29653" lon="6.6235">
        <ele>7.029512</ele>
        <time>2020-07-22T06:41:12Z</time>
      </trkpt>
      <trkpt lat="43.29654" lon="6.62376">
        <ele>6.479075</ele>
        <time>2020-07-22T06:41:17Z</time>
      </trkpt>
      <trkpt lat="43.29661" lon="6.62403">
        <ele>6.77305</ele>
        <time>2020-07-22T06:41:22Z</time>
      </trkpt>
      <trkpt lat="43.29672" lon="6.62428">
        <ele>6.793125</ele>
        <time>2020-07-22T06:41:26Z</time>
      </trkpt>
      <trkpt lat="43.29685" lon="6.6245">
        <ele>5.918875</ele>
        <time>2020-07-22T06:41:30Z</time>
      </trkpt>
      <trkpt lat="43.297" lon="6.62467">
        <ele>4.73625</ele>
        <time>2020-07-22T06:41:34Z</time>
      </trkpt>
      <trkpt lat="43.29721" lon="6.62476">
        <ele>4.639412</ele>
        <time>2020-07-22T06:41:39Z</time>
      </trkpt>
      <trkpt lat="43.29739" lon="6.62484">
        <ele>4.433562</ele>
        <time>2020-07-22T06:41:43Z</time>
      </trkpt>
      <trkpt lat="43.29757" lon="6.62489">
        <ele>4.9552</ele>
        <time>2020-07-22T06:41:48Z</time>
      </trkpt>
      <trkpt lat="43.29777" lon="6.62501">
        <ele>4.988331</ele>
        <time>2020-07-22T06:41:54Z</time>
      </trkpt>
      <trkpt lat="43.29797" lon="6.6251">
        <ele>4.9345</ele>
        <time>2020-07-22T06:41:58Z</time>
      </trkpt>
      <trkpt lat="43.29817" lon="6.62517">
        <ele>4.838506</ele>
        <time>2020-07-22T06:42:02Z</time>
      </trkpt>
      <trkpt lat="43.29835" lon="6.62526">
        <ele>3.78005</ele>
        <time>2020-07-22T06:42:06Z</time>
      </trkpt>
      <trkpt lat="43.29853" lon="6.62531">
        <ele>3.218869</ele>
        <time>2020-07-22T06:42:10Z</time>
      </trkpt>
      <trkpt lat="43.29874" lon="6.62536">
        <ele>2.656812</ele>
        <time>2020-07-22T06:42:15Z</time>
      </trkpt>
      <trkpt lat="43.29895" lon="6.6254">
        <ele>2.201313</ele>
        <time>2020-07-22T06:42:20Z</time>
      </trkpt>
      <trkpt lat="43.29915" lon="6.62544">
        <ele>1.828</ele>
        <time>2020-07-22T06:42:25Z</time>
      </trkpt>
      <trkpt lat="43.29934" lon="6.62549">
        <ele>1.493906</ele>
        <time>2020-07-22T06:42:30Z</time>
      </trkpt>
      <trkpt lat="43.29954" lon="6.62553">
        <ele>1.265</ele>
        <time>2020-07-22T06:42:35Z</time>
      </trkpt>
      <trkpt lat="43.29975" lon="6.62558">
        <ele>1.1675</ele>
        <time>2020-07-22T06:42:40Z</time>
      </trkpt>
      <trkpt lat="43.29997" lon="6.62563">
        <ele>1.04</ele>
        <time>2020-07-22T06:42:45Z</time>
      </trkpt>
      <trkpt lat="43.30017" lon="6.62566">
        <ele>0.995</ele>
        <time>2020-07-22T06:42:50Z</time>
      </trkpt>
      <trkpt lat="43.30037" lon="6.62568">
        <ele>0.9875</ele>
        <time>2020-07-22T06:42:56Z</time>
      </trkpt>
      <trkpt lat="43.30055" lon="6.62577">
        <ele>0.87125</ele>
        <time>2020-07-22T06:43:02Z</time>
      </trkpt>
      <trkpt lat="43.30073" lon="6.6258">
        <ele>0.83125</ele>
        <time>2020-07-22T06:43:08Z</time>
      </trkpt>
      <trkpt lat="43.30091" lon="6.62579">
        <ele>1.0125</ele>
        <time>2020-07-22T06:43:14Z</time>
      </trkpt>
      <trkpt lat="43.3011" lon="6.62586">
        <ele>1.34875</ele>
        <time>2020-07-22T06:43:20Z</time>
      </trkpt>
      <trkpt lat="43.30127" lon="6.62594">
        <ele>1.63875</ele>
        <time>2020-07-22T06:43:25Z</time>
      </trkpt>
      <trkpt lat="43.30145" lon="6.62603">
        <ele>1.963056</ele>
        <time>2020-07-22T06:43:30Z</time>
      </trkpt>
      <trkpt lat="43.30164" lon="6.62614">
        <ele>2.019813</ele>
        <time>2020-07-22T06:43:35Z</time>
      </trkpt>
      <trkpt lat="43.30182" lon="6.62626">
        <ele>1.7546</ele>
        <time>2020-07-22T06:43:40Z</time>
      </trkpt>
      <trkpt lat="43.302" lon="6.62637">
        <ele>1.319125</ele>
        <time>2020-07-22T06:43:45Z</time>
      </trkpt>
      <trkpt lat="43.30218" lon="6.62646">
        <ele>0.974422</ele>
        <time>2020-07-22T06:43:50Z</time>
      </trkpt>
      <trkpt lat="43.30237" lon="6.62657">
        <ele>1.153087</ele>
        <time>2020-07-22T06:43:55Z</time>
      </trkpt>
      <trkpt lat="43.30258" lon="6.62668">
        <ele>1.219144</ele>
        <time>2020-07-22T06:44:00Z</time>
      </trkpt>
      <trkpt lat="43.30275" lon="6.62678">
        <ele>1.156263</ele>
        <time>2020-07-22T06:44:04Z</time>
      </trkpt>
      <trkpt lat="43.30294" lon="6.62689">
        <ele>0.916978</ele>
        <time>2020-07-22T06:44:08Z</time>
      </trkpt>
      <trkpt lat="43.30312" lon="6.62701">
        <ele>0.66875</ele>
        <time>2020-07-22T06:44:12Z</time>
      </trkpt>
      <trkpt lat="43.30329" lon="6.62713">
        <ele>0.549137</ele>
        <time>2020-07-22T06:44:16Z</time>
      </trkpt>
      <trkpt lat="43.30347" lon="6.62726">
        <ele>0.775125</ele>
        <time>2020-07-22T06:44:21Z</time>
      </trkpt>
      <trkpt lat="43.30365" lon="6.62739">
        <ele>0.995</ele>
        <time>2020-07-22T06:44:26Z</time>
      </trkpt>
      <trkpt lat="43.30382" lon="6.62752">
        <ele>1.20375</ele>
        <time>2020-07-22T06:44:31Z</time>
      </trkpt>
      <trkpt lat="43.30397" lon="6.62767">
        <ele>1.33875</ele>
        <time>2020-07-22T06:44:37Z</time>
      </trkpt>
      <trkpt lat="43.3041" lon="6.62786">
        <ele>1.32375</ele>
        <time>2020-07-22T06:44:42Z</time>
      </trkpt>
      <trkpt lat="43.30424" lon="6.62807">
        <ele>1.32625</ele>
        <time>2020-07-22T06:44:47Z</time>
      </trkpt>
      <trkpt lat="43.30439" lon="6.62828">
        <ele>1.500275</ele>
        <time>2020-07-22T06:44:52Z</time>
      </trkpt>
      <trkpt lat="43.30454" lon="6.62849">
        <ele>1.804531</ele>
        <time>2020-07-22T06:44:57Z</time>
      </trkpt>
      <trkpt lat="43.30467" lon="6.62868">
        <ele>1.8987</ele>
        <time>2020-07-22T06:45:02Z</time>
      </trkpt>
      <trkpt lat="43.30479" lon="6.62891">
        <ele>1.6374</ele>
        <time>2020-07-22T06:45:07Z</time>
      </trkpt>
      <trkpt lat="43.30493" lon="6.62914">
        <ele>1.765</ele>
        <time>2020-07-22T06:45:12Z</time>
      </trkpt>
      <trkpt lat="43.30506" lon="6.62938">
        <ele>2.355</ele>
        <time>2020-07-22T06:45:17Z</time>
      </trkpt>
      <trkpt lat="43.30513" lon="6.62961">
        <ele>2.71</ele>
        <time>2020-07-22T06:45:22Z</time>
      </trkpt>
      <trkpt lat="43.30517" lon="6.6299">
        <ele>3.509731</ele>
        <time>2020-07-22T06:45:28Z</time>
      </trkpt>
      <trkpt lat="43.30518" lon="6.63018">
        <ele>4.605</ele>
        <time>2020-07-22T06:45:33Z</time>
      </trkpt>
      <trkpt lat="43.3052" lon="6.63043">
        <ele>5.69875</ele>
        <time>2020-07-22T06:45:38Z</time>
      </trkpt>
      <trkpt lat="43.30522" lon="6.63071">
        <ele>6.57</ele>
        <time>2020-07-22T06:45:43Z</time>
      </trkpt>
      <trkpt lat="43.30524" lon="6.63101">
        <ele>7.103019</ele>
        <time>2020-07-22T06:45:48Z</time>
      </trkpt>
      <trkpt lat="43.30527" lon="6.63128">
        <ele>6.077863</ele>
        <time>2020-07-22T06:45:52Z</time>
      </trkpt>
      <trkpt lat="43.30534" lon="6.6316">
        <ele>5.517719</ele>
        <time>2020-07-22T06:45:56Z</time>
      </trkpt>
      <trkpt lat="43.30543" lon="6.63184">
        <ele>4.67645</ele>
        <time>2020-07-22T06:45:59Z</time>
      </trkpt>
      <trkpt lat="43.30555" lon="6.63203">
        <ele>3.533113</ele>
        <time>2020-07-22T06:46:02Z</time>
      </trkpt>
      <trkpt lat="43.30569" lon="6.63219">
        <ele>2.912262</ele>
        <time>2020-07-22T06:46:06Z</time>
      </trkpt>
      <trkpt lat="43.30587" lon="6.63226">
        <ele>3.8805</ele>
        <time>2020-07-22T06:46:10Z</time>
      </trkpt>
      <trkpt lat="43.30605" lon="6.63225">
        <ele>5.531356</ele>
        <time>2020-07-22T06:46:15Z</time>
      </trkpt>
      <trkpt lat="43.30623" lon="6.63228">
        <ele>6.63445</ele>
        <time>2020-07-22T06:46:20Z</time>
      </trkpt>
      <trkpt lat="43.30642" lon="6.63236">
        <ele>7.12925</ele>
        <time>2020-07-22T06:46:25Z</time>
      </trkpt>
      <trkpt lat="43.3066" lon="6.63237">
        <ele>6.8868</ele>
        <time>2020-07-22T06:46:30Z</time>
      </trkpt>
      <trkpt lat="43.30681" lon="6.63236">
        <ele>6.776662</ele>
        <time>2020-07-22T06:46:36Z</time>
      </trkpt>
      <trkpt lat="43.30696" lon="6.6323">
        <ele>6.97225</ele>
        <time>2020-07-22T06:46:43Z</time>
      </trkpt>
      <trkpt lat="43.3071" lon="6.63225">
        <ele>6.948112</ele>
        <time>2020-07-22T06:46:51Z</time>
      </trkpt>
      <trkpt lat="43.30727" lon="6.63228">
        <ele>5.87605</ele>
        <time>2020-07-22T06:46:57Z</time>
      </trkpt>
      <trkpt lat="43.30748" lon="6.6323">
        <ele>4.486753</ele>
        <time>2020-07-22T06:47:10Z</time>
      </trkpt>
      <trkpt lat="43.30769" lon="6.6322">
        <ele>3.9049</ele>
        <time>2020-07-22T06:47:19Z</time>
      </trkpt>
      <trkpt lat="43.30787" lon="6.6323">
        <ele>2.3588</ele>
        <time>2020-07-22T06:47:28Z</time>
      </trkpt>
      <trkpt lat="43.30803" lon="6.63241">
        <ele>1.446625</ele>
        <time>2020-07-22T06:47:33Z</time>
      </trkpt>
      <trkpt lat="43.30824" lon="6.63235">
        <ele>1.121584</ele>
        <time>2020-07-22T06:47:38Z</time>
      </trkpt>
      <trkpt lat="43.30843" lon="6.63222">
        <ele>1.20735</ele>
        <time>2020-07-22T06:47:43Z</time>
      </trkpt>
      <trkpt lat="43.30858" lon="6.63207">
        <ele>1.1482</ele>
        <time>2020-07-22T06:47:47Z</time>
      </trkpt>
      <trkpt lat="43.30876" lon="6.63192">
        <ele>1</ele>
        <time>2020-07-22T06:47:51Z</time>
      </trkpt>
      <trkpt lat="43.30894" lon="6.63175">
        <ele>1.080059</ele>
        <time>2020-07-22T06:47:55Z</time>
      </trkpt>
      <trkpt lat="43.3091" lon="6.63159">
        <ele>1.067112</ele>
        <time>2020-07-22T06:47:59Z</time>
      </trkpt>
      <trkpt lat="43.30922" lon="6.63142">
        <ele>1</ele>
        <time>2020-07-22T06:48:04Z</time>
      </trkpt>
      <trkpt lat="43.30939" lon="6.63132">
        <ele>1</ele>
        <time>2020-07-22T06:48:10Z</time>
      </trkpt>
      <trkpt lat="43.3095" lon="6.63153">
        <ele>1</ele>
        <time>2020-07-22T06:48:16Z</time>
      </trkpt>
      <trkpt lat="43.30966" lon="6.63159">
        <ele>1.1125</ele>
        <time>2020-07-22T06:48:22Z</time>
      </trkpt>
      <trkpt lat="43.30974" lon="6.63187">
        <ele>1.305</ele>
        <time>2020-07-22T06:48:37Z</time>
      </trkpt>
      <trkpt lat="43.30982" lon="6.6321">
        <ele>1.515</ele>
        <time>2020-07-22T06:48:44Z</time>
      </trkpt>
      <trkpt lat="43.30992" lon="6.63238">
        <ele>1.7525</ele>
        <time>2020-07-22T06:48:49Z</time>
      </trkpt>
      <trkpt lat="43.31002" lon="6.63263">
        <ele>2.10375</ele>
        <time>2020-07-22T06:48:53Z</time>
      </trkpt>
      <trkpt lat="43.31011" lon="6.6329">
        <ele>2.640225</ele>
        <time>2020-07-22T06:48:58Z</time>
      </trkpt>
      <trkpt lat="43.31019" lon="6.63314">
        <ele>2.955437</ele>
        <time>2020-07-22T06:49:03Z</time>
      </trkpt>
      <trkpt lat="43.31033" lon="6.63328">
        <ele>3.14125</ele>
        <time>2020-07-22T06:49:11Z</time>
      </trkpt>
      <trkpt lat="43.31049" lon="6.63332">
        <ele>3.261294</ele>
        <time>2020-07-22T06:49:20Z</time>
      </trkpt>
      <trkpt lat="43.31069" lon="6.63322">
        <ele>3.528013</ele>
        <time>2020-07-22T06:49:25Z</time>
      </trkpt>
      <trkpt lat="43.31087" lon="6.63312">
        <ele>3.749813</ele>
        <time>2020-07-22T06:49:29Z</time>
      </trkpt>
      <trkpt lat="43.31107" lon="6.633">
        <ele>3.5975</ele>
        <time>2020-07-22T06:49:33Z</time>
      </trkpt>
      <trkpt lat="43.31128" lon="6.63288">
        <ele>3.37625</ele>
        <time>2020-07-22T06:49:37Z</time>
      </trkpt>
      <trkpt lat="43.3115" lon="6.63277">
        <ele>3.41485</ele>
        <time>2020-07-22T06:49:41Z</time>
      </trkpt>
      <trkpt lat="43.31168" lon="6.63267">
        <ele>3.69</ele>
        <time>2020-07-22T06:49:45Z</time>
      </trkpt>
      <trkpt lat="43.31184" lon="6.63259">
        <ele>4</ele>
        <time>2020-07-22T06:49:55Z</time>
      </trkpt>
      <trkpt lat="43.31201" lon="6.63246">
        <ele>4</ele>
        <time>2020-07-22T06:50:04Z</time>
      </trkpt>
      <trkpt lat="43.3122" lon="6.63241">
        <ele>4</ele>
        <time>2020-07-22T06:50:09Z</time>
      </trkpt>
      <trkpt lat="43.31237" lon="6.63229">
        <ele>4.195</ele>
        <time>2020-07-22T06:50:14Z</time>
      </trkpt>
      <trkpt lat="43.31254" lon="6.63218">
        <ele>4.565</ele>
        <time>2020-07-22T06:50:19Z</time>
      </trkpt>
      <trkpt lat="43.31273" lon="6.63207">
        <ele>4.98</ele>
        <time>2020-07-22T06:50:24Z</time>
      </trkpt>
      <trkpt lat="43.31294" lon="6.63196">
        <ele>5</ele>
        <time>2020-07-22T06:50:29Z</time>
      </trkpt>
      <trkpt lat="43.31314" lon="6.63185">
        <ele>5</ele>
        <time>2020-07-22T06:50:34Z</time>
      </trkpt>
      <trkpt lat="43.31334" lon="6.63173">
        <ele>5.2925</ele>
        <time>2020-07-22T06:50:39Z</time>
      </trkpt>
      <trkpt lat="43.31351" lon="6.6316">
        <ele>5.66</ele>
        <time>2020-07-22T06:50:44Z</time>
      </trkpt>
      <trkpt lat="43.31372" lon="6.6315">
        <ele>6</ele>
        <time>2020-07-22T06:50:50Z</time>
      </trkpt>
      <trkpt lat="43.31384" lon="6.63149">
        <ele>6</ele>
        <time>2020-07-22T06:51:04Z</time>
      </trkpt>
      <trkpt lat="43.31396" lon="6.63159">
        <ele>6</ele>
        <time>2020-07-22T06:51:15Z</time>
      </trkpt>
      <trkpt lat="43.31411" lon="6.6314">
        <ele>6</ele>
        <time>2020-07-22T06:51:24Z</time>
      </trkpt>
      <trkpt lat="43.31433" lon="6.63146">
        <ele>6.1395</ele>
        <time>2020-07-22T06:51:33Z</time>
      </trkpt>
      <trkpt lat="43.31446" lon="6.63172">
        <ele>6</ele>
        <time>2020-07-22T06:51:40Z</time>
      </trkpt>
      <trkpt lat="43.31457" lon="6.63191">
        <ele>6.0575</ele>
        <time>2020-07-22T06:52:59Z</time>
      </trkpt>
      <trkpt lat="43.31453" lon="6.63166">
        <ele>6.010603</ele>
        <time>2020-07-22T06:53:06Z</time>
      </trkpt>
      <trkpt lat="43.31443" lon="6.63145">
        <ele>6.234359</ele>
        <time>2020-07-22T06:53:11Z</time>
      </trkpt>
      <trkpt lat="43.31456" lon="6.63124">
        <ele>6.673253</ele>
        <time>2020-07-22T06:53:17Z</time>
      </trkpt>
      <trkpt lat="43.31467" lon="6.63104">
        <ele>7</ele>
        <time>2020-07-22T06:53:23Z</time>
      </trkpt>
      <trkpt lat="43.31484" lon="6.63091">
        <ele>7</ele>
        <time>2020-07-22T06:53:28Z</time>
      </trkpt>
      <trkpt lat="43.31504" lon="6.6308">
        <ele>7</ele>
        <time>2020-07-22T06:53:33Z</time>
      </trkpt>
      <trkpt lat="43.31525" lon="6.63072">
        <ele>7</ele>
        <time>2020-07-22T06:53:38Z</time>
      </trkpt>
      <trkpt lat="43.31547" lon="6.63067">
        <ele>7</ele>
        <time>2020-07-22T06:53:43Z</time>
      </trkpt>
      <trkpt lat="43.31566" lon="6.63067">
        <ele>7</ele>
        <time>2020-07-22T06:53:47Z</time>
      </trkpt>
      <trkpt lat="43.31587" lon="6.63068">
        <ele>7</ele>
        <time>2020-07-22T06:53:51Z</time>
      </trkpt>
      <trkpt lat="43.31607" lon="6.63071">
        <ele>7.2725</ele>
        <time>2020-07-22T06:53:54Z</time>
      </trkpt>
      <trkpt lat="43.31631" lon="6.63074">
        <ele>7.81</ele>
        <time>2020-07-22T06:53:58Z</time>
      </trkpt>
      <trkpt lat="43.31654" lon="6.63077">
        <ele>8</ele>
        <time>2020-07-22T06:54:02Z</time>
      </trkpt>
      <trkpt lat="43.31676" lon="6.6308">
        <ele>8</ele>
        <time>2020-07-22T06:54:06Z</time>
      </trkpt>
      <trkpt lat="43.31695" lon="6.63082">
        <ele>7.76</ele>
        <time>2020-07-22T06:54:10Z</time>
      </trkpt>
      <trkpt lat="43.31714" lon="6.63084">
        <ele>7.3275</ele>
        <time>2020-07-22T06:54:16Z</time>
      </trkpt>
      <trkpt lat="43.31733" lon="6.631">
        <ele>7.122588</ele>
        <time>2020-07-22T06:54:24Z</time>
      </trkpt>
      <trkpt lat="43.31751" lon="6.63116">
        <ele>7.83385</ele>
        <time>2020-07-22T06:54:30Z</time>
      </trkpt>
      <trkpt lat="43.3177" lon="6.63112">
        <ele>8.3724</ele>
        <time>2020-07-22T06:54:35Z</time>
      </trkpt>
      <trkpt lat="43.31788" lon="6.63099">
        <ele>9.1126</ele>
        <time>2020-07-22T06:54:52Z</time>
      </trkpt>
      <trkpt lat="43.31795" lon="6.63114">
        <ele>10.5725</ele>
        <time>2020-07-22T06:55:00Z</time>
      </trkpt>
      <trkpt lat="43.3178" lon="6.63135">
        <ele>10.058863</ele>
        <time>2020-07-22T06:55:05Z</time>
      </trkpt>
      <trkpt lat="43.31765" lon="6.6315">
        <ele>9.425</ele>
        <time>2020-07-22T06:55:09Z</time>
      </trkpt>
      <trkpt lat="43.31751" lon="6.6317">
        <ele>9.5425</ele>
        <time>2020-07-22T06:55:17Z</time>
      </trkpt>
      <trkpt lat="43.31759" lon="6.6319">
        <ele>10.496894</ele>
        <time>2020-07-22T06:55:24Z</time>
      </trkpt>
      <trkpt lat="43.31776" lon="6.6319">
        <ele>11.785981</ele>
        <time>2020-07-22T06:55:34Z</time>
      </trkpt>
      <trkpt lat="43.31795" lon="6.63192">
        <ele>14.332457</ele>
        <time>2020-07-22T06:55:44Z</time>
      </trkpt>
      <trkpt lat="43.31813" lon="6.63195">
        <ele>16.651213</ele>
        <time>2020-07-22T06:55:54Z</time>
      </trkpt>
      <trkpt lat="43.31832" lon="6.63208">
        <ele>18.356251</ele>
        <time>2020-07-22T06:56:05Z</time>
      </trkpt>
      <trkpt lat="43.31849" lon="6.63228">
        <ele>19.428749</ele>
        <time>2020-07-22T06:56:15Z</time>
      </trkpt>
      <trkpt lat="43.31867" lon="6.63243">
        <ele>20.202499</ele>
        <time>2020-07-22T06:56:25Z</time>
      </trkpt>
      <trkpt lat="43.31886" lon="6.63246">
        <ele>20.955</ele>
        <time>2020-07-22T06:56:33Z</time>
      </trkpt>
      <trkpt lat="43.31904" lon="6.63239">
        <ele>22.207012</ele>
        <time>2020-07-22T06:56:41Z</time>
      </trkpt>
      <trkpt lat="43.31921" lon="6.6323">
        <ele>23.779749</ele>
        <time>2020-07-22T06:56:49Z</time>
      </trkpt>
      <trkpt lat="43.31939" lon="6.63225">
        <ele>25.061449</ele>
        <time>2020-07-22T06:56:58Z</time>
      </trkpt>
      <trkpt lat="43.31959" lon="6.63227">
        <ele>26.238787</ele>
        <time>2020-07-22T06:57:07Z</time>
      </trkpt>
      <trkpt lat="43.31979" lon="6.63236">
        <ele>27.244013</ele>
        <time>2020-07-22T06:57:16Z</time>
      </trkpt>
      <trkpt lat="43.31996" lon="6.63247">
        <ele>27.955</ele>
        <time>2020-07-22T06:57:26Z</time>
      </trkpt>
      <trkpt lat="43.32017" lon="6.63255">
        <ele>29.130001</ele>
        <time>2020-07-22T06:57:37Z</time>
      </trkpt>
      <trkpt lat="43.32035" lon="6.63243">
        <ele>30.762501</ele>
        <time>2020-07-22T06:57:47Z</time>
      </trkpt>
      <trkpt lat="43.32052" lon="6.6323">
        <ele>32.487957</ele>
        <time>2020-07-22T06:57:57Z</time>
      </trkpt>
      <trkpt lat="43.3207" lon="6.63245">
        <ele>33.834187</ele>
        <time>2020-07-22T06:58:06Z</time>
      </trkpt>
      <trkpt lat="43.32082" lon="6.63266">
        <ele>35.023537</ele>
        <time>2020-07-22T06:58:15Z</time>
      </trkpt>
      <trkpt lat="43.32097" lon="6.63287">
        <ele>36.75</ele>
        <time>2020-07-22T06:58:25Z</time>
      </trkpt>
      <trkpt lat="43.32111" lon="6.63307">
        <ele>38.462502</ele>
        <time>2020-07-22T06:58:35Z</time>
      </trkpt>
      <trkpt lat="43.32123" lon="6.63327">
        <ele>39.862499</ele>
        <time>2020-07-22T06:58:43Z</time>
      </trkpt>
      <trkpt lat="43.32135" lon="6.63351">
        <ele>39.454376</ele>
        <time>2020-07-22T06:58:50Z</time>
      </trkpt>
      <trkpt lat="43.32147" lon="6.63371">
        <ele>38.37693</ele>
        <time>2020-07-22T06:58:54Z</time>
      </trkpt>
      <trkpt lat="43.32163" lon="6.63394">
        <ele>37.508614</ele>
        <time>2020-07-22T06:58:58Z</time>
      </trkpt>
      <trkpt lat="43.32176" lon="6.63414">
        <ele>37.035496</ele>
        <time>2020-07-22T06:59:01Z</time>
      </trkpt>
      <trkpt lat="43.32189" lon="6.63434">
        <ele>36.821831</ele>
        <time>2020-07-22T06:59:04Z</time>
      </trkpt>
      <trkpt lat="43.32201" lon="6.63454">
        <ele>36.945751</ele>
        <time>2020-07-22T06:59:07Z</time>
      </trkpt>
      <trkpt lat="43.32215" lon="6.63475">
        <ele>37.387199</ele>
        <time>2020-07-22T06:59:12Z</time>
      </trkpt>
      <trkpt lat="43.32232" lon="6.63482">
        <ele>38.565376</ele>
        <time>2020-07-22T06:59:20Z</time>
      </trkpt>
      <trkpt lat="43.3225" lon="6.63482">
        <ele>40.12693</ele>
        <time>2020-07-22T06:59:27Z</time>
      </trkpt>
      <trkpt lat="43.32268" lon="6.63479">
        <ele>41.040188</ele>
        <time>2020-07-22T06:59:35Z</time>
      </trkpt>
      <trkpt lat="43.32287" lon="6.6348">
        <ele>41.537251</ele>
        <time>2020-07-22T06:59:43Z</time>
      </trkpt>
      <trkpt lat="43.32306" lon="6.63488">
        <ele>42.15625</ele>
        <time>2020-07-22T06:59:51Z</time>
      </trkpt>
      <trkpt lat="43.32321" lon="6.63499">
        <ele>43.09</ele>
        <time>2020-07-22T07:00:00Z</time>
      </trkpt>
      <trkpt lat="43.32339" lon="6.63516">
        <ele>43.94875</ele>
        <time>2020-07-22T07:00:09Z</time>
      </trkpt>
      <trkpt lat="43.32354" lon="6.6353">
        <ele>45.060001</ele>
        <time>2020-07-22T07:00:19Z</time>
      </trkpt>
      <trkpt lat="43.32372" lon="6.63542">
        <ele>46.533749</ele>
        <time>2020-07-22T07:00:30Z</time>
      </trkpt>
      <trkpt lat="43.32395" lon="6.63548">
        <ele>48.821968</ele>
        <time>2020-07-22T07:00:42Z</time>
      </trkpt>
      <trkpt lat="43.32413" lon="6.63557">
        <ele>50.563549</ele>
        <time>2020-07-22T07:00:51Z</time>
      </trkpt>
      <trkpt lat="43.32432" lon="6.63581">
        <ele>52.783749</ele>
        <time>2020-07-22T07:01:01Z</time>
      </trkpt>
      <trkpt lat="43.32447" lon="6.63597">
        <ele>54.39875</ele>
        <time>2020-07-22T07:01:11Z</time>
      </trkpt>
      <trkpt lat="43.32465" lon="6.63612">
        <ele>56.278751</ele>
        <time>2020-07-22T07:01:19Z</time>
      </trkpt>
      <trkpt lat="43.3248" lon="6.63631">
        <ele>58.510502</ele>
        <time>2020-07-22T07:01:28Z</time>
      </trkpt>
      <trkpt lat="43.32493" lon="6.6365">
        <ele>60.369537</ele>
        <time>2020-07-22T07:01:36Z</time>
      </trkpt>
      <trkpt lat="43.32504" lon="6.6367">
        <ele>62.027813</ele>
        <time>2020-07-22T07:01:48Z</time>
      </trkpt>
      <trkpt lat="43.32517" lon="6.63691">
        <ele>61.970562</ele>
        <time>2020-07-22T07:01:59Z</time>
      </trkpt>
      <trkpt lat="43.32531" lon="6.63711">
        <ele>60.582401</ele>
        <time>2020-07-22T07:02:09Z</time>
      </trkpt>
      <trkpt lat="43.32553" lon="6.63721">
        <ele>59.981968</ele>
        <time>2020-07-22T07:02:14Z</time>
      </trkpt>
      <trkpt lat="43.32569" lon="6.63736">
        <ele>58.683552</ele>
        <time>2020-07-22T07:02:18Z</time>
      </trkpt>
      <trkpt lat="43.32583" lon="6.63756">
        <ele>56.273849</ele>
        <time>2020-07-22T07:02:22Z</time>
      </trkpt>
      <trkpt lat="43.32599" lon="6.63767">
        <ele>54.466312</ele>
        <time>2020-07-22T07:02:26Z</time>
      </trkpt>
      <trkpt lat="43.3262" lon="6.63764">
        <ele>53.269783</ele>
        <time>2020-07-22T07:02:30Z</time>
      </trkpt>
      <trkpt lat="43.32638" lon="6.63755">
        <ele>53.437531</ele>
        <time>2020-07-22T07:02:33Z</time>
      </trkpt>
      <trkpt lat="43.32656" lon="6.63753">
        <ele>53.109226</ele>
        <time>2020-07-22T07:02:36Z</time>
      </trkpt>
      <trkpt lat="43.32676" lon="6.63759">
        <ele>51.896873</ele>
        <time>2020-07-22T07:02:40Z</time>
      </trkpt>
      <trkpt lat="43.32695" lon="6.63758">
        <ele>51.993408</ele>
        <time>2020-07-22T07:02:44Z</time>
      </trkpt>
      <trkpt lat="43.32718" lon="6.63762">
        <ele>52.319378</ele>
        <time>2020-07-22T07:02:48Z</time>
      </trkpt>
      <trkpt lat="43.32737" lon="6.63767">
        <ele>52.084038</ele>
        <time>2020-07-22T07:02:52Z</time>
      </trkpt>
      <trkpt lat="43.32761" lon="6.63772">
        <ele>52.647125</ele>
        <time>2020-07-22T07:02:56Z</time>
      </trkpt>
      <trkpt lat="43.32779" lon="6.63779">
        <ele>52.278149</ele>
        <time>2020-07-22T07:02:59Z</time>
      </trkpt>
      <trkpt lat="43.32795" lon="6.63791">
        <ele>51.43</ele>
        <time>2020-07-22T07:03:05Z</time>
      </trkpt>
      <trkpt lat="43.32814" lon="6.63792">
        <ele>52.6647</ele>
        <time>2020-07-22T07:03:15Z</time>
      </trkpt>
      <trkpt lat="43.32833" lon="6.63787">
        <ele>54.213375</ele>
        <time>2020-07-22T07:03:22Z</time>
      </trkpt>
      <trkpt lat="43.32852" lon="6.63778">
        <ele>54.416</ele>
        <time>2020-07-22T07:03:28Z</time>
      </trkpt>
      <trkpt lat="43.32873" lon="6.63779">
        <ele>53.584099</ele>
        <time>2020-07-22T07:03:33Z</time>
      </trkpt>
      <trkpt lat="43.32893" lon="6.63781">
        <ele>52.96513</ele>
        <time>2020-07-22T07:03:39Z</time>
      </trkpt>
      <trkpt lat="43.32914" lon="6.6378">
        <ele>51.979832</ele>
        <time>2020-07-22T07:03:45Z</time>
      </trkpt>
      <trkpt lat="43.32933" lon="6.63783">
        <ele>52.715324</ele>
        <time>2020-07-22T07:03:51Z</time>
      </trkpt>
      <trkpt lat="43.32953" lon="6.63787">
        <ele>53.898724</ele>
        <time>2020-07-22T07:03:58Z</time>
      </trkpt>
      <trkpt lat="43.32973" lon="6.6379">
        <ele>55.092499</ele>
        <time>2020-07-22T07:04:04Z</time>
      </trkpt>
      <trkpt lat="43.32992" lon="6.63791">
        <ele>55.782501</ele>
        <time>2020-07-22T07:04:10Z</time>
      </trkpt>
      <trkpt lat="43.33011" lon="6.63788">
        <ele>55.802235</ele>
        <time>2020-07-22T07:04:17Z</time>
      </trkpt>
      <trkpt lat="43.33029" lon="6.63779">
        <ele>54.787964</ele>
        <time>2020-07-22T07:04:23Z</time>
      </trkpt>
      <trkpt lat="43.33048" lon="6.63776">
        <ele>56.170849</ele>
        <time>2020-07-22T07:04:29Z</time>
      </trkpt>
      <trkpt lat="43.33068" lon="6.63776">
        <ele>57.262199</ele>
        <time>2020-07-22T07:04:36Z</time>
      </trkpt>
      <trkpt lat="43.33089" lon="6.63779">
        <ele>57.899849</ele>
        <time>2020-07-22T07:04:44Z</time>
      </trkpt>
      <trkpt lat="43.33109" lon="6.63777">
        <ele>59.628006</ele>
        <time>2020-07-22T07:04:52Z</time>
      </trkpt>
      <trkpt lat="43.33125" lon="6.63765">
        <ele>60.9981</ele>
        <time>2020-07-22T07:04:58Z</time>
      </trkpt>
      <trkpt lat="43.33141" lon="6.63753">
        <ele>61.374786</ele>
        <time>2020-07-22T07:05:04Z</time>
      </trkpt>
      <trkpt lat="43.33159" lon="6.63741">
        <ele>61.395988</ele>
        <time>2020-07-22T07:05:11Z</time>
      </trkpt>
      <trkpt lat="43.33176" lon="6.63731">
        <ele>61.054905</ele>
        <time>2020-07-22T07:05:18Z</time>
      </trkpt>
      <trkpt lat="43.33195" lon="6.63722">
        <ele>61.760593</ele>
        <time>2020-07-22T07:05:26Z</time>
      </trkpt>
      <trkpt lat="43.33211" lon="6.6371">
        <ele>62.967281</ele>
        <time>2020-07-22T07:05:34Z</time>
      </trkpt>
      <trkpt lat="43.33227" lon="6.63696">
        <ele>63.404984</ele>
        <time>2020-07-22T07:05:42Z</time>
      </trkpt>
      <trkpt lat="43.33242" lon="6.6368">
        <ele>63.730686</ele>
        <time>2020-07-22T07:05:52Z</time>
      </trkpt>
      <trkpt lat="43.33257" lon="6.63663">
        <ele>65.284721</ele>
        <time>2020-07-22T07:06:02Z</time>
      </trkpt>
      <trkpt lat="43.33271" lon="6.63645">
        <ele>66.948685</ele>
        <time>2020-07-22T07:06:11Z</time>
      </trkpt>
      <trkpt lat="43.33288" lon="6.63631">
        <ele>68.64991</ele>
        <time>2020-07-22T07:06:22Z</time>
      </trkpt>
      <trkpt lat="43.33307" lon="6.63637">
        <ele>71.794998</ele>
        <time>2020-07-22T07:06:33Z</time>
      </trkpt>
      <trkpt lat="43.33327" lon="6.63644">
        <ele>74.68782</ele>
        <time>2020-07-22T07:06:42Z</time>
      </trkpt>
      <trkpt lat="43.33347" lon="6.63647">
        <ele>76.759605</ele>
        <time>2020-07-22T07:06:50Z</time>
      </trkpt>
      <trkpt lat="43.33367" lon="6.63654">
        <ele>78.42691</ele>
        <time>2020-07-22T07:06:58Z</time>
      </trkpt>
      <trkpt lat="43.33388" lon="6.63663">
        <ele>79.074844</ele>
        <time>2020-07-22T07:07:07Z</time>
      </trkpt>
      <trkpt lat="43.33405" lon="6.63664">
        <ele>80.119766</ele>
        <time>2020-07-22T07:07:15Z</time>
      </trkpt>
      <trkpt lat="43.33426" lon="6.63677">
        <ele>80.360771</ele>
        <time>2020-07-22T07:07:24Z</time>
      </trkpt>
      <trkpt lat="43.33447" lon="6.63688">
        <ele>81.3825</ele>
        <time>2020-07-22T07:10:09Z</time>
      </trkpt>
      <trkpt lat="43.33465" lon="6.637">
        <ele>83.470718</ele>
        <time>2020-07-22T07:10:16Z</time>
      </trkpt>
      <trkpt lat="43.33482" lon="6.63711">
        <ele>85.512268</ele>
        <time>2020-07-22T07:10:23Z</time>
      </trkpt>
      <trkpt lat="43.33501" lon="6.63723">
        <ele>87.429688</ele>
        <time>2020-07-22T07:10:31Z</time>
      </trkpt>
      <trkpt lat="43.33518" lon="6.63732">
        <ele>89.341248</ele>
        <time>2020-07-22T07:10:39Z</time>
      </trkpt>
      <trkpt lat="43.33538" lon="6.63737">
        <ele>91.258751</ele>
        <time>2020-07-22T07:10:49Z</time>
      </trkpt>
      <trkpt lat="43.33555" lon="6.63737">
        <ele>92.946396</ele>
        <time>2020-07-22T07:10:58Z</time>
      </trkpt>
      <trkpt lat="43.33577" lon="6.63737">
        <ele>95.461044</ele>
        <time>2020-07-22T07:11:08Z</time>
      </trkpt>
      <trkpt lat="43.33597" lon="6.63742">
        <ele>97.901497</ele>
        <time>2020-07-22T07:11:20Z</time>
      </trkpt>
      <trkpt lat="43.33615" lon="6.63742">
        <ele>99.76947</ele>
        <time>2020-07-22T07:11:30Z</time>
      </trkpt>
      <trkpt lat="43.33635" lon="6.63747">
        <ele>102.07235</ele>
        <time>2020-07-22T07:11:39Z</time>
      </trkpt>
      <trkpt lat="43.33653" lon="6.63754">
        <ele>103.543434</ele>
        <time>2020-07-22T07:11:48Z</time>
      </trkpt>
      <trkpt lat="43.33672" lon="6.63765">
        <ele>105.38855</ele>
        <time>2020-07-22T07:11:58Z</time>
      </trkpt>
      <trkpt lat="43.33691" lon="6.63775">
        <ele>107.717499</ele>
        <time>2020-07-22T07:12:08Z</time>
      </trkpt>
      <trkpt lat="43.33707" lon="6.6379">
        <ele>110.487503</ele>
        <time>2020-07-22T07:12:18Z</time>
      </trkpt>
      <trkpt lat="43.33722" lon="6.63807">
        <ele>113.212502</ele>
        <time>2020-07-22T07:12:28Z</time>
      </trkpt>
      <trkpt lat="43.33736" lon="6.63824">
        <ele>116.364998</ele>
        <time>2020-07-22T07:12:39Z</time>
      </trkpt>
      <trkpt lat="43.33751" lon="6.6384">
        <ele>119.500626</ele>
        <time>2020-07-22T07:12:49Z</time>
      </trkpt>
      <trkpt lat="43.3377" lon="6.63839">
        <ele>122.125626</ele>
        <time>2020-07-22T07:13:00Z</time>
      </trkpt>
      <trkpt lat="43.33786" lon="6.63827">
        <ele>123.750641</ele>
        <time>2020-07-22T07:13:12Z</time>
      </trkpt>
      <trkpt lat="43.33804" lon="6.63813">
        <ele>124.768456</ele>
        <time>2020-07-22T07:13:24Z</time>
      </trkpt>
      <trkpt lat="43.33822" lon="6.63807">
        <ele>126.912224</ele>
        <time>2020-07-22T07:13:37Z</time>
      </trkpt>
      <trkpt lat="43.33841" lon="6.63806">
        <ele>130.177338</ele>
        <time>2020-07-22T07:13:50Z</time>
      </trkpt>
      <trkpt lat="43.3386" lon="6.63803">
        <ele>133.149017</ele>
        <time>2020-07-22T07:14:01Z</time>
      </trkpt>
      <trkpt lat="43.33879" lon="6.63797">
        <ele>135.520309</ele>
        <time>2020-07-22T07:14:14Z</time>
      </trkpt>
      <trkpt lat="43.33898" lon="6.63792">
        <ele>137.893753</ele>
        <time>2020-07-22T07:14:26Z</time>
      </trkpt>
      <trkpt lat="43.33916" lon="6.63791">
        <ele>139.972702</ele>
        <time>2020-07-22T07:14:39Z</time>
      </trkpt>
      <trkpt lat="43.33937" lon="6.63792">
        <ele>142.479492</ele>
        <time>2020-07-22T07:14:52Z</time>
      </trkpt>
      <trkpt lat="43.33957" lon="6.63793">
        <ele>144.550003</ele>
        <time>2020-07-22T07:15:03Z</time>
      </trkpt>
      <trkpt lat="43.33975" lon="6.63793">
        <ele>145.910004</ele>
        <time>2020-07-22T07:15:14Z</time>
      </trkpt>
      <trkpt lat="43.33994" lon="6.63799">
        <ele>148.520004</ele>
        <time>2020-07-22T07:15:24Z</time>
      </trkpt>
      <trkpt lat="43.34011" lon="6.63812">
        <ele>153.527496</ele>
        <time>2020-07-22T07:15:36Z</time>
      </trkpt>
      <trkpt lat="43.34028" lon="6.63823">
        <ele>158.074997</ele>
        <time>2020-07-22T07:15:49Z</time>
      </trkpt>
      <trkpt lat="43.34046" lon="6.63825">
        <ele>160.579559</ele>
        <time>2020-07-22T07:16:00Z</time>
      </trkpt>
      <trkpt lat="43.34065" lon="6.63824">
        <ele>163.292694</ele>
        <time>2020-07-22T07:16:13Z</time>
      </trkpt>
      <trkpt lat="43.34084" lon="6.63823">
        <ele>165.730789</ele>
        <time>2020-07-22T07:16:25Z</time>
      </trkpt>
      <trkpt lat="43.34102" lon="6.63821">
        <ele>167.962219</ele>
        <time>2020-07-22T07:16:38Z</time>
      </trkpt>
      <trkpt lat="43.34122" lon="6.6382">
        <ele>170.58519</ele>
        <time>2020-07-22T07:16:51Z</time>
      </trkpt>
      <trkpt lat="43.3414" lon="6.6382">
        <ele>173.645004</ele>
        <time>2020-07-22T07:17:02Z</time>
      </trkpt>
      <trkpt lat="43.3416" lon="6.63822">
        <ele>177.577972</ele>
        <time>2020-07-22T07:17:14Z</time>
      </trkpt>
      <trkpt lat="43.34178" lon="6.6382">
        <ele>180.695877</ele>
        <time>2020-07-22T07:17:28Z</time>
      </trkpt>
      <trkpt lat="43.34193" lon="6.63833">
        <ele>185.725845</ele>
        <time>2020-07-22T07:17:43Z</time>
      </trkpt>
      <trkpt lat="43.342" lon="6.63857">
        <ele>188.868683</ele>
        <time>2020-07-22T07:17:58Z</time>
      </trkpt>
      <trkpt lat="43.34206" lon="6.63882">
        <ele>189.176804</ele>
        <time>2020-07-22T07:18:12Z</time>
      </trkpt>
      <trkpt lat="43.34211" lon="6.63882">
        <ele>189.38475</ele>
        <time>2020-07-22T07:20:49Z</time>
      </trkpt>
      <trkpt lat="43.34221" lon="6.63907">
        <ele>187.320343</ele>
        <time>2020-07-22T07:20:56Z</time>
      </trkpt>
      <trkpt lat="43.34237" lon="6.63921">
        <ele>183.840347</ele>
        <time>2020-07-22T07:21:01Z</time>
      </trkpt>
      <trkpt lat="43.34259" lon="6.63926">
        <ele>180.41835</ele>
        <time>2020-07-22T07:21:07Z</time>
      </trkpt>
      <trkpt lat="43.34279" lon="6.63928">
        <ele>181.730118</ele>
        <time>2020-07-22T07:21:11Z</time>
      </trkpt>
      <trkpt lat="43.34296" lon="6.63938">
        <ele>181.024445</ele>
        <time>2020-07-22T07:21:16Z</time>
      </trkpt>
      <trkpt lat="43.34309" lon="6.6396">
        <ele>176.403198</ele>
        <time>2020-07-22T07:21:24Z</time>
      </trkpt>
      <trkpt lat="43.34324" lon="6.63978">
        <ele>173.104309</ele>
        <time>2020-07-22T07:21:32Z</time>
      </trkpt>
      <trkpt lat="43.34339" lon="6.6399">
        <ele>172.112671</ele>
        <time>2020-07-22T07:21:40Z</time>
      </trkpt>
      <trkpt lat="43.34359" lon="6.63993">
        <ele>171.378754</ele>
        <time>2020-07-22T07:21:52Z</time>
      </trkpt>
      <trkpt lat="43.34377" lon="6.63988">
        <ele>170.727509</ele>
        <time>2020-07-22T07:21:58Z</time>
      </trkpt>
      <trkpt lat="43.34397" lon="6.63985">
        <ele>169.252045</ele>
        <time>2020-07-22T07:22:02Z</time>
      </trkpt>
      <trkpt lat="43.34421" lon="6.63989">
        <ele>164.606522</ele>
        <time>2020-07-22T07:22:06Z</time>
      </trkpt>
      <trkpt lat="43.3444" lon="6.63988">
        <ele>161.481445</ele>
        <time>2020-07-22T07:22:10Z</time>
      </trkpt>
      <trkpt lat="43.34457" lon="6.63986">
        <ele>157.427917</ele>
        <time>2020-07-22T07:22:17Z</time>
      </trkpt>
      <trkpt lat="43.34449" lon="6.64007">
        <ele>156.433289</ele>
        <time>2020-07-22T07:22:23Z</time>
      </trkpt>
      <trkpt lat="43.34431" lon="6.64021">
        <ele>156.310928</ele>
        <time>2020-07-22T07:22:29Z</time>
      </trkpt>
      <trkpt lat="43.34429" lon="6.64043">
        <ele>151.391678</ele>
        <time>2020-07-22T07:22:35Z</time>
      </trkpt>
      <trkpt lat="43.34449" lon="6.64041">
        <ele>149.057495</ele>
        <time>2020-07-22T07:22:42Z</time>
      </trkpt>
      <trkpt lat="43.34471" lon="6.64043">
        <ele>145.048996</ele>
        <time>2020-07-22T07:22:48Z</time>
      </trkpt>
      <trkpt lat="43.3449" lon="6.64051">
        <ele>140.468826</ele>
        <time>2020-07-22T07:22:52Z</time>
      </trkpt>
      <trkpt lat="43.34509" lon="6.64061">
        <ele>135.638779</ele>
        <time>2020-07-22T07:22:56Z</time>
      </trkpt>
      <trkpt lat="43.34528" lon="6.64072">
        <ele>131.465469</ele>
        <time>2020-07-22T07:23:01Z</time>
      </trkpt>
      <trkpt lat="43.34535" lon="6.641">
        <ele>127.744873</ele>
        <time>2020-07-22T07:23:05Z</time>
      </trkpt>
      <trkpt lat="43.34543" lon="6.64126">
        <ele>124.808937</ele>
        <time>2020-07-22T07:23:09Z</time>
      </trkpt>
      <trkpt lat="43.34554" lon="6.64153">
        <ele>123.027</ele>
        <time>2020-07-22T07:23:12Z</time>
      </trkpt>
      <trkpt lat="43.34563" lon="6.64174">
        <ele>122.622719</ele>
        <time>2020-07-22T07:23:15Z</time>
      </trkpt>
      <trkpt lat="43.34578" lon="6.64189">
        <ele>121.061249</ele>
        <time>2020-07-22T07:23:22Z</time>
      </trkpt>
      <trkpt lat="43.34596" lon="6.64181">
        <ele>118.455002</ele>
        <time>2020-07-22T07:23:29Z</time>
      </trkpt>
      <trkpt lat="43.34617" lon="6.64171">
        <ele>114.941116</ele>
        <time>2020-07-22T07:23:35Z</time>
      </trkpt>
      <trkpt lat="43.34636" lon="6.6417">
        <ele>110.738365</ele>
        <time>2020-07-22T07:23:42Z</time>
      </trkpt>
      <trkpt lat="43.34656" lon="6.64177">
        <ele>106.313469</ele>
        <time>2020-07-22T07:23:49Z</time>
      </trkpt>
      <trkpt lat="43.34676" lon="6.64175">
        <ele>102.959686</ele>
        <time>2020-07-22T07:23:55Z</time>
      </trkpt>
      <trkpt lat="43.34697" lon="6.64164">
        <ele>99.878403</ele>
        <time>2020-07-22T07:24:00Z</time>
      </trkpt>
      <trkpt lat="43.34719" lon="6.64156">
        <ele>96.973373</ele>
        <time>2020-07-22T07:24:05Z</time>
      </trkpt>
      <trkpt lat="43.34743" lon="6.64149">
        <ele>93.162498</ele>
        <time>2020-07-22T07:24:09Z</time>
      </trkpt>
      <trkpt lat="43.34761" lon="6.6413">
        <ele>89.060715</ele>
        <time>2020-07-22T07:24:13Z</time>
      </trkpt>
      <trkpt lat="43.34776" lon="6.64117">
        <ele>86.322845</ele>
        <time>2020-07-22T07:24:19Z</time>
      </trkpt>
      <trkpt lat="43.34794" lon="6.64114">
        <ele>84.05751</ele>
        <time>2020-07-22T07:24:24Z</time>
      </trkpt>
      <trkpt lat="43.34813" lon="6.64116">
        <ele>81.854973</ele>
        <time>2020-07-22T07:24:32Z</time>
      </trkpt>
      <trkpt lat="43.34829" lon="6.64136">
        <ele>80.871597</ele>
        <time>2020-07-22T07:24:46Z</time>
      </trkpt>
      <trkpt lat="43.34835" lon="6.64161">
        <ele>81.010597</ele>
        <time>2020-07-22T07:24:50Z</time>
      </trkpt>
      <trkpt lat="43.34846" lon="6.64184">
        <ele>78.40844</ele>
        <time>2020-07-22T07:24:53Z</time>
      </trkpt>
      <trkpt lat="43.34859" lon="6.64204">
        <ele>77.646965</ele>
        <time>2020-07-22T07:24:57Z</time>
      </trkpt>
      <trkpt lat="43.3486" lon="6.64224">
        <ele>78.122398</ele>
        <time>2020-07-22T07:25:04Z</time>
      </trkpt>
      <trkpt lat="43.34841" lon="6.64239">
        <ele>76.882767</ele>
        <time>2020-07-22T07:25:19Z</time>
      </trkpt>
      <trkpt lat="43.34831" lon="6.64263">
        <ele>76.513596</ele>
        <time>2020-07-22T07:25:25Z</time>
      </trkpt>
      <trkpt lat="43.34822" lon="6.64288">
        <ele>76.234612</ele>
        <time>2020-07-22T07:25:35Z</time>
      </trkpt>
      <trkpt lat="43.34808" lon="6.64305">
        <ele>75.058128</ele>
        <time>2020-07-22T07:25:43Z</time>
      </trkpt>
      <trkpt lat="43.34792" lon="6.64322">
        <ele>74.137749</ele>
        <time>2020-07-22T07:25:48Z</time>
      </trkpt>
      <trkpt lat="43.34782" lon="6.64353">
        <ele>70.536629</ele>
        <time>2020-07-22T07:25:52Z</time>
      </trkpt>
      <trkpt lat="43.3478" lon="6.64383">
        <ele>66.721802</ele>
        <time>2020-07-22T07:25:56Z</time>
      </trkpt>
      <trkpt lat="43.34784" lon="6.64409">
        <ele>63.349796</ele>
        <time>2020-07-22T07:26:01Z</time>
      </trkpt>
      <trkpt lat="43.34792" lon="6.64434">
        <ele>61.09</ele>
        <time>2020-07-22T07:26:08Z</time>
      </trkpt>
      <trkpt lat="43.34799" lon="6.64457">
        <ele>58.796654</ele>
        <time>2020-07-22T07:26:17Z</time>
      </trkpt>
      <trkpt lat="43.3481" lon="6.6448">
        <ele>55.717468</ele>
        <time>2020-07-22T07:26:30Z</time>
      </trkpt>
      <trkpt lat="43.34813" lon="6.64506">
        <ele>52.397999</ele>
        <time>2020-07-22T07:26:38Z</time>
      </trkpt>
      <trkpt lat="43.34819" lon="6.64533">
        <ele>47.199108</ele>
        <time>2020-07-22T07:26:45Z</time>
      </trkpt>
      <trkpt lat="43.3483" lon="6.64556">
        <ele>46.063812</ele>
        <time>2020-07-22T07:26:51Z</time>
      </trkpt>
      <trkpt lat="43.34834" lon="6.64584">
        <ele>44.071499</ele>
        <time>2020-07-22T07:26:55Z</time>
      </trkpt>
      <trkpt lat="43.34835" lon="6.64612">
        <ele>41.771366</ele>
        <time>2020-07-22T07:26:58Z</time>
      </trkpt>
      <trkpt lat="43.34827" lon="6.64641">
        <ele>39.0588</ele>
        <time>2020-07-22T07:27:02Z</time>
      </trkpt>
      <trkpt lat="43.34812" lon="6.64656">
        <ele>38.774033</ele>
        <time>2020-07-22T07:27:06Z</time>
      </trkpt>
      <trkpt lat="43.34796" lon="6.64667">
        <ele>41.067162</ele>
        <time>2020-07-22T07:27:13Z</time>
      </trkpt>
      <trkpt lat="43.34778" lon="6.64678">
        <ele>41.975189</ele>
        <time>2020-07-22T07:27:22Z</time>
      </trkpt>
      <trkpt lat="43.34762" lon="6.64693">
        <ele>42.072968</ele>
        <time>2020-07-22T07:27:30Z</time>
      </trkpt>
      <trkpt lat="43.34746" lon="6.6471">
        <ele>42.3125</ele>
        <time>2020-07-22T07:27:37Z</time>
      </trkpt>
      <trkpt lat="43.34735" lon="6.64733">
        <ele>41.872398</ele>
        <time>2020-07-22T07:27:44Z</time>
      </trkpt>
      <trkpt lat="43.34725" lon="6.64753">
        <ele>40.116249</ele>
        <time>2020-07-22T07:27:52Z</time>
      </trkpt>
      <trkpt lat="43.34711" lon="6.64768">
        <ele>38.623127</ele>
        <time>2020-07-22T07:28:00Z</time>
      </trkpt>
      <trkpt lat="43.34695" lon="6.64757">
        <ele>41.134449</ele>
        <time>2020-07-22T07:28:08Z</time>
      </trkpt>
      <trkpt lat="43.34684" lon="6.64772">
        <ele>41.153351</ele>
        <time>2020-07-22T07:28:15Z</time>
      </trkpt>
      <trkpt lat="43.34697" lon="6.64793">
        <ele>40.419235</ele>
        <time>2020-07-22T07:28:24Z</time>
      </trkpt>
      <trkpt lat="43.34713" lon="6.64813">
        <ele>36.162498</ele>
        <time>2020-07-22T07:28:31Z</time>
      </trkpt>
      <trkpt lat="43.34719" lon="6.64839">
        <ele>32.834999</ele>
        <time>2020-07-22T07:28:35Z</time>
      </trkpt>
      <trkpt lat="43.34719" lon="6.64865">
        <ele>32.52755</ele>
        <time>2020-07-22T07:28:39Z</time>
      </trkpt>
      <trkpt lat="43.34718" lon="6.64889">
        <ele>32.228703</ele>
        <time>2020-07-22T07:28:43Z</time>
      </trkpt>
      <trkpt lat="43.34717" lon="6.64919">
        <ele>31.784212</ele>
        <time>2020-07-22T07:28:48Z</time>
      </trkpt>
      <trkpt lat="43.34712" lon="6.64947">
        <ele>31.395832</ele>
        <time>2020-07-22T07:28:53Z</time>
      </trkpt>
      <trkpt lat="43.34704" lon="6.64973">
        <ele>32.452454</ele>
        <time>2020-07-22T07:28:58Z</time>
      </trkpt>
      <trkpt lat="43.34694" lon="6.64997">
        <ele>32.799576</ele>
        <time>2020-07-22T07:29:03Z</time>
      </trkpt>
      <trkpt lat="43.34685" lon="6.65023">
        <ele>32.486149</ele>
        <time>2020-07-22T07:29:09Z</time>
      </trkpt>
      <trkpt lat="43.34677" lon="6.65046">
        <ele>31.662275</ele>
        <time>2020-07-22T07:29:14Z</time>
      </trkpt>
      <trkpt lat="43.34667" lon="6.65068">
        <ele>29.632599</ele>
        <time>2020-07-22T07:29:23Z</time>
      </trkpt>
      <trkpt lat="43.34656" lon="6.65093">
        <ele>30.609453</ele>
        <time>2020-07-22T07:29:29Z</time>
      </trkpt>
      <trkpt lat="43.34649" lon="6.65118">
        <ele>31.530375</ele>
        <time>2020-07-22T07:29:33Z</time>
      </trkpt>
      <trkpt lat="43.34642" lon="6.65142">
        <ele>31.556749</ele>
        <time>2020-07-22T07:29:37Z</time>
      </trkpt>
      <trkpt lat="43.34636" lon="6.65168">
        <ele>30.366537</ele>
        <time>2020-07-22T07:29:41Z</time>
      </trkpt>
      <trkpt lat="43.34627" lon="6.65197">
        <ele>27.7682</ele>
        <time>2020-07-22T07:29:45Z</time>
      </trkpt>
      <trkpt lat="43.34619" lon="6.65221">
        <ele>26.965912</ele>
        <time>2020-07-22T07:29:48Z</time>
      </trkpt>
      <trkpt lat="43.34608" lon="6.65249">
        <ele>26.632626</ele>
        <time>2020-07-22T07:29:52Z</time>
      </trkpt>
      <trkpt lat="43.34607" lon="6.6528">
        <ele>27.00975</ele>
        <time>2020-07-22T07:29:56Z</time>
      </trkpt>
      <trkpt lat="43.34604" lon="6.65311">
        <ele>27.4536</ele>
        <time>2020-07-22T07:30:00Z</time>
      </trkpt>
      <trkpt lat="43.34597" lon="6.65341">
        <ele>28.225624</ele>
        <time>2020-07-22T07:30:04Z</time>
      </trkpt>
      <trkpt lat="43.34591" lon="6.6537">
        <ele>28.275675</ele>
        <time>2020-07-22T07:30:08Z</time>
      </trkpt>
      <trkpt lat="43.34586" lon="6.65399">
        <ele>27.545212</ele>
        <time>2020-07-22T07:30:12Z</time>
      </trkpt>
      <trkpt lat="43.34581" lon="6.65427">
        <ele>26.528826</ele>
        <time>2020-07-22T07:30:16Z</time>
      </trkpt>
      <trkpt lat="43.34574" lon="6.65451">
        <ele>25.323549</ele>
        <time>2020-07-22T07:30:20Z</time>
      </trkpt>
      <trkpt lat="43.34562" lon="6.65476">
        <ele>22.251549</ele>
        <time>2020-07-22T07:30:25Z</time>
      </trkpt>
      <trkpt lat="43.34549" lon="6.65493">
        <ele>21.039249</ele>
        <time>2020-07-22T07:30:30Z</time>
      </trkpt>
      <trkpt lat="43.34534" lon="6.65508">
        <ele>22.615419</ele>
        <time>2020-07-22T07:30:35Z</time>
      </trkpt>
      <trkpt lat="43.34516" lon="6.65529">
        <ele>22.205799</ele>
        <time>2020-07-22T07:30:40Z</time>
      </trkpt>
      <trkpt lat="43.34501" lon="6.65546">
        <ele>23.200813</ele>
        <time>2020-07-22T07:30:44Z</time>
      </trkpt>
      <trkpt lat="43.34486" lon="6.65567">
        <ele>25.304701</ele>
        <time>2020-07-22T07:30:49Z</time>
      </trkpt>
      <trkpt lat="43.34474" lon="6.65587">
        <ele>25.127691</ele>
        <time>2020-07-22T07:30:53Z</time>
      </trkpt>
      <trkpt lat="43.34461" lon="6.65607">
        <ele>23.397551</ele>
        <time>2020-07-22T07:30:57Z</time>
      </trkpt>
      <trkpt lat="43.34451" lon="6.65634">
        <ele>24.620188</ele>
        <time>2020-07-22T07:31:02Z</time>
      </trkpt>
      <trkpt lat="43.3444" lon="6.65666">
        <ele>24.175781</ele>
        <time>2020-07-22T07:31:06Z</time>
      </trkpt>
      <trkpt lat="43.34431" lon="6.65692">
        <ele>23.975876</ele>
        <time>2020-07-22T07:31:09Z</time>
      </trkpt>
      <trkpt lat="43.34422" lon="6.65717">
        <ele>22.918575</ele>
        <time>2020-07-22T07:31:12Z</time>
      </trkpt>
      <trkpt lat="43.34415" lon="6.65741">
        <ele>21.450594</ele>
        <time>2020-07-22T07:31:15Z</time>
      </trkpt>
      <trkpt lat="43.34411" lon="6.65766">
        <ele>20.74</ele>
        <time>2020-07-22T07:31:19Z</time>
      </trkpt>
      <trkpt lat="43.34406" lon="6.6579">
        <ele>21.30875</ele>
        <time>2020-07-22T07:31:23Z</time>
      </trkpt>
      <trkpt lat="43.34399" lon="6.65815">
        <ele>22.327812</ele>
        <time>2020-07-22T07:31:29Z</time>
      </trkpt>
      <trkpt lat="43.3439" lon="6.65843">
        <ele>23.211798</ele>
        <time>2020-07-22T07:31:34Z</time>
      </trkpt>
      <trkpt lat="43.34382" lon="6.6587">
        <ele>22.366449</ele>
        <time>2020-07-22T07:31:39Z</time>
      </trkpt>
      <trkpt lat="43.34382" lon="6.65902">
        <ele>19.114891</ele>
        <time>2020-07-22T07:31:45Z</time>
      </trkpt>
      <trkpt lat="43.34382" lon="6.65933">
        <ele>18.93</ele>
        <time>2020-07-22T07:31:50Z</time>
      </trkpt>
      <trkpt lat="43.34385" lon="6.65962">
        <ele>19.942499</ele>
        <time>2020-07-22T07:31:55Z</time>
      </trkpt>
      <trkpt lat="43.34386" lon="6.65984">
        <ele>20.175516</ele>
        <time>2020-07-22T07:32:24Z</time>
      </trkpt>
      <trkpt lat="43.34393" lon="6.66008">
        <ele>18.739138</ele>
        <time>2020-07-22T07:32:35Z</time>
      </trkpt>
      <trkpt lat="43.34409" lon="6.66022">
        <ele>18.734982</ele>
        <time>2020-07-22T07:32:41Z</time>
      </trkpt>
      <trkpt lat="43.34425" lon="6.6604">
        <ele>21.361931</ele>
        <time>2020-07-22T07:32:48Z</time>
      </trkpt>
      <trkpt lat="43.34441" lon="6.66053">
        <ele>24.53595</ele>
        <time>2020-07-22T07:33:25Z</time>
      </trkpt>
      <trkpt lat="43.3445" lon="6.66076">
        <ele>27.282812</ele>
        <time>2020-07-22T07:33:35Z</time>
      </trkpt>
      <trkpt lat="43.34449" lon="6.66101">
        <ele>27.686668</ele>
        <time>2020-07-22T07:33:44Z</time>
      </trkpt>
      <trkpt lat="43.34448" lon="6.66127">
        <ele>29.5959</ele>
        <time>2020-07-22T07:33:52Z</time>
      </trkpt>
      <trkpt lat="43.34449" lon="6.66153">
        <ele>31.967125</ele>
        <time>2020-07-22T07:34:01Z</time>
      </trkpt>
      <trkpt lat="43.34453" lon="6.66179">
        <ele>34.125999</ele>
        <time>2020-07-22T07:34:12Z</time>
      </trkpt>
      <trkpt lat="43.34466" lon="6.66198">
        <ele>36.165279</ele>
        <time>2020-07-22T07:34:23Z</time>
      </trkpt>
      <trkpt lat="43.34483" lon="6.66205">
        <ele>38.790051</ele>
        <time>2020-07-22T07:34:35Z</time>
      </trkpt>
      <trkpt lat="43.34501" lon="6.66203">
        <ele>41.083199</ele>
        <time>2020-07-22T07:34:51Z</time>
      </trkpt>
      <trkpt lat="43.34519" lon="6.66203">
        <ele>43.203201</ele>
        <time>2020-07-22T07:35:05Z</time>
      </trkpt>
      <trkpt lat="43.34537" lon="6.6621">
        <ele>44.955154</ele>
        <time>2020-07-22T07:35:18Z</time>
      </trkpt>
      <trkpt lat="43.34554" lon="6.66219">
        <ele>46.556751</ele>
        <time>2020-07-22T07:35:30Z</time>
      </trkpt>
      <trkpt lat="43.34571" lon="6.66226">
        <ele>48.236469</ele>
        <time>2020-07-22T07:35:44Z</time>
      </trkpt>
      <trkpt lat="43.3459" lon="6.66228">
        <ele>52.070362</ele>
        <time>2020-07-22T07:35:59Z</time>
      </trkpt>
      <trkpt lat="43.34608" lon="6.66227">
        <ele>56.50745</ele>
        <time>2020-07-22T07:36:14Z</time>
      </trkpt>
      <trkpt lat="43.34626" lon="6.66227">
        <ele>60.982971</ele>
        <time>2020-07-22T07:36:29Z</time>
      </trkpt>
      <trkpt lat="43.34645" lon="6.6623">
        <ele>64.467415</ele>
        <time>2020-07-22T07:36:45Z</time>
      </trkpt>
      <trkpt lat="43.34664" lon="6.66236">
        <ele>67.53508</ele>
        <time>2020-07-22T07:37:03Z</time>
      </trkpt>
      <trkpt lat="43.34687" lon="6.66244">
        <ele>72.108391</ele>
        <time>2020-07-22T07:38:48Z</time>
      </trkpt>
      <trkpt lat="43.34704" lon="6.66237">
        <ele>77.631325</ele>
        <time>2020-07-22T07:39:01Z</time>
      </trkpt>
      <trkpt lat="43.34708" lon="6.66213">
        <ele>82.792755</ele>
        <time>2020-07-22T07:39:15Z</time>
      </trkpt>
      <trkpt lat="43.34702" lon="6.66188">
        <ele>85.685646</ele>
        <time>2020-07-22T07:39:31Z</time>
      </trkpt>
      <trkpt lat="43.34697" lon="6.66164">
        <ele>87.418961</ele>
        <time>2020-07-22T07:39:45Z</time>
      </trkpt>
      <trkpt lat="43.34697" lon="6.6614">
        <ele>90.373596</ele>
        <time>2020-07-22T07:40:01Z</time>
      </trkpt>
      <trkpt lat="43.34707" lon="6.66119">
        <ele>95.013092</ele>
        <time>2020-07-22T07:40:16Z</time>
      </trkpt>
      <trkpt lat="43.34725" lon="6.66117">
        <ele>99.514961</ele>
        <time>2020-07-22T07:40:31Z</time>
      </trkpt>
      <trkpt lat="43.34744" lon="6.66127">
        <ele>102.883698</ele>
        <time>2020-07-22T07:40:47Z</time>
      </trkpt>
      <trkpt lat="43.34763" lon="6.66135">
        <ele>105.561623</ele>
        <time>2020-07-22T07:41:04Z</time>
      </trkpt>
      <trkpt lat="43.3478" lon="6.66138">
        <ele>107.885925</ele>
        <time>2020-07-22T07:41:19Z</time>
      </trkpt>
      <trkpt lat="43.348" lon="6.66142">
        <ele>110.381401</ele>
        <time>2020-07-22T07:41:33Z</time>
      </trkpt>
      <trkpt lat="43.34808" lon="6.66144">
        <ele>111.0364</ele>
        <time>2020-07-22T07:43:54Z</time>
      </trkpt>
      <trkpt lat="43.3479" lon="6.66135">
        <ele>110.046875</ele>
        <time>2020-07-22T07:44:10Z</time>
      </trkpt>
      <trkpt lat="43.34772" lon="6.66131">
        <ele>107.671341</ele>
        <time>2020-07-22T07:44:27Z</time>
      </trkpt>
      <trkpt lat="43.3477" lon="6.66133">
        <ele>107.082428</ele>
        <time>2020-07-22T07:46:01Z</time>
      </trkpt>
      <trkpt lat="43.34789" lon="6.66138">
        <ele>109.300873</ele>
        <time>2020-07-22T07:46:21Z</time>
      </trkpt>
      <trkpt lat="43.34808" lon="6.66144">
        <ele>111.000473</ele>
        <time>2020-07-22T07:46:44Z</time>
      </trkpt>
      <trkpt lat="43.34827" lon="6.66153">
        <ele>111.363373</ele>
        <time>2020-07-22T07:46:55Z</time>
      </trkpt>
      <trkpt lat="43.34846" lon="6.66161">
        <ele>111.728874</ele>
        <time>2020-07-22T07:47:02Z</time>
      </trkpt>
      <trkpt lat="43.34866" lon="6.66167">
        <ele>112.873657</ele>
        <time>2020-07-22T07:47:07Z</time>
      </trkpt>
      <trkpt lat="43.34883" lon="6.66171">
        <ele>113.778297</ele>
        <time>2020-07-22T07:47:16Z</time>
      </trkpt>
      <trkpt lat="43.34902" lon="6.66179">
        <ele>114.244469</ele>
        <time>2020-07-22T07:47:27Z</time>
      </trkpt>
      <trkpt lat="43.34921" lon="6.66184">
        <ele>114.948128</ele>
        <time>2020-07-22T07:47:37Z</time>
      </trkpt>
      <trkpt lat="43.3494" lon="6.66188">
        <ele>116.2798</ele>
        <time>2020-07-22T07:47:48Z</time>
      </trkpt>
      <trkpt lat="43.34958" lon="6.66189">
        <ele>118.024147</ele>
        <time>2020-07-22T07:47:57Z</time>
      </trkpt>
      <trkpt lat="43.34978" lon="6.66193">
        <ele>119.2108</ele>
        <time>2020-07-22T07:48:06Z</time>
      </trkpt>
      <trkpt lat="43.34996" lon="6.66201">
        <ele>119.831245</ele>
        <time>2020-07-22T07:48:14Z</time>
      </trkpt>
      <trkpt lat="43.35015" lon="6.66211">
        <ele>120.170029</ele>
        <time>2020-07-22T07:48:20Z</time>
      </trkpt>
      <trkpt lat="43.35034" lon="6.66223">
        <ele>119.315002</ele>
        <time>2020-07-22T07:48:27Z</time>
      </trkpt>
      <trkpt lat="43.35052" lon="6.66237">
        <ele>117.892616</ele>
        <time>2020-07-22T07:48:32Z</time>
      </trkpt>
      <trkpt lat="43.35071" lon="6.66251">
        <ele>116.772186</ele>
        <time>2020-07-22T07:48:37Z</time>
      </trkpt>
      <trkpt lat="43.35091" lon="6.66261">
        <ele>116.535698</ele>
        <time>2020-07-22T07:48:42Z</time>
      </trkpt>
      <trkpt lat="43.35114" lon="6.66269">
        <ele>117.291901</ele>
        <time>2020-07-22T07:48:46Z</time>
      </trkpt>
      <trkpt lat="43.35131" lon="6.66279">
        <ele>118.375122</ele>
        <time>2020-07-22T07:48:50Z</time>
      </trkpt>
      <trkpt lat="43.35149" lon="6.66289">
        <ele>120.196075</ele>
        <time>2020-07-22T07:49:00Z</time>
      </trkpt>
      <trkpt lat="43.35167" lon="6.663">
        <ele>122.805626</ele>
        <time>2020-07-22T07:49:09Z</time>
      </trkpt>
      <trkpt lat="43.3518" lon="6.66319">
        <ele>123.035835</ele>
        <time>2020-07-22T07:49:17Z</time>
      </trkpt>
      <trkpt lat="43.35193" lon="6.66339">
        <ele>123.325752</ele>
        <time>2020-07-22T07:49:25Z</time>
      </trkpt>
      <trkpt lat="43.35205" lon="6.66357">
        <ele>124.13398</ele>
        <time>2020-07-22T07:49:33Z</time>
      </trkpt>
      <trkpt lat="43.35221" lon="6.66371">
        <ele>125.618095</ele>
        <time>2020-07-22T07:49:41Z</time>
      </trkpt>
      <trkpt lat="43.35237" lon="6.66382">
        <ele>127.845001</ele>
        <time>2020-07-22T07:49:50Z</time>
      </trkpt>
      <trkpt lat="43.3525" lon="6.66362">
        <ele>130.110611</ele>
        <time>2020-07-22T07:50:01Z</time>
      </trkpt>
      <trkpt lat="43.35263" lon="6.66343">
        <ele>132.308441</ele>
        <time>2020-07-22T07:50:13Z</time>
      </trkpt>
      <trkpt lat="43.35277" lon="6.66326">
        <ele>136.187134</ele>
        <time>2020-07-22T07:50:25Z</time>
      </trkpt>
      <trkpt lat="43.35289" lon="6.66307">
        <ele>140.56279</ele>
        <time>2020-07-22T07:50:37Z</time>
      </trkpt>
      <trkpt lat="43.353" lon="6.66286">
        <ele>144.440567</ele>
        <time>2020-07-22T07:50:49Z</time>
      </trkpt>
      <trkpt lat="43.3531" lon="6.66265">
        <ele>149.705002</ele>
        <time>2020-07-22T07:51:01Z</time>
      </trkpt>
      <trkpt lat="43.35323" lon="6.66246">
        <ele>154.118057</ele>
        <time>2020-07-22T07:51:14Z</time>
      </trkpt>
      <trkpt lat="43.35341" lon="6.66234">
        <ele>154.701492</ele>
        <time>2020-07-22T07:51:26Z</time>
      </trkpt>
      <trkpt lat="43.35358" lon="6.66225">
        <ele>154.183746</ele>
        <time>2020-07-22T07:51:36Z</time>
      </trkpt>
      <trkpt lat="43.35373" lon="6.66211">
        <ele>155.755005</ele>
        <time>2020-07-22T07:51:47Z</time>
      </trkpt>
      <trkpt lat="43.35387" lon="6.66192">
        <ele>159.079147</ele>
        <time>2020-07-22T07:51:58Z</time>
      </trkpt>
      <trkpt lat="43.35405" lon="6.66182">
        <ele>159.511459</ele>
        <time>2020-07-22T07:52:10Z</time>
      </trkpt>
      <trkpt lat="43.35424" lon="6.6618">
        <ele>157.226929</ele>
        <time>2020-07-22T07:52:22Z</time>
      </trkpt>
      <trkpt lat="43.35438" lon="6.66162">
        <ele>160.713974</ele>
        <time>2020-07-22T07:52:34Z</time>
      </trkpt>
      <trkpt lat="43.3545" lon="6.66143">
        <ele>164.736801</ele>
        <time>2020-07-22T07:52:46Z</time>
      </trkpt>
      <trkpt lat="43.35465" lon="6.66129">
        <ele>167.01973</ele>
        <time>2020-07-22T07:52:58Z</time>
      </trkpt>
      <trkpt lat="43.35476" lon="6.66107">
        <ele>171.159256</ele>
        <time>2020-07-22T07:53:10Z</time>
      </trkpt>
      <trkpt lat="43.35484" lon="6.66081">
        <ele>176.640137</ele>
        <time>2020-07-22T07:54:54Z</time>
      </trkpt>
      <trkpt lat="43.35485" lon="6.66087">
        <ele>175.015579</ele>
        <time>2020-07-22T07:55:19Z</time>
      </trkpt>
      <trkpt lat="43.35485" lon="6.66085">
        <ele>175.521149</ele>
        <time>2020-07-22T07:55:34Z</time>
      </trkpt>
      <trkpt lat="43.35502" lon="6.66076">
        <ele>177.396118</ele>
        <time>2020-07-22T07:55:44Z</time>
      </trkpt>
      <trkpt lat="43.35522" lon="6.66077">
        <ele>176.673615</ele>
        <time>2020-07-22T07:55:57Z</time>
      </trkpt>
      <trkpt lat="43.35541" lon="6.6608">
        <ele>177.729385</ele>
        <time>2020-07-22T07:56:11Z</time>
      </trkpt>
      <trkpt lat="43.35559" lon="6.66077">
        <ele>180.720016</ele>
        <time>2020-07-22T07:56:26Z</time>
      </trkpt>
      <trkpt lat="43.35576" lon="6.6607">
        <ele>185.772369</ele>
        <time>2020-07-22T07:56:40Z</time>
      </trkpt>
      <trkpt lat="43.35594" lon="6.66063">
        <ele>191.809692</ele>
        <time>2020-07-22T07:56:53Z</time>
      </trkpt>
      <trkpt lat="43.3562" lon="6.66065">
        <ele>196.504501</ele>
        <time>2020-07-22T08:00:19Z</time>
      </trkpt>
      <trkpt lat="43.3564" lon="6.66075">
        <ele>198.610275</ele>
        <time>2020-07-22T08:00:30Z</time>
      </trkpt>
      <trkpt lat="43.35658" lon="6.66085">
        <ele>200.152344</ele>
        <time>2020-07-22T08:00:41Z</time>
      </trkpt>
      <trkpt lat="43.35675" lon="6.66095">
        <ele>200.014206</ele>
        <time>2020-07-22T08:00:53Z</time>
      </trkpt>
      <trkpt lat="43.35691" lon="6.6611">
        <ele>200.911194</ele>
        <time>2020-07-22T08:01:05Z</time>
      </trkpt>
      <trkpt lat="43.35706" lon="6.66124">
        <ele>204.225662</ele>
        <time>2020-07-22T08:01:19Z</time>
      </trkpt>
      <trkpt lat="43.35723" lon="6.66138">
        <ele>209.073013</ele>
        <time>2020-07-22T08:01:34Z</time>
      </trkpt>
      <trkpt lat="43.35737" lon="6.66155">
        <ele>213.625198</ele>
        <time>2020-07-22T08:01:47Z</time>
      </trkpt>
      <trkpt lat="43.35743" lon="6.66178">
        <ele>217.093246</ele>
        <time>2020-07-22T08:02:01Z</time>
      </trkpt>
      <trkpt lat="43.35746" lon="6.66202">
        <ele>219.90712</ele>
        <time>2020-07-22T08:02:13Z</time>
      </trkpt>
      <trkpt lat="43.3575" lon="6.6623">
        <ele>222.933044</ele>
        <time>2020-07-22T08:02:26Z</time>
      </trkpt>
      <trkpt lat="43.35751" lon="6.66255">
        <ele>224.935883</ele>
        <time>2020-07-22T08:02:39Z</time>
      </trkpt>
      <trkpt lat="43.35752" lon="6.6628">
        <ele>226.461151</ele>
        <time>2020-07-22T08:02:52Z</time>
      </trkpt>
      <trkpt lat="43.35755" lon="6.66307">
        <ele>229.493866</ele>
        <time>2020-07-22T08:03:06Z</time>
      </trkpt>
      <trkpt lat="43.35759" lon="6.66332">
        <ele>232.512375</ele>
        <time>2020-07-22T08:03:20Z</time>
      </trkpt>
      <trkpt lat="43.35762" lon="6.66357">
        <ele>234.117157</ele>
        <time>2020-07-22T08:03:33Z</time>
      </trkpt>
      <trkpt lat="43.35767" lon="6.66384">
        <ele>236.220398</ele>
        <time>2020-07-22T08:06:49Z</time>
      </trkpt>
      <trkpt lat="43.35772" lon="6.6641">
        <ele>236.448669</ele>
        <time>2020-07-22T08:06:59Z</time>
      </trkpt>
      <trkpt lat="43.35776" lon="6.66436">
        <ele>235.338913</ele>
        <time>2020-07-22T08:07:10Z</time>
      </trkpt>
      <trkpt lat="43.35785" lon="6.66461">
        <ele>234.643753</ele>
        <time>2020-07-22T08:07:20Z</time>
      </trkpt>
      <trkpt lat="43.35796" lon="6.66478">
        <ele>234.904999</ele>
        <time>2020-07-22T08:07:32Z</time>
      </trkpt>
      <trkpt lat="43.35812" lon="6.66489">
        <ele>238.467499</ele>
        <time>2020-07-22T08:07:44Z</time>
      </trkpt>
      <trkpt lat="43.35828" lon="6.66501">
        <ele>241.952698</ele>
        <time>2020-07-22T08:07:56Z</time>
      </trkpt>
      <trkpt lat="43.35845" lon="6.66512">
        <ele>245.75975</ele>
        <time>2020-07-22T08:08:08Z</time>
      </trkpt>
      <trkpt lat="43.35859" lon="6.66529">
        <ele>247.940308</ele>
        <time>2020-07-22T08:08:20Z</time>
      </trkpt>
      <trkpt lat="43.35869" lon="6.66551">
        <ele>249.025909</ele>
        <time>2020-07-22T08:08:31Z</time>
      </trkpt>
      <trkpt lat="43.3588" lon="6.66572">
        <ele>250.009186</ele>
        <time>2020-07-22T08:08:39Z</time>
      </trkpt>
      <trkpt lat="43.35889" lon="6.66596">
        <ele>248.610825</ele>
        <time>2020-07-22T08:08:47Z</time>
      </trkpt>
      <trkpt lat="43.35894" lon="6.66622">
        <ele>245.486893</ele>
        <time>2020-07-22T08:08:56Z</time>
      </trkpt>
      <trkpt lat="43.35899" lon="6.66646">
        <ele>242.288849</ele>
        <time>2020-07-22T08:09:05Z</time>
      </trkpt>
      <trkpt lat="43.35904" lon="6.6667">
        <ele>238.608246</ele>
        <time>2020-07-22T08:13:06Z</time>
      </trkpt>
      <trkpt lat="43.35916" lon="6.66688">
        <ele>232.916794</ele>
        <time>2020-07-22T08:13:15Z</time>
      </trkpt>
      <trkpt lat="43.35934" lon="6.66684">
        <ele>231.622375</ele>
        <time>2020-07-22T08:13:22Z</time>
      </trkpt>
      <trkpt lat="43.35949" lon="6.66671">
        <ele>233.58876</ele>
        <time>2020-07-22T08:13:29Z</time>
      </trkpt>
      <trkpt lat="43.35966" lon="6.66662">
        <ele>236.858002</ele>
        <time>2020-07-22T08:13:36Z</time>
      </trkpt>
      <trkpt lat="43.35984" lon="6.66668">
        <ele>235.342407</ele>
        <time>2020-07-22T08:13:46Z</time>
      </trkpt>
      <trkpt lat="43.35992" lon="6.66692">
        <ele>226.297394</ele>
        <time>2020-07-22T08:13:59Z</time>
      </trkpt>
      <trkpt lat="43.35999" lon="6.66716">
        <ele>218.265625</ele>
        <time>2020-07-22T08:14:38Z</time>
      </trkpt>
      <trkpt lat="43.36009" lon="6.66739">
        <ele>212.323502</ele>
        <time>2020-07-22T08:14:46Z</time>
      </trkpt>
      <trkpt lat="43.36025" lon="6.66762">
        <ele>206.284882</ele>
        <time>2020-07-22T08:14:51Z</time>
      </trkpt>
      <trkpt lat="43.36045" lon="6.66776">
        <ele>203.435318</ele>
        <time>2020-07-22T08:14:55Z</time>
      </trkpt>
      <trkpt lat="43.36069" lon="6.66778">
        <ele>205.960251</ele>
        <time>2020-07-22T08:14:59Z</time>
      </trkpt>
      <trkpt lat="43.36088" lon="6.66775">
        <ele>210.462341</ele>
        <time>2020-07-22T08:15:06Z</time>
      </trkpt>
      <trkpt lat="43.36106" lon="6.66778">
        <ele>213.913498</ele>
        <time>2020-07-22T08:15:15Z</time>
      </trkpt>
      <trkpt lat="43.36125" lon="6.66784">
        <ele>216.385452</ele>
        <time>2020-07-22T08:15:26Z</time>
      </trkpt>
      <trkpt lat="43.36142" lon="6.66792">
        <ele>220.494766</ele>
        <time>2020-07-22T08:16:46Z</time>
      </trkpt>
      <trkpt lat="43.36159" lon="6.66807">
        <ele>224.249023</ele>
        <time>2020-07-22T08:17:15Z</time>
      </trkpt>
      <trkpt lat="43.36169" lon="6.66832">
        <ele>223.850006</ele>
        <time>2020-07-22T08:17:22Z</time>
      </trkpt>
      <trkpt lat="43.36174" lon="6.66858">
        <ele>221.080429</ele>
        <time>2020-07-22T08:17:29Z</time>
      </trkpt>
      <trkpt lat="43.36185" lon="6.6688">
        <ele>218.909103</ele>
        <time>2020-07-22T08:17:34Z</time>
      </trkpt>
      <trkpt lat="43.36201" lon="6.66892">
        <ele>218.256607</ele>
        <time>2020-07-22T08:17:38Z</time>
      </trkpt>
      <trkpt lat="43.36218" lon="6.66899">
        <ele>218.539993</ele>
        <time>2020-07-22T08:17:42Z</time>
      </trkpt>
      <trkpt lat="43.36236" lon="6.66907">
        <ele>218.607498</ele>
        <time>2020-07-22T08:17:47Z</time>
      </trkpt>
      <trkpt lat="43.36253" lon="6.66929">
        <ele>214.635162</ele>
        <time>2020-07-22T08:17:52Z</time>
      </trkpt>
      <trkpt lat="43.36266" lon="6.66952">
        <ele>209.138</ele>
        <time>2020-07-22T08:17:56Z</time>
      </trkpt>
      <trkpt lat="43.36281" lon="6.66972">
        <ele>205.013031</ele>
        <time>2020-07-22T08:18:00Z</time>
      </trkpt>
      <trkpt lat="43.36296" lon="6.66986">
        <ele>203.136002</ele>
        <time>2020-07-22T08:18:04Z</time>
      </trkpt>
      <trkpt lat="43.36318" lon="6.66987">
        <ele>199.806213</ele>
        <time>2020-07-22T08:18:09Z</time>
      </trkpt>
      <trkpt lat="43.36334" lon="6.66972">
        <ele>200.311447</ele>
        <time>2020-07-22T08:18:13Z</time>
      </trkpt>
      <trkpt lat="43.36347" lon="6.6695">
        <ele>202.745804</ele>
        <time>2020-07-22T08:18:18Z</time>
      </trkpt>
      <trkpt lat="43.36363" lon="6.66952">
        <ele>203.257004</ele>
        <time>2020-07-22T08:18:24Z</time>
      </trkpt>
      <trkpt lat="43.36378" lon="6.66979">
        <ele>196.59198</ele>
        <time>2020-07-22T08:18:28Z</time>
      </trkpt>
      <trkpt lat="43.36392" lon="6.67004">
        <ele>190.904999</ele>
        <time>2020-07-22T08:18:31Z</time>
      </trkpt>
      <trkpt lat="43.36404" lon="6.67029">
        <ele>187.447495</ele>
        <time>2020-07-22T08:18:34Z</time>
      </trkpt>
      <trkpt lat="43.36414" lon="6.6705">
        <ele>184.597504</ele>
        <time>2020-07-22T08:18:38Z</time>
      </trkpt>
      <trkpt lat="43.36427" lon="6.67069">
        <ele>185.225876</ele>
        <time>2020-07-22T08:18:45Z</time>
      </trkpt>
      <trkpt lat="43.36432" lon="6.67097">
        <ele>183.619217</ele>
        <time>2020-07-22T08:18:50Z</time>
      </trkpt>
      <trkpt lat="43.36445" lon="6.67096">
        <ele>180.307816</ele>
        <time>2020-07-22T08:18:57Z</time>
      </trkpt>
      <trkpt lat="43.36452" lon="6.6707">
        <ele>179.091599</ele>
        <time>2020-07-22T08:19:23Z</time>
      </trkpt>
      <trkpt lat="43.36464" lon="6.67049">
        <ele>178.357193</ele>
        <time>2020-07-22T08:19:28Z</time>
      </trkpt>
      <trkpt lat="43.36481" lon="6.6703">
        <ele>179.694778</ele>
        <time>2020-07-22T08:19:33Z</time>
      </trkpt>
      <trkpt lat="43.36496" lon="6.67015">
        <ele>179.321655</ele>
        <time>2020-07-22T08:19:37Z</time>
      </trkpt>
      <trkpt lat="43.36516" lon="6.67007">
        <ele>175.387787</ele>
        <time>2020-07-22T08:19:42Z</time>
      </trkpt>
      <trkpt lat="43.36535" lon="6.67003">
        <ele>172.533569</ele>
        <time>2020-07-22T08:19:49Z</time>
      </trkpt>
      <trkpt lat="43.36554" lon="6.66998">
        <ele>171.009872</ele>
        <time>2020-07-22T08:19:56Z</time>
      </trkpt>
      <trkpt lat="43.36569" lon="6.66984">
        <ele>170.12706</ele>
        <time>2020-07-22T08:20:03Z</time>
      </trkpt>
      <trkpt lat="43.36578" lon="6.66961">
        <ele>171.074768</ele>
        <time>2020-07-22T08:20:09Z</time>
      </trkpt>
      <trkpt lat="43.36577" lon="6.66935">
        <ele>173.379288</ele>
        <time>2020-07-22T08:20:14Z</time>
      </trkpt>
      <trkpt lat="43.36565" lon="6.66907">
        <ele>177.5</ele>
        <time>2020-07-22T08:20:19Z</time>
      </trkpt>
      <trkpt lat="43.36557" lon="6.66886">
        <ele>181.085007</ele>
        <time>2020-07-22T08:20:22Z</time>
      </trkpt>
      <trkpt lat="43.36549" lon="6.66861">
        <ele>181.05098</ele>
        <time>2020-07-22T08:20:25Z</time>
      </trkpt>
      <trkpt lat="43.36542" lon="6.66833">
        <ele>178.731827</ele>
        <time>2020-07-22T08:20:28Z</time>
      </trkpt>
      <trkpt lat="43.36534" lon="6.66804">
        <ele>176.848007</ele>
        <time>2020-07-22T08:20:31Z</time>
      </trkpt>
      <trkpt lat="43.36525" lon="6.66779">
        <ele>177.186722</ele>
        <time>2020-07-22T08:20:34Z</time>
      </trkpt>
      <trkpt lat="43.36515" lon="6.66752">
        <ele>178.435394</ele>
        <time>2020-07-22T08:20:38Z</time>
      </trkpt>
      <trkpt lat="43.36514" lon="6.66727">
        <ele>175.460358</ele>
        <time>2020-07-22T08:20:41Z</time>
      </trkpt>
      <trkpt lat="43.36514" lon="6.66702">
        <ele>172.039688</ele>
        <time>2020-07-22T08:20:44Z</time>
      </trkpt>
      <trkpt lat="43.36508" lon="6.66672">
        <ele>171.709106</ele>
        <time>2020-07-22T08:20:48Z</time>
      </trkpt>
      <trkpt lat="43.36501" lon="6.66649">
        <ele>173.227158</ele>
        <time>2020-07-22T08:20:51Z</time>
      </trkpt>
      <trkpt lat="43.36505" lon="6.6662">
        <ele>171.759369</ele>
        <time>2020-07-22T08:20:55Z</time>
      </trkpt>
      <trkpt lat="43.36504" lon="6.66592">
        <ele>173.971878</ele>
        <time>2020-07-22T08:21:00Z</time>
      </trkpt>
      <trkpt lat="43.36497" lon="6.66567">
        <ele>175.874222</ele>
        <time>2020-07-22T08:21:07Z</time>
      </trkpt>
      <trkpt lat="43.36505" lon="6.66553">
        <ele>178.454315</ele>
        <time>2020-07-22T08:21:15Z</time>
      </trkpt>
      <trkpt lat="43.36523" lon="6.6657">
        <ele>174.432343</ele>
        <time>2020-07-22T08:21:24Z</time>
      </trkpt>
      <trkpt lat="43.3654" lon="6.66586">
        <ele>170.596313</ele>
        <time>2020-07-22T08:21:30Z</time>
      </trkpt>
      <trkpt lat="43.36557" lon="6.66604">
        <ele>171.080994</ele>
        <time>2020-07-22T08:21:36Z</time>
      </trkpt>
      <trkpt lat="43.36572" lon="6.66623">
        <ele>168.453995</ele>
        <time>2020-07-22T08:21:41Z</time>
      </trkpt>
      <trkpt lat="43.36586" lon="6.66642">
        <ele>164.788498</ele>
        <time>2020-07-22T08:21:46Z</time>
      </trkpt>
      <trkpt lat="43.36604" lon="6.66657">
        <ele>164.86734</ele>
        <time>2020-07-22T08:21:50Z</time>
      </trkpt>
      <trkpt lat="43.36622" lon="6.66666">
        <ele>166.707245</ele>
        <time>2020-07-22T08:21:54Z</time>
      </trkpt>
      <trkpt lat="43.36643" lon="6.66671">
        <ele>163.85553</ele>
        <time>2020-07-22T08:22:00Z</time>
      </trkpt>
      <trkpt lat="43.36662" lon="6.66655">
        <ele>165.754517</ele>
        <time>2020-07-22T08:22:05Z</time>
      </trkpt>
      <trkpt lat="43.36668" lon="6.66628">
        <ele>168.191559</ele>
        <time>2020-07-22T08:22:09Z</time>
      </trkpt>
      <trkpt lat="43.3667" lon="6.666">
        <ele>168.879227</ele>
        <time>2020-07-22T08:22:15Z</time>
      </trkpt>
      <trkpt lat="43.36666" lon="6.66574">
        <ele>172.220062</ele>
        <time>2020-07-22T08:22:21Z</time>
      </trkpt>
      <trkpt lat="43.36661" lon="6.66548">
        <ele>176.617691</ele>
        <time>2020-07-22T08:22:28Z</time>
      </trkpt>
      <trkpt lat="43.3666" lon="6.66521">
        <ele>179.587463</ele>
        <time>2020-07-22T08:22:36Z</time>
      </trkpt>
      <trkpt lat="43.36661" lon="6.66494">
        <ele>180.822968</ele>
        <time>2020-07-22T08:22:45Z</time>
      </trkpt>
      <trkpt lat="43.36663" lon="6.66467">
        <ele>181.863068</ele>
        <time>2020-07-22T08:22:54Z</time>
      </trkpt>
      <trkpt lat="43.36662" lon="6.66443">
        <ele>183.391953</ele>
        <time>2020-07-22T08:23:02Z</time>
      </trkpt>
      <trkpt lat="43.36661" lon="6.66416">
        <ele>184.55777</ele>
        <time>2020-07-22T08:23:11Z</time>
      </trkpt>
      <trkpt lat="43.36656" lon="6.6639">
        <ele>187.623962</ele>
        <time>2020-07-22T08:23:20Z</time>
      </trkpt>
      <trkpt lat="43.36655" lon="6.66362">
        <ele>188.64035</ele>
        <time>2020-07-22T08:23:30Z</time>
      </trkpt>
      <trkpt lat="43.36656" lon="6.66335">
        <ele>188.782944</ele>
        <time>2020-07-22T08:23:40Z</time>
      </trkpt>
      <trkpt lat="43.36655" lon="6.66308">
        <ele>190.781967</ele>
        <time>2020-07-22T08:23:49Z</time>
      </trkpt>
      <trkpt lat="43.36656" lon="6.66283">
        <ele>192.108246</ele>
        <time>2020-07-22T08:23:56Z</time>
      </trkpt>
      <trkpt lat="43.3667" lon="6.66265">
        <ele>190.548431</ele>
        <time>2020-07-22T08:24:04Z</time>
      </trkpt>
      <trkpt lat="43.36678" lon="6.6624">
        <ele>190.11351</ele>
        <time>2020-07-22T08:24:12Z</time>
      </trkpt>
      <trkpt lat="43.36672" lon="6.66213">
        <ele>192.038086</ele>
        <time>2020-07-22T08:24:20Z</time>
      </trkpt>
      <trkpt lat="43.36659" lon="6.66188">
        <ele>192.463867</ele>
        <time>2020-07-22T08:24:26Z</time>
      </trkpt>
      <trkpt lat="43.36647" lon="6.66166">
        <ele>192.451935</ele>
        <time>2020-07-22T08:24:32Z</time>
      </trkpt>
      <trkpt lat="43.36635" lon="6.66146">
        <ele>192.56694</ele>
        <time>2020-07-22T08:24:38Z</time>
      </trkpt>
      <trkpt lat="43.36622" lon="6.66122">
        <ele>189.257782</ele>
        <time>2020-07-22T08:24:44Z</time>
      </trkpt>
      <trkpt lat="43.36606" lon="6.66108">
        <ele>187.716904</ele>
        <time>2020-07-22T08:24:49Z</time>
      </trkpt>
      <trkpt lat="43.36585" lon="6.66102">
        <ele>186.79631</ele>
        <time>2020-07-22T08:24:54Z</time>
      </trkpt>
      <trkpt lat="43.36566" lon="6.66106">
        <ele>188.117249</ele>
        <time>2020-07-22T08:25:01Z</time>
      </trkpt>
      <trkpt lat="43.36547" lon="6.66112">
        <ele>191.282806</ele>
        <time>2020-07-22T08:25:08Z</time>
      </trkpt>
      <trkpt lat="43.36526" lon="6.66121">
        <ele>194.466599</ele>
        <time>2020-07-22T08:25:14Z</time>
      </trkpt>
      <trkpt lat="43.36516" lon="6.66104">
        <ele>194.501862</ele>
        <time>2020-07-22T08:25:19Z</time>
      </trkpt>
      <trkpt lat="43.36529" lon="6.66079">
        <ele>190.448563</ele>
        <time>2020-07-22T08:25:26Z</time>
      </trkpt>
      <trkpt lat="43.36537" lon="6.66052">
        <ele>190.510696</ele>
        <time>2020-07-22T08:25:32Z</time>
      </trkpt>
      <trkpt lat="43.36546" lon="6.66027">
        <ele>189.672379</ele>
        <time>2020-07-22T08:25:38Z</time>
      </trkpt>
      <trkpt lat="43.36556" lon="6.66005">
        <ele>186.067245</ele>
        <time>2020-07-22T08:25:44Z</time>
      </trkpt>
      <trkpt lat="43.3656" lon="6.65978">
        <ele>185.728439</ele>
        <time>2020-07-22T08:25:50Z</time>
      </trkpt>
      <trkpt lat="43.36556" lon="6.65953">
        <ele>188.0112</ele>
        <time>2020-07-22T08:25:56Z</time>
      </trkpt>
      <trkpt lat="43.36547" lon="6.65927">
        <ele>189.745468</ele>
        <time>2020-07-22T08:26:03Z</time>
      </trkpt>
      <trkpt lat="43.36537" lon="6.65905">
        <ele>191.374191</ele>
        <time>2020-07-22T08:26:09Z</time>
      </trkpt>
      <trkpt lat="43.36524" lon="6.65884">
        <ele>193.40921</ele>
        <time>2020-07-22T08:26:15Z</time>
      </trkpt>
      <trkpt lat="43.36509" lon="6.65868">
        <ele>194.448196</ele>
        <time>2020-07-22T08:26:20Z</time>
      </trkpt>
      <trkpt lat="43.36492" lon="6.65852">
        <ele>194.156433</ele>
        <time>2020-07-22T08:26:27Z</time>
      </trkpt>
      <trkpt lat="43.36475" lon="6.65841">
        <ele>193.094757</ele>
        <time>2020-07-22T08:26:34Z</time>
      </trkpt>
      <trkpt lat="43.36454" lon="6.65838">
        <ele>191.323441</ele>
        <time>2020-07-22T08:26:39Z</time>
      </trkpt>
      <trkpt lat="43.36431" lon="6.6584">
        <ele>191.153748</ele>
        <time>2020-07-22T08:26:43Z</time>
      </trkpt>
      <trkpt lat="43.36409" lon="6.65839">
        <ele>188.311249</ele>
        <time>2020-07-22T08:26:46Z</time>
      </trkpt>
      <trkpt lat="43.36389" lon="6.65837">
        <ele>185.558746</ele>
        <time>2020-07-22T08:26:49Z</time>
      </trkpt>
      <trkpt lat="43.36369" lon="6.65841">
        <ele>183.869232</ele>
        <time>2020-07-22T08:26:52Z</time>
      </trkpt>
      <trkpt lat="43.36347" lon="6.65847">
        <ele>181.804169</ele>
        <time>2020-07-22T08:26:55Z</time>
      </trkpt>
      <trkpt lat="43.36326" lon="6.65854">
        <ele>184.043503</ele>
        <time>2020-07-22T08:26:58Z</time>
      </trkpt>
      <trkpt lat="43.36312" lon="6.6584">
        <ele>183.879242</ele>
        <time>2020-07-22T08:27:04Z</time>
      </trkpt>
      <trkpt lat="43.3631" lon="6.65814">
        <ele>182.43631</ele>
        <time>2020-07-22T08:27:12Z</time>
      </trkpt>
      <trkpt lat="43.36309" lon="6.65787">
        <ele>187.752106</ele>
        <time>2020-07-22T08:27:21Z</time>
      </trkpt>
      <trkpt lat="43.36321" lon="6.65767">
        <ele>188.787109</ele>
        <time>2020-07-22T08:27:30Z</time>
      </trkpt>
      <trkpt lat="43.36337" lon="6.65752">
        <ele>187.843323</ele>
        <time>2020-07-22T08:27:41Z</time>
      </trkpt>
      <trkpt lat="43.36347" lon="6.6573">
        <ele>189.743561</ele>
        <time>2020-07-22T08:27:52Z</time>
      </trkpt>
      <trkpt lat="43.36352" lon="6.65705">
        <ele>193.525116</ele>
        <time>2020-07-22T08:28:02Z</time>
      </trkpt>
      <trkpt lat="43.36363" lon="6.65686">
        <ele>193.856277</ele>
        <time>2020-07-22T08:28:12Z</time>
      </trkpt>
      <trkpt lat="43.36376" lon="6.65667">
        <ele>193.076187</ele>
        <time>2020-07-22T08:28:23Z</time>
      </trkpt>
      <trkpt lat="43.3638" lon="6.65643">
        <ele>195.782028</ele>
        <time>2020-07-22T08:28:34Z</time>
      </trkpt>
      <trkpt lat="43.36367" lon="6.65626">
        <ele>200.505051</ele>
        <time>2020-07-22T08:28:46Z</time>
      </trkpt>
      <trkpt lat="43.36348" lon="6.65633">
        <ele>203.141006</ele>
        <time>2020-07-22T08:28:58Z</time>
      </trkpt>
      <trkpt lat="43.36331" lon="6.65644">
        <ele>204.323456</ele>
        <time>2020-07-22T08:29:08Z</time>
      </trkpt>
      <trkpt lat="43.36315" lon="6.65658">
        <ele>205.943756</ele>
        <time>2020-07-22T08:29:19Z</time>
      </trkpt>
      <trkpt lat="43.36304" lon="6.65677">
        <ele>207.32457</ele>
        <time>2020-07-22T08:29:29Z</time>
      </trkpt>
      <trkpt lat="43.36292" lon="6.65696">
        <ele>207.592056</ele>
        <time>2020-07-22T08:29:39Z</time>
      </trkpt>
      <trkpt lat="43.36273" lon="6.65699">
        <ele>210.188004</ele>
        <time>2020-07-22T08:29:49Z</time>
      </trkpt>
      <trkpt lat="43.36252" lon="6.65697">
        <ele>213.576843</ele>
        <time>2020-07-22T08:29:58Z</time>
      </trkpt>
      <trkpt lat="43.36238" lon="6.6568">
        <ele>214.551315</ele>
        <time>2020-07-22T08:30:45Z</time>
      </trkpt>
      <trkpt lat="43.36229" lon="6.65657">
        <ele>212.362534</ele>
        <time>2020-07-22T08:30:52Z</time>
      </trkpt>
      <trkpt lat="43.36212" lon="6.6564">
        <ele>210.977493</ele>
        <time>2020-07-22T08:30:57Z</time>
      </trkpt>
      <trkpt lat="43.36189" lon="6.65642">
        <ele>215.040009</ele>
        <time>2020-07-22T08:31:01Z</time>
      </trkpt>
      <trkpt lat="43.36175" lon="6.65629">
        <ele>215.425003</ele>
        <time>2020-07-22T08:31:06Z</time>
      </trkpt>
      <trkpt lat="43.36179" lon="6.65601">
        <ele>212.272995</ele>
        <time>2020-07-22T08:31:12Z</time>
      </trkpt>
      <trkpt lat="43.36183" lon="6.65575">
        <ele>210.263748</ele>
        <time>2020-07-22T08:31:16Z</time>
      </trkpt>
      <trkpt lat="43.36181" lon="6.65548">
        <ele>209.443756</ele>
        <time>2020-07-22T08:31:20Z</time>
      </trkpt>
      <trkpt lat="43.36178" lon="6.65519">
        <ele>208.475006</ele>
        <time>2020-07-22T08:31:25Z</time>
      </trkpt>
      <trkpt lat="43.36175" lon="6.65491">
        <ele>207.96788</ele>
        <time>2020-07-22T08:31:30Z</time>
      </trkpt>
      <trkpt lat="43.36167" lon="6.65461">
        <ele>209.81813</ele>
        <time>2020-07-22T08:31:34Z</time>
      </trkpt>
      <trkpt lat="43.36161" lon="6.65431">
        <ele>210.345184</ele>
        <time>2020-07-22T08:31:38Z</time>
      </trkpt>
      <trkpt lat="43.36163" lon="6.65406">
        <ele>211.330505</ele>
        <time>2020-07-22T08:31:42Z</time>
      </trkpt>
      <trkpt lat="43.36171" lon="6.65378">
        <ele>210.925766</ele>
        <time>2020-07-22T08:31:48Z</time>
      </trkpt>
      <trkpt lat="43.36178" lon="6.65352">
        <ele>212.305115</ele>
        <time>2020-07-22T08:31:54Z</time>
      </trkpt>
      <trkpt lat="43.36185" lon="6.65326">
        <ele>214.475952</ele>
        <time>2020-07-22T08:32:01Z</time>
      </trkpt>
      <trkpt lat="43.36193" lon="6.65302">
        <ele>214.566727</ele>
        <time>2020-07-22T08:32:09Z</time>
      </trkpt>
      <trkpt lat="43.36198" lon="6.65278">
        <ele>214.502853</ele>
        <time>2020-07-22T08:32:16Z</time>
      </trkpt>
      <trkpt lat="43.36199" lon="6.65249">
        <ele>215.926178</ele>
        <time>2020-07-22T08:32:24Z</time>
      </trkpt>
      <trkpt lat="43.36193" lon="6.65223">
        <ele>216.762756</ele>
        <time>2020-07-22T08:32:31Z</time>
      </trkpt>
      <trkpt lat="43.36183" lon="6.65199">
        <ele>217.36705</ele>
        <time>2020-07-22T08:32:38Z</time>
      </trkpt>
      <trkpt lat="43.36168" lon="6.6518">
        <ele>216.835052</ele>
        <time>2020-07-22T08:32:46Z</time>
      </trkpt>
      <trkpt lat="43.36158" lon="6.65158">
        <ele>218.519089</ele>
        <time>2020-07-22T08:33:13Z</time>
      </trkpt>
      <trkpt lat="43.36147" lon="6.65132">
        <ele>221.725616</ele>
        <time>2020-07-22T08:33:21Z</time>
      </trkpt>
      <trkpt lat="43.36136" lon="6.65108">
        <ele>222.272995</ele>
        <time>2020-07-22T08:33:26Z</time>
      </trkpt>
      <trkpt lat="43.36124" lon="6.65087">
        <ele>222.898102</ele>
        <time>2020-07-22T08:33:31Z</time>
      </trkpt>
      <trkpt lat="43.36107" lon="6.65071">
        <ele>225.224472</ele>
        <time>2020-07-22T08:33:37Z</time>
      </trkpt>
      <trkpt lat="43.36086" lon="6.65065">
        <ele>224.879715</ele>
        <time>2020-07-22T08:33:43Z</time>
      </trkpt>
      <trkpt lat="43.36067" lon="6.65065">
        <ele>223.411041</ele>
        <time>2020-07-22T08:33:48Z</time>
      </trkpt>
      <trkpt lat="43.36046" lon="6.65063">
        <ele>222.292496</ele>
        <time>2020-07-22T08:33:54Z</time>
      </trkpt>
      <trkpt lat="43.36025" lon="6.65055">
        <ele>222.433472</ele>
        <time>2020-07-22T08:34:00Z</time>
      </trkpt>
      <trkpt lat="43.36006" lon="6.65043">
        <ele>223.772568</ele>
        <time>2020-07-22T08:34:06Z</time>
      </trkpt>
      <trkpt lat="43.35987" lon="6.6503">
        <ele>225.681702</ele>
        <time>2020-07-22T08:34:13Z</time>
      </trkpt>
      <trkpt lat="43.35969" lon="6.65026">
        <ele>226.4534</ele>
        <time>2020-07-22T08:34:21Z</time>
      </trkpt>
      <trkpt lat="43.35952" lon="6.65028">
        <ele>226.50148</ele>
        <time>2020-07-22T08:34:29Z</time>
      </trkpt>
      <trkpt lat="43.35932" lon="6.65024">
        <ele>228.238022</ele>
        <time>2020-07-22T08:34:37Z</time>
      </trkpt>
      <trkpt lat="43.35914" lon="6.65015">
        <ele>229.936249</ele>
        <time>2020-07-22T08:34:45Z</time>
      </trkpt>
      <trkpt lat="43.35896" lon="6.65008">
        <ele>230.785004</ele>
        <time>2020-07-22T08:34:53Z</time>
      </trkpt>
      <trkpt lat="43.35876" lon="6.64999">
        <ele>231.048904</ele>
        <time>2020-07-22T08:35:00Z</time>
      </trkpt>
      <trkpt lat="43.35859" lon="6.64988">
        <ele>230.925552</ele>
        <time>2020-07-22T08:35:05Z</time>
      </trkpt>
      <trkpt lat="43.35848" lon="6.64967">
        <ele>232.38501</ele>
        <time>2020-07-22T08:35:13Z</time>
      </trkpt>
      <trkpt lat="43.35842" lon="6.64942">
        <ele>233.088745</ele>
        <time>2020-07-22T08:35:21Z</time>
      </trkpt>
      <trkpt lat="43.35834" lon="6.64917">
        <ele>231.604614</ele>
        <time>2020-07-22T08:35:27Z</time>
      </trkpt>
      <trkpt lat="43.35825" lon="6.64893">
        <ele>229.908325</ele>
        <time>2020-07-22T08:35:32Z</time>
      </trkpt>
      <trkpt lat="43.35815" lon="6.64865">
        <ele>229.868378</ele>
        <time>2020-07-22T08:35:37Z</time>
      </trkpt>
      <trkpt lat="43.35812" lon="6.64839">
        <ele>230.475311</ele>
        <time>2020-07-22T08:35:41Z</time>
      </trkpt>
      <trkpt lat="43.35808" lon="6.64813">
        <ele>228.823975</ele>
        <time>2020-07-22T08:35:47Z</time>
      </trkpt>
      <trkpt lat="43.35817" lon="6.64787">
        <ele>230.082687</ele>
        <time>2020-07-22T08:36:10Z</time>
      </trkpt>
      <trkpt lat="43.35832" lon="6.64764">
        <ele>228.207947</ele>
        <time>2020-07-22T08:36:15Z</time>
      </trkpt>
      <trkpt lat="43.35848" lon="6.6475">
        <ele>228.744064</ele>
        <time>2020-07-22T08:36:19Z</time>
      </trkpt>
      <trkpt lat="43.35865" lon="6.64736">
        <ele>227.430832</ele>
        <time>2020-07-22T08:36:23Z</time>
      </trkpt>
      <trkpt lat="43.35883" lon="6.64719">
        <ele>228.272995</ele>
        <time>2020-07-22T08:36:27Z</time>
      </trkpt>
      <trkpt lat="43.35896" lon="6.64701">
        <ele>230.21991</ele>
        <time>2020-07-22T08:36:31Z</time>
      </trkpt>
      <trkpt lat="43.3591" lon="6.64684">
        <ele>228.733963</ele>
        <time>2020-07-22T08:36:36Z</time>
      </trkpt>
      <trkpt lat="43.35925" lon="6.64669">
        <ele>228.439102</ele>
        <time>2020-07-22T08:36:41Z</time>
      </trkpt>
      <trkpt lat="43.35945" lon="6.64656">
        <ele>229.232956</ele>
        <time>2020-07-22T08:36:46Z</time>
      </trkpt>
      <trkpt lat="43.35961" lon="6.64645">
        <ele>227.929672</ele>
        <time>2020-07-22T08:36:51Z</time>
      </trkpt>
      <trkpt lat="43.35977" lon="6.64632">
        <ele>227.153229</ele>
        <time>2020-07-22T08:36:58Z</time>
      </trkpt>
      <trkpt lat="43.3599" lon="6.64612">
        <ele>227.498093</ele>
        <time>2020-07-22T08:37:03Z</time>
      </trkpt>
      <trkpt lat="43.35996" lon="6.64579">
        <ele>227.520142</ele>
        <time>2020-07-22T08:37:07Z</time>
      </trkpt>
      <trkpt lat="43.35997" lon="6.64549">
        <ele>228.444992</ele>
        <time>2020-07-22T08:37:10Z</time>
      </trkpt>
      <trkpt lat="43.36" lon="6.64519">
        <ele>226.063751</ele>
        <time>2020-07-22T08:37:13Z</time>
      </trkpt>
      <trkpt lat="43.36001" lon="6.64486">
        <ele>224.74649</ele>
        <time>2020-07-22T08:37:16Z</time>
      </trkpt>
      <trkpt lat="43.35998" lon="6.64453">
        <ele>224.675308</ele>
        <time>2020-07-22T08:37:19Z</time>
      </trkpt>
      <trkpt lat="43.35996" lon="6.64425">
        <ele>224.891403</ele>
        <time>2020-07-22T08:37:22Z</time>
      </trkpt>
      <trkpt lat="43.36005" lon="6.64397">
        <ele>223.350098</ele>
        <time>2020-07-22T08:37:26Z</time>
      </trkpt>
      <trkpt lat="43.36017" lon="6.64378">
        <ele>220.789001</ele>
        <time>2020-07-22T08:37:29Z</time>
      </trkpt>
      <trkpt lat="43.3603" lon="6.64354">
        <ele>219.370407</ele>
        <time>2020-07-22T08:37:32Z</time>
      </trkpt>
      <trkpt lat="43.36042" lon="6.64328">
        <ele>218.415039</ele>
        <time>2020-07-22T08:37:35Z</time>
      </trkpt>
      <trkpt lat="43.36054" lon="6.64303">
        <ele>216.693146</ele>
        <time>2020-07-22T08:37:38Z</time>
      </trkpt>
      <trkpt lat="43.36064" lon="6.64278">
        <ele>215.17041</ele>
        <time>2020-07-22T08:37:41Z</time>
      </trkpt>
      <trkpt lat="43.36071" lon="6.64249">
        <ele>214.347549</ele>
        <time>2020-07-22T08:37:44Z</time>
      </trkpt>
      <trkpt lat="43.36073" lon="6.64218">
        <ele>211.851654</ele>
        <time>2020-07-22T08:37:47Z</time>
      </trkpt>
      <trkpt lat="43.36066" lon="6.64188">
        <ele>212.146866</ele>
        <time>2020-07-22T08:37:50Z</time>
      </trkpt>
      <trkpt lat="43.36055" lon="6.64161">
        <ele>211.141617</ele>
        <time>2020-07-22T08:37:53Z</time>
      </trkpt>
      <trkpt lat="43.36041" lon="6.64137">
        <ele>211.278275</ele>
        <time>2020-07-22T08:37:56Z</time>
      </trkpt>
      <trkpt lat="43.36027" lon="6.64116">
        <ele>211.981323</ele>
        <time>2020-07-22T08:37:59Z</time>
      </trkpt>
      <trkpt lat="43.36014" lon="6.64094">
        <ele>213.268494</ele>
        <time>2020-07-22T08:38:02Z</time>
      </trkpt>
      <trkpt lat="43.36005" lon="6.6407">
        <ele>213.911163</ele>
        <time>2020-07-22T08:38:05Z</time>
      </trkpt>
      <trkpt lat="43.36006" lon="6.64043">
        <ele>216.839859</ele>
        <time>2020-07-22T08:38:09Z</time>
      </trkpt>
      <trkpt lat="43.36018" lon="6.64023">
        <ele>216.367203</ele>
        <time>2020-07-22T08:38:16Z</time>
      </trkpt>
      <trkpt lat="43.3603" lon="6.64002">
        <ele>216.206497</ele>
        <time>2020-07-22T08:38:24Z</time>
      </trkpt>
      <trkpt lat="43.36034" lon="6.63978">
        <ele>215.337906</ele>
        <time>2020-07-22T08:38:31Z</time>
      </trkpt>
      <trkpt lat="43.3603" lon="6.63953">
        <ele>217.635651</ele>
        <time>2020-07-22T08:38:38Z</time>
      </trkpt>
      <trkpt lat="43.36024" lon="6.63928">
        <ele>221.160004</ele>
        <time>2020-07-22T08:38:45Z</time>
      </trkpt>
      <trkpt lat="43.36028" lon="6.63903">
        <ele>220.148743</ele>
        <time>2020-07-22T08:38:53Z</time>
      </trkpt>
      <trkpt lat="43.36035" lon="6.63878">
        <ele>217.658783</ele>
        <time>2020-07-22T08:39:01Z</time>
      </trkpt>
      <trkpt lat="43.36035" lon="6.63851">
        <ele>216.609619</ele>
        <time>2020-07-22T08:39:09Z</time>
      </trkpt>
      <trkpt lat="43.3603" lon="6.63825">
        <ele>217.486801</ele>
        <time>2020-07-22T08:39:15Z</time>
      </trkpt>
      <trkpt lat="43.36018" lon="6.63801">
        <ele>218.08522</ele>
        <time>2020-07-22T08:39:21Z</time>
      </trkpt>
      <trkpt lat="43.36001" lon="6.63784">
        <ele>218.81105</ele>
        <time>2020-07-22T08:39:26Z</time>
      </trkpt>
      <trkpt lat="43.35982" lon="6.63768">
        <ele>219.960007</ele>
        <time>2020-07-22T08:39:31Z</time>
      </trkpt>
      <trkpt lat="43.35964" lon="6.63749">
        <ele>220.182419</ele>
        <time>2020-07-22T08:39:36Z</time>
      </trkpt>
      <trkpt lat="43.35951" lon="6.6373">
        <ele>222.078629</ele>
        <time>2020-07-22T08:39:42Z</time>
      </trkpt>
      <trkpt lat="43.35941" lon="6.63706">
        <ele>222.923126</ele>
        <time>2020-07-22T08:39:49Z</time>
      </trkpt>
      <trkpt lat="43.35944" lon="6.63677">
        <ele>223.611252</ele>
        <time>2020-07-22T08:39:56Z</time>
      </trkpt>
      <trkpt lat="43.35953" lon="6.63652">
        <ele>226.527496</ele>
        <time>2020-07-22T08:40:03Z</time>
      </trkpt>
      <trkpt lat="43.3597" lon="6.63639">
        <ele>223.737503</ele>
        <time>2020-07-22T08:40:09Z</time>
      </trkpt>
      <trkpt lat="43.3599" lon="6.63627">
        <ele>220.039398</ele>
        <time>2020-07-22T08:40:14Z</time>
      </trkpt>
      <trkpt lat="43.36006" lon="6.63614">
        <ele>216.925842</ele>
        <time>2020-07-22T08:40:19Z</time>
      </trkpt>
      <trkpt lat="43.36017" lon="6.63586">
        <ele>216.891998</ele>
        <time>2020-07-22T08:40:24Z</time>
      </trkpt>
      <trkpt lat="43.36019" lon="6.63561">
        <ele>218.554749</ele>
        <time>2020-07-22T08:40:27Z</time>
      </trkpt>
      <trkpt lat="43.36019" lon="6.63535">
        <ele>220.084274</ele>
        <time>2020-07-22T08:40:30Z</time>
      </trkpt>
      <trkpt lat="43.36025" lon="6.63504">
        <ele>219.052505</ele>
        <time>2020-07-22T08:40:34Z</time>
      </trkpt>
      <trkpt lat="43.36029" lon="6.63476">
        <ele>216.574997</ele>
        <time>2020-07-22T08:40:39Z</time>
      </trkpt>
      <trkpt lat="43.36027" lon="6.63451">
        <ele>217.115005</ele>
        <time>2020-07-22T08:40:43Z</time>
      </trkpt>
      <trkpt lat="43.36023" lon="6.63425">
        <ele>217.591446</ele>
        <time>2020-07-22T08:40:47Z</time>
      </trkpt>
      <trkpt lat="43.36018" lon="6.63396">
        <ele>217.205338</ele>
        <time>2020-07-22T08:40:51Z</time>
      </trkpt>
      <trkpt lat="43.36016" lon="6.63364">
        <ele>215.496002</ele>
        <time>2020-07-22T08:40:55Z</time>
      </trkpt>
      <trkpt lat="43.36014" lon="6.63338">
        <ele>213.661499</ele>
        <time>2020-07-22T08:40:58Z</time>
      </trkpt>
      <trkpt lat="43.36011" lon="6.63312">
        <ele>212.484512</ele>
        <time>2020-07-22T08:41:01Z</time>
      </trkpt>
      <trkpt lat="43.36007" lon="6.63285">
        <ele>211.940521</ele>
        <time>2020-07-22T08:41:04Z</time>
      </trkpt>
      <trkpt lat="43.36006" lon="6.63259">
        <ele>210.466629</ele>
        <time>2020-07-22T08:41:07Z</time>
      </trkpt>
      <trkpt lat="43.36015" lon="6.63235">
        <ele>208.892654</ele>
        <time>2020-07-22T08:41:10Z</time>
      </trkpt>
      <trkpt lat="43.36029" lon="6.63219">
        <ele>207.516403</ele>
        <time>2020-07-22T08:41:13Z</time>
      </trkpt>
      <trkpt lat="43.36046" lon="6.63198">
        <ele>206.659943</ele>
        <time>2020-07-22T08:41:17Z</time>
      </trkpt>
      <trkpt lat="43.36063" lon="6.63192">
        <ele>206.566772</ele>
        <time>2020-07-22T08:41:44Z</time>
      </trkpt>
      <trkpt lat="43.36079" lon="6.6318">
        <ele>206.092178</ele>
        <time>2020-07-22T08:41:53Z</time>
      </trkpt>
      <trkpt lat="43.36095" lon="6.63154">
        <ele>205.527191</ele>
        <time>2020-07-22T08:41:57Z</time>
      </trkpt>
      <trkpt lat="43.36109" lon="6.6313">
        <ele>205.679642</ele>
        <time>2020-07-22T08:42:00Z</time>
      </trkpt>
      <trkpt lat="43.36121" lon="6.63108">
        <ele>205.680893</ele>
        <time>2020-07-22T08:42:03Z</time>
      </trkpt>
      <trkpt lat="43.36133" lon="6.63088">
        <ele>206.997925</ele>
        <time>2020-07-22T08:42:06Z</time>
      </trkpt>
      <trkpt lat="43.36146" lon="6.63066">
        <ele>211.000839</ele>
        <time>2020-07-22T08:42:10Z</time>
      </trkpt>
      <trkpt lat="43.36151" lon="6.63041">
        <ele>212.176407</ele>
        <time>2020-07-22T08:42:15Z</time>
      </trkpt>
      <trkpt lat="43.36144" lon="6.63013">
        <ele>209.328522</ele>
        <time>2020-07-22T08:42:21Z</time>
      </trkpt>
      <trkpt lat="43.36135" lon="6.62989">
        <ele>207.313599</ele>
        <time>2020-07-22T08:42:26Z</time>
      </trkpt>
      <trkpt lat="43.36135" lon="6.62962">
        <ele>209.192245</ele>
        <time>2020-07-22T08:42:32Z</time>
      </trkpt>
      <trkpt lat="43.36142" lon="6.62937">
        <ele>209.668121</ele>
        <time>2020-07-22T08:42:40Z</time>
      </trkpt>
      <trkpt lat="43.36153" lon="6.62915">
        <ele>211.837204</ele>
        <time>2020-07-22T08:42:49Z</time>
      </trkpt>
      <trkpt lat="43.36166" lon="6.62894">
        <ele>214.003159</ele>
        <time>2020-07-22T08:42:59Z</time>
      </trkpt>
      <trkpt lat="43.36178" lon="6.62873">
        <ele>214.898468</ele>
        <time>2020-07-22T08:43:07Z</time>
      </trkpt>
      <trkpt lat="43.36191" lon="6.62855">
        <ele>216.157074</ele>
        <time>2020-07-22T08:43:16Z</time>
      </trkpt>
      <trkpt lat="43.36205" lon="6.62837">
        <ele>217.579605</ele>
        <time>2020-07-22T08:43:25Z</time>
      </trkpt>
      <trkpt lat="43.36219" lon="6.62824">
        <ele>219.783096</ele>
        <time>2020-07-22T08:43:36Z</time>
      </trkpt>
      <trkpt lat="43.36237" lon="6.62813">
        <ele>222.488876</ele>
        <time>2020-07-22T08:43:47Z</time>
      </trkpt>
      <trkpt lat="43.36254" lon="6.62803">
        <ele>225.022903</ele>
        <time>2020-07-22T08:43:58Z</time>
      </trkpt>
      <trkpt lat="43.36272" lon="6.62794">
        <ele>227.246094</ele>
        <time>2020-07-22T08:44:10Z</time>
      </trkpt>
      <trkpt lat="43.36289" lon="6.62787">
        <ele>229.338806</ele>
        <time>2020-07-22T08:44:22Z</time>
      </trkpt>
      <trkpt lat="43.36309" lon="6.62784">
        <ele>231.683685</ele>
        <time>2020-07-22T08:44:35Z</time>
      </trkpt>
      <trkpt lat="43.36328" lon="6.62779">
        <ele>233.432587</ele>
        <time>2020-07-22T08:44:47Z</time>
      </trkpt>
      <trkpt lat="43.36347" lon="6.62776">
        <ele>234.599655</ele>
        <time>2020-07-22T08:45:00Z</time>
      </trkpt>
      <trkpt lat="43.36364" lon="6.62784">
        <ele>238.665207</ele>
        <time>2020-07-22T08:45:13Z</time>
      </trkpt>
      <trkpt lat="43.36383" lon="6.62789">
        <ele>242.096176</ele>
        <time>2020-07-22T08:45:26Z</time>
      </trkpt>
      <trkpt lat="43.36401" lon="6.62793">
        <ele>245.066879</ele>
        <time>2020-07-22T08:45:39Z</time>
      </trkpt>
      <trkpt lat="43.3642" lon="6.62794">
        <ele>247.496109</ele>
        <time>2020-07-22T08:45:52Z</time>
      </trkpt>
      <trkpt lat="43.36441" lon="6.62793">
        <ele>248.565002</ele>
        <time>2020-07-22T08:46:05Z</time>
      </trkpt>
      <trkpt lat="43.3646" lon="6.62797">
        <ele>250.970001</ele>
        <time>2020-07-22T08:46:18Z</time>
      </trkpt>
      <trkpt lat="43.36479" lon="6.62802">
        <ele>253.203903</ele>
        <time>2020-07-22T08:46:30Z</time>
      </trkpt>
      <trkpt lat="43.36497" lon="6.62809">
        <ele>256.26001</ele>
        <time>2020-07-22T08:46:43Z</time>
      </trkpt>
      <trkpt lat="43.36515" lon="6.62819">
        <ele>260.263062</ele>
        <time>2020-07-22T08:46:55Z</time>
      </trkpt>
      <trkpt lat="43.36533" lon="6.62826">
        <ele>263.465668</ele>
        <time>2020-07-22T08:47:09Z</time>
      </trkpt>
      <trkpt lat="43.36552" lon="6.62828">
        <ele>264.712799</ele>
        <time>2020-07-22T08:47:20Z</time>
      </trkpt>
      <trkpt lat="43.36571" lon="6.62824">
        <ele>267.180817</ele>
        <time>2020-07-22T08:47:33Z</time>
      </trkpt>
      <trkpt lat="43.36589" lon="6.62822">
        <ele>271.389465</ele>
        <time>2020-07-22T08:47:45Z</time>
      </trkpt>
      <trkpt lat="43.36605" lon="6.62806">
        <ele>271.606812</ele>
        <time>2020-07-22T08:47:58Z</time>
      </trkpt>
      <trkpt lat="43.36614" lon="6.62783">
        <ele>270.655304</ele>
        <time>2020-07-22T08:48:10Z</time>
      </trkpt>
      <trkpt lat="43.36622" lon="6.62759">
        <ele>270.155884</ele>
        <time>2020-07-22T08:48:22Z</time>
      </trkpt>
      <trkpt lat="43.36635" lon="6.62739">
        <ele>272.255005</ele>
        <time>2020-07-22T08:48:35Z</time>
      </trkpt>
      <trkpt lat="43.36652" lon="6.62728">
        <ele>276.153717</ele>
        <time>2020-07-22T08:48:47Z</time>
      </trkpt>
      <trkpt lat="43.3667" lon="6.62723">
        <ele>278.346008</ele>
        <time>2020-07-22T08:48:59Z</time>
      </trkpt>
      <trkpt lat="43.36689" lon="6.62717">
        <ele>281.159485</ele>
        <time>2020-07-22T08:49:12Z</time>
      </trkpt>
      <trkpt lat="43.36699" lon="6.62696">
        <ele>281.580963</ele>
        <time>2020-07-22T08:50:50Z</time>
      </trkpt>
      <trkpt lat="43.36699" lon="6.62669">
        <ele>282.349426</ele>
        <time>2020-07-22T08:51:00Z</time>
      </trkpt>
      <trkpt lat="43.36702" lon="6.62645">
        <ele>283.072601</ele>
        <time>2020-07-22T08:51:10Z</time>
      </trkpt>
      <trkpt lat="43.36708" lon="6.62621">
        <ele>285.05481</ele>
        <time>2020-07-22T08:51:20Z</time>
      </trkpt>
      <trkpt lat="43.36713" lon="6.62595">
        <ele>288.203796</ele>
        <time>2020-07-22T08:51:31Z</time>
      </trkpt>
      <trkpt lat="43.36714" lon="6.6257">
        <ele>290.75885</ele>
        <time>2020-07-22T08:51:41Z</time>
      </trkpt>
      <trkpt lat="43.36711" lon="6.62544">
        <ele>293.035614</ele>
        <time>2020-07-22T08:51:50Z</time>
      </trkpt>
      <trkpt lat="43.36708" lon="6.62519">
        <ele>294.555695</ele>
        <time>2020-07-22T08:51:58Z</time>
      </trkpt>
      <trkpt lat="43.36706" lon="6.62492">
        <ele>296.54361</ele>
        <time>2020-07-22T08:52:08Z</time>
      </trkpt>
      <trkpt lat="43.36704" lon="6.62466">
        <ele>298.229248</ele>
        <time>2020-07-22T08:52:18Z</time>
      </trkpt>
      <trkpt lat="43.36699" lon="6.6244">
        <ele>299.149994</ele>
        <time>2020-07-22T08:52:27Z</time>
      </trkpt>
      <trkpt lat="43.36692" lon="6.62416">
        <ele>299.450012</ele>
        <time>2020-07-22T08:52:36Z</time>
      </trkpt>
      <trkpt lat="43.36685" lon="6.62393">
        <ele>299.325012</ele>
        <time>2020-07-22T08:52:43Z</time>
      </trkpt>
      <trkpt lat="43.3668" lon="6.62369">
        <ele>301.160309</ele>
        <time>2020-07-22T08:52:52Z</time>
      </trkpt>
      <trkpt lat="43.36675" lon="6.62343">
        <ele>303.783478</ele>
        <time>2020-07-22T08:53:03Z</time>
      </trkpt>
      <trkpt lat="43.36667" lon="6.6232">
        <ele>305.156708</ele>
        <time>2020-07-22T08:53:15Z</time>
      </trkpt>
      <trkpt lat="43.36656" lon="6.62303">
        <ele>307.420624</ele>
        <time>2020-07-22T08:53:27Z</time>
      </trkpt>
      <trkpt lat="43.36643" lon="6.62287">
        <ele>309.530701</ele>
        <time>2020-07-22T08:53:40Z</time>
      </trkpt>
      <trkpt lat="43.36627" lon="6.62272">
        <ele>310.809021</ele>
        <time>2020-07-22T08:53:54Z</time>
      </trkpt>
      <trkpt lat="43.36611" lon="6.62257">
        <ele>312.453003</ele>
        <time>2020-07-22T08:54:06Z</time>
      </trkpt>
      <trkpt lat="43.36597" lon="6.62242">
        <ele>313.432129</ele>
        <time>2020-07-22T08:54:18Z</time>
      </trkpt>
      <trkpt lat="43.36581" lon="6.62227">
        <ele>314.598938</ele>
        <time>2020-07-22T08:54:31Z</time>
      </trkpt>
      <trkpt lat="43.36567" lon="6.62211">
        <ele>316.158203</ele>
        <time>2020-07-22T08:54:44Z</time>
      </trkpt>
      <trkpt lat="43.3655" lon="6.62194">
        <ele>317.146912</ele>
        <time>2020-07-22T08:57:00Z</time>
      </trkpt>
      <trkpt lat="43.36553" lon="6.62175">
        <ele>318.785034</ele>
        <time>2020-07-22T08:57:12Z</time>
      </trkpt>
      <trkpt lat="43.36573" lon="6.6218">
        <ele>322.42337</ele>
        <time>2020-07-22T08:57:25Z</time>
      </trkpt>
      <trkpt lat="43.36593" lon="6.62178">
        <ele>324.492981</ele>
        <time>2020-07-22T08:57:36Z</time>
      </trkpt>
      <trkpt lat="43.3661" lon="6.62164">
        <ele>326.194031</ele>
        <time>2020-07-22T08:58:02Z</time>
      </trkpt>
      <trkpt lat="43.36624" lon="6.62147">
        <ele>328.082611</ele>
        <time>2020-07-22T08:58:13Z</time>
      </trkpt>
      <trkpt lat="43.36624" lon="6.62121">
        <ele>329.424866</ele>
        <time>2020-07-22T08:58:23Z</time>
      </trkpt>
      <trkpt lat="43.36614" lon="6.62099">
        <ele>329.408783</ele>
        <time>2020-07-22T08:58:33Z</time>
      </trkpt>
      <trkpt lat="43.36613" lon="6.62074">
        <ele>330.159058</ele>
        <time>2020-07-22T08:58:44Z</time>
      </trkpt>
      <trkpt lat="43.36613" lon="6.62047">
        <ele>333.016266</ele>
        <time>2020-07-22T08:58:54Z</time>
      </trkpt>
      <trkpt lat="43.36611" lon="6.62023">
        <ele>335.441254</ele>
        <time>2020-07-22T08:59:06Z</time>
      </trkpt>
      <trkpt lat="43.36608" lon="6.61998">
        <ele>337.668335</ele>
        <time>2020-07-22T08:59:18Z</time>
      </trkpt>
      <trkpt lat="43.36604" lon="6.61971">
        <ele>340.18161</ele>
        <time>2020-07-22T08:59:30Z</time>
      </trkpt>
      <trkpt lat="43.36599" lon="6.61946">
        <ele>342.472351</ele>
        <time>2020-07-22T08:59:41Z</time>
      </trkpt>
      <trkpt lat="43.36594" lon="6.61921">
        <ele>342.953186</ele>
        <time>2020-07-22T08:59:51Z</time>
      </trkpt>
      <trkpt lat="43.36593" lon="6.61894">
        <ele>343.730499</ele>
        <time>2020-07-22T08:59:58Z</time>
      </trkpt>
      <trkpt lat="43.36591" lon="6.61867">
        <ele>344.114929</ele>
        <time>2020-07-22T09:00:02Z</time>
      </trkpt>
      <trkpt lat="43.36593" lon="6.61837">
        <ele>344.72345</ele>
        <time>2020-07-22T09:00:06Z</time>
      </trkpt>
      <trkpt lat="43.36597" lon="6.61806">
        <ele>345.134979</ele>
        <time>2020-07-22T09:00:10Z</time>
      </trkpt>
      <trkpt lat="43.36602" lon="6.6178">
        <ele>345.328735</ele>
        <time>2020-07-22T09:00:15Z</time>
      </trkpt>
      <trkpt lat="43.366" lon="6.61757">
        <ele>346.444702</ele>
        <time>2020-07-22T09:00:26Z</time>
      </trkpt>
      <trkpt lat="43.36584" lon="6.61746">
        <ele>346.774628</ele>
        <time>2020-07-22T09:00:36Z</time>
      </trkpt>
      <trkpt lat="43.36567" lon="6.61733">
        <ele>347.663452</ele>
        <time>2020-07-22T09:00:47Z</time>
      </trkpt>
      <trkpt lat="43.36552" lon="6.61718">
        <ele>349.533997</ele>
        <time>2020-07-22T09:00:58Z</time>
      </trkpt>
      <trkpt lat="43.36537" lon="6.617">
        <ele>350.629974</ele>
        <time>2020-07-22T09:01:09Z</time>
      </trkpt>
      <trkpt lat="43.36525" lon="6.61681">
        <ele>352.781982</ele>
        <time>2020-07-22T09:01:19Z</time>
      </trkpt>
      <trkpt lat="43.36514" lon="6.61661">
        <ele>355.713806</ele>
        <time>2020-07-22T09:01:29Z</time>
      </trkpt>
      <trkpt lat="43.36501" lon="6.61641">
        <ele>357.841339</ele>
        <time>2020-07-22T09:01:40Z</time>
      </trkpt>
      <trkpt lat="43.3649" lon="6.61622">
        <ele>359.951477</ele>
        <time>2020-07-22T09:01:50Z</time>
      </trkpt>
      <trkpt lat="43.36474" lon="6.61607">
        <ele>360.441589</ele>
        <time>2020-07-22T09:01:59Z</time>
      </trkpt>
      <trkpt lat="43.36453" lon="6.61601">
        <ele>359.25</ele>
        <time>2020-07-22T09:02:08Z</time>
      </trkpt>
      <trkpt lat="43.36434" lon="6.61591">
        <ele>359.26001</ele>
        <time>2020-07-22T09:02:15Z</time>
      </trkpt>
      <trkpt lat="43.36414" lon="6.61589">
        <ele>356.181305</ele>
        <time>2020-07-22T09:02:22Z</time>
      </trkpt>
      <trkpt lat="43.36404" lon="6.61587">
        <ele>354.137817</ele>
        <time>2020-07-22T09:04:48Z</time>
      </trkpt>
      <trkpt lat="43.36396" lon="6.61562">
        <ele>356.716309</ele>
        <time>2020-07-22T09:05:14Z</time>
      </trkpt>
      <trkpt lat="43.364" lon="6.61536">
        <ele>357.361694</ele>
        <time>2020-07-22T09:05:22Z</time>
      </trkpt>
      <trkpt lat="43.36407" lon="6.6151">
        <ele>360.081421</ele>
        <time>2020-07-22T09:05:27Z</time>
      </trkpt>
      <trkpt lat="43.36407" lon="6.6148">
        <ele>361.940979</ele>
        <time>2020-07-22T09:05:32Z</time>
      </trkpt>
      <trkpt lat="43.36402" lon="6.61453">
        <ele>362.111176</ele>
        <time>2020-07-22T09:05:37Z</time>
      </trkpt>
      <trkpt lat="43.36392" lon="6.61428">
        <ele>359.6875</ele>
        <time>2020-07-22T09:05:41Z</time>
      </trkpt>
      <trkpt lat="43.36379" lon="6.61408">
        <ele>355.186493</ele>
        <time>2020-07-22T09:05:44Z</time>
      </trkpt>
      <trkpt lat="43.3637" lon="6.61385">
        <ele>352.708191</ele>
        <time>2020-07-22T09:05:47Z</time>
      </trkpt>
      <trkpt lat="43.36372" lon="6.61355">
        <ele>350.587738</ele>
        <time>2020-07-22T09:05:50Z</time>
      </trkpt>
      <trkpt lat="43.36377" lon="6.61325">
        <ele>347.673004</ele>
        <time>2020-07-22T09:05:53Z</time>
      </trkpt>
      <trkpt lat="43.36392" lon="6.61304">
        <ele>348.658813</ele>
        <time>2020-07-22T09:05:56Z</time>
      </trkpt>
      <trkpt lat="43.3641" lon="6.61288">
        <ele>350.732239</ele>
        <time>2020-07-22T09:05:59Z</time>
      </trkpt>
      <trkpt lat="43.36425" lon="6.61262">
        <ele>349.596863</ele>
        <time>2020-07-22T09:06:02Z</time>
      </trkpt>
      <trkpt lat="43.36432" lon="6.61228">
        <ele>350.368011</ele>
        <time>2020-07-22T09:06:05Z</time>
      </trkpt>
      <trkpt lat="43.36428" lon="6.61196">
        <ele>346.062012</ele>
        <time>2020-07-22T09:06:08Z</time>
      </trkpt>
      <trkpt lat="43.36415" lon="6.61162">
        <ele>342.267487</ele>
        <time>2020-07-22T09:06:11Z</time>
      </trkpt>
      <trkpt lat="43.36407" lon="6.61136">
        <ele>340.309998</ele>
        <time>2020-07-22T09:06:13Z</time>
      </trkpt>
      <trkpt lat="43.36399" lon="6.61112">
        <ele>340.523193</ele>
        <time>2020-07-22T09:06:15Z</time>
      </trkpt>
      <trkpt lat="43.36383" lon="6.61087">
        <ele>339.675598</ele>
        <time>2020-07-22T09:06:18Z</time>
      </trkpt>
      <trkpt lat="43.36367" lon="6.61068">
        <ele>338.065796</ele>
        <time>2020-07-22T09:06:21Z</time>
      </trkpt>
      <trkpt lat="43.36353" lon="6.6105">
        <ele>334.801392</ele>
        <time>2020-07-22T09:06:24Z</time>
      </trkpt>
      <trkpt lat="43.36337" lon="6.61026">
        <ele>332.019836</ele>
        <time>2020-07-22T09:06:27Z</time>
      </trkpt>
      <trkpt lat="43.36321" lon="6.61001">
        <ele>330.099457</ele>
        <time>2020-07-22T09:06:30Z</time>
      </trkpt>
      <trkpt lat="43.36313" lon="6.60975">
        <ele>326.093597</ele>
        <time>2020-07-22T09:06:33Z</time>
      </trkpt>
      <trkpt lat="43.36316" lon="6.60948">
        <ele>325.788025</ele>
        <time>2020-07-22T09:06:36Z</time>
      </trkpt>
      <trkpt lat="43.36333" lon="6.60927">
        <ele>325.860077</ele>
        <time>2020-07-22T09:06:39Z</time>
      </trkpt>
      <trkpt lat="43.36351" lon="6.60905">
        <ele>324.397095</ele>
        <time>2020-07-22T09:06:42Z</time>
      </trkpt>
      <trkpt lat="43.36366" lon="6.60873">
        <ele>320.488281</ele>
        <time>2020-07-22T09:06:45Z</time>
      </trkpt>
      <trkpt lat="43.36374" lon="6.60849">
        <ele>318.490631</ele>
        <time>2020-07-22T09:06:47Z</time>
      </trkpt>
      <trkpt lat="43.36382" lon="6.60825">
        <ele>316.657196</ele>
        <time>2020-07-22T09:06:49Z</time>
      </trkpt>
      <trkpt lat="43.3639" lon="6.608">
        <ele>314.166107</ele>
        <time>2020-07-22T09:06:51Z</time>
      </trkpt>
      <trkpt lat="43.36395" lon="6.60775">
        <ele>310.400391</ele>
        <time>2020-07-22T09:06:53Z</time>
      </trkpt>
      <trkpt lat="43.36403" lon="6.60743">
        <ele>304.523132</ele>
        <time>2020-07-22T09:06:56Z</time>
      </trkpt>
      <trkpt lat="43.36417" lon="6.60722">
        <ele>301.157776</ele>
        <time>2020-07-22T09:06:59Z</time>
      </trkpt>
      <trkpt lat="43.36436" lon="6.60714">
        <ele>298.289368</ele>
        <time>2020-07-22T09:07:02Z</time>
      </trkpt>
      <trkpt lat="43.36458" lon="6.60715">
        <ele>298.40509</ele>
        <time>2020-07-22T09:07:05Z</time>
      </trkpt>
      <trkpt lat="43.36478" lon="6.60705">
        <ele>299.500916</ele>
        <time>2020-07-22T09:07:09Z</time>
      </trkpt>
      <trkpt lat="43.36487" lon="6.60674">
        <ele>295.039307</ele>
        <time>2020-07-22T09:07:13Z</time>
      </trkpt>
      <trkpt lat="43.36496" lon="6.60644">
        <ele>291.471924</ele>
        <time>2020-07-22T09:07:16Z</time>
      </trkpt>
      <trkpt lat="43.36504" lon="6.60621">
        <ele>289.939758</ele>
        <time>2020-07-22T09:07:18Z</time>
      </trkpt>
      <trkpt lat="43.36512" lon="6.60595">
        <ele>287.778076</ele>
        <time>2020-07-22T09:07:20Z</time>
      </trkpt>
      <trkpt lat="43.36526" lon="6.60566">
        <ele>284.271729</ele>
        <time>2020-07-22T09:07:23Z</time>
      </trkpt>
      <trkpt lat="43.36547" lon="6.60543">
        <ele>282.124603</ele>
        <time>2020-07-22T09:07:26Z</time>
      </trkpt>
      <trkpt lat="43.36569" lon="6.60527">
        <ele>279.934998</ele>
        <time>2020-07-22T09:07:29Z</time>
      </trkpt>
      <trkpt lat="43.36587" lon="6.6052">
        <ele>279.316254</ele>
        <time>2020-07-22T09:07:31Z</time>
      </trkpt>
      <trkpt lat="43.36606" lon="6.60515">
        <ele>279.682159</ele>
        <time>2020-07-22T09:07:34Z</time>
      </trkpt>
      <trkpt lat="43.36618" lon="6.60507">
        <ele>279.390747</ele>
        <time>2020-07-22T09:07:51Z</time>
      </trkpt>
      <trkpt lat="43.36638" lon="6.60493">
        <ele>277.790527</ele>
        <time>2020-07-22T09:07:58Z</time>
      </trkpt>
      <trkpt lat="43.36652" lon="6.60476">
        <ele>274.213745</ele>
        <time>2020-07-22T09:08:03Z</time>
      </trkpt>
      <trkpt lat="43.3664" lon="6.60477">
        <ele>272.861298</ele>
        <time>2020-07-22T09:08:16Z</time>
      </trkpt>
      <trkpt lat="43.36619" lon="6.60488">
        <ele>273.711121</ele>
        <time>2020-07-22T09:08:23Z</time>
      </trkpt>
      <trkpt lat="43.36596" lon="6.60492">
        <ele>271.993744</ele>
        <time>2020-07-22T09:08:29Z</time>
      </trkpt>
      <trkpt lat="43.36572" lon="6.60493">
        <ele>270.670013</ele>
        <time>2020-07-22T09:08:34Z</time>
      </trkpt>
      <trkpt lat="43.36552" lon="6.60487">
        <ele>267.322357</ele>
        <time>2020-07-22T09:08:39Z</time>
      </trkpt>
      <trkpt lat="43.36531" lon="6.60481">
        <ele>263.567932</ele>
        <time>2020-07-22T09:08:49Z</time>
      </trkpt>
      <trkpt lat="43.36512" lon="6.60481">
        <ele>261.299377</ele>
        <time>2020-07-22T09:08:54Z</time>
      </trkpt>
      <trkpt lat="43.36491" lon="6.60486">
        <ele>259.221405</ele>
        <time>2020-07-22T09:08:58Z</time>
      </trkpt>
      <trkpt lat="43.36473" lon="6.60494">
        <ele>257.358978</ele>
        <time>2020-07-22T09:09:01Z</time>
      </trkpt>
      <trkpt lat="43.36457" lon="6.60516">
        <ele>257.62149</ele>
        <time>2020-07-22T09:09:05Z</time>
      </trkpt>
      <trkpt lat="43.36446" lon="6.60539">
        <ele>258.618347</ele>
        <time>2020-07-22T09:09:09Z</time>
      </trkpt>
      <trkpt lat="43.36434" lon="6.60562">
        <ele>259.052795</ele>
        <time>2020-07-22T09:09:14Z</time>
      </trkpt>
      <trkpt lat="43.36421" lon="6.60586">
        <ele>259.879364</ele>
        <time>2020-07-22T09:09:19Z</time>
      </trkpt>
      <trkpt lat="43.36403" lon="6.60598">
        <ele>261.553741</ele>
        <time>2020-07-22T09:09:23Z</time>
      </trkpt>
      <trkpt lat="43.36384" lon="6.606">
        <ele>260.715851</ele>
        <time>2020-07-22T09:09:27Z</time>
      </trkpt>
      <trkpt lat="43.36369" lon="6.60614">
        <ele>262.679321</ele>
        <time>2020-07-22T09:09:33Z</time>
      </trkpt>
      <trkpt lat="43.36355" lon="6.60632">
        <ele>265.379883</ele>
        <time>2020-07-22T09:09:41Z</time>
      </trkpt>
      <trkpt lat="43.36349" lon="6.60659">
        <ele>270.411591</ele>
        <time>2020-07-22T09:09:49Z</time>
      </trkpt>
      <trkpt lat="43.36335" lon="6.60672">
        <ele>270.802368</ele>
        <time>2020-07-22T09:09:57Z</time>
      </trkpt>
      <trkpt lat="43.36317" lon="6.60664">
        <ele>266.205444</ele>
        <time>2020-07-22T09:10:06Z</time>
      </trkpt>
      <trkpt lat="43.363" lon="6.60673">
        <ele>264.59903</ele>
        <time>2020-07-22T09:10:14Z</time>
      </trkpt>
      <trkpt lat="43.36292" lon="6.60695">
        <ele>265.922394</ele>
        <time>2020-07-22T09:10:21Z</time>
      </trkpt>
      <trkpt lat="43.36284" lon="6.60718">
        <ele>269.645477</ele>
        <time>2020-07-22T09:10:26Z</time>
      </trkpt>
      <trkpt lat="43.36275" lon="6.60743">
        <ele>274.536041</ele>
        <time>2020-07-22T09:10:33Z</time>
      </trkpt>
      <trkpt lat="43.36265" lon="6.60764">
        <ele>278.577942</ele>
        <time>2020-07-22T09:10:39Z</time>
      </trkpt>
      <trkpt lat="43.36246" lon="6.60769">
        <ele>277.34906</ele>
        <time>2020-07-22T09:10:46Z</time>
      </trkpt>
      <trkpt lat="43.36224" lon="6.60765">
        <ele>275.261444</ele>
        <time>2020-07-22T09:10:52Z</time>
      </trkpt>
      <trkpt lat="43.36206" lon="6.60758">
        <ele>276.439575</ele>
        <time>2020-07-22T09:10:57Z</time>
      </trkpt>
      <trkpt lat="43.36192" lon="6.60741">
        <ele>275.681824</ele>
        <time>2020-07-22T09:11:03Z</time>
      </trkpt>
      <trkpt lat="43.36186" lon="6.60715">
        <ele>270.068054</ele>
        <time>2020-07-22T09:11:08Z</time>
      </trkpt>
      <trkpt lat="43.36173" lon="6.60697">
        <ele>264.487427</ele>
        <time>2020-07-22T09:11:12Z</time>
      </trkpt>
      <trkpt lat="43.36155" lon="6.60702">
        <ele>265.196381</ele>
        <time>2020-07-22T09:11:15Z</time>
      </trkpt>
      <trkpt lat="43.36137" lon="6.60718">
        <ele>268.000916</ele>
        <time>2020-07-22T09:11:18Z</time>
      </trkpt>
      <trkpt lat="43.3612" lon="6.60735">
        <ele>266.983795</ele>
        <time>2020-07-22T09:11:21Z</time>
      </trkpt>
      <trkpt lat="43.36103" lon="6.60752">
        <ele>263.66571</ele>
        <time>2020-07-22T09:11:24Z</time>
      </trkpt>
      <trkpt lat="43.36085" lon="6.6077">
        <ele>259.926025</ele>
        <time>2020-07-22T09:11:27Z</time>
      </trkpt>
      <trkpt lat="43.3607" lon="6.60789">
        <ele>257.517426</ele>
        <time>2020-07-22T09:11:30Z</time>
      </trkpt>
      <trkpt lat="43.36054" lon="6.6081">
        <ele>253.354721</ele>
        <time>2020-07-22T09:11:34Z</time>
      </trkpt>
      <trkpt lat="43.36035" lon="6.60826">
        <ele>250.002274</ele>
        <time>2020-07-22T09:11:38Z</time>
      </trkpt>
      <trkpt lat="43.36016" lon="6.60839">
        <ele>246.911301</ele>
        <time>2020-07-22T09:11:42Z</time>
      </trkpt>
      <trkpt lat="43.35998" lon="6.60844">
        <ele>244.703934</ele>
        <time>2020-07-22T09:11:45Z</time>
      </trkpt>
      <trkpt lat="43.35976" lon="6.60848">
        <ele>247.262024</ele>
        <time>2020-07-22T09:11:50Z</time>
      </trkpt>
      <trkpt lat="43.35957" lon="6.60847">
        <ele>249.225159</ele>
        <time>2020-07-22T09:11:58Z</time>
      </trkpt>
      <trkpt lat="43.35938" lon="6.60846">
        <ele>254.112686</ele>
        <time>2020-07-22T09:12:07Z</time>
      </trkpt>
      <trkpt lat="43.35918" lon="6.60849">
        <ele>258.678741</ele>
        <time>2020-07-22T09:12:16Z</time>
      </trkpt>
      <trkpt lat="43.35902" lon="6.60861">
        <ele>262.081512</ele>
        <time>2020-07-22T09:12:26Z</time>
      </trkpt>
      <trkpt lat="43.35892" lon="6.60884">
        <ele>262.053406</ele>
        <time>2020-07-22T09:12:34Z</time>
      </trkpt>
      <trkpt lat="43.35886" lon="6.60908">
        <ele>260.756439</ele>
        <time>2020-07-22T09:12:43Z</time>
      </trkpt>
      <trkpt lat="43.35877" lon="6.60931">
        <ele>260.037109</ele>
        <time>2020-07-22T09:12:54Z</time>
      </trkpt>
      <trkpt lat="43.35864" lon="6.6095">
        <ele>261.899994</ele>
        <time>2020-07-22T09:13:05Z</time>
      </trkpt>
      <trkpt lat="43.35847" lon="6.60962">
        <ele>264.285828</ele>
        <time>2020-07-22T09:13:15Z</time>
      </trkpt>
      <trkpt lat="43.35829" lon="6.60967">
        <ele>268.422791</ele>
        <time>2020-07-22T09:13:26Z</time>
      </trkpt>
      <trkpt lat="43.3581" lon="6.60968">
        <ele>274.646881</ele>
        <time>2020-07-22T09:13:37Z</time>
      </trkpt>
      <trkpt lat="43.35797" lon="6.60986">
        <ele>276.305786</ele>
        <time>2020-07-22T09:13:47Z</time>
      </trkpt>
      <trkpt lat="43.35788" lon="6.61008">
        <ele>275.220184</ele>
        <time>2020-07-22T09:13:58Z</time>
      </trkpt>
      <trkpt lat="43.35782" lon="6.61033">
        <ele>272.909668</ele>
        <time>2020-07-22T09:14:08Z</time>
      </trkpt>
      <trkpt lat="43.35772" lon="6.61054">
        <ele>272.754791</ele>
        <time>2020-07-22T09:14:17Z</time>
      </trkpt>
      <trkpt lat="43.35758" lon="6.61072">
        <ele>276.198578</ele>
        <time>2020-07-22T09:14:27Z</time>
      </trkpt>
      <trkpt lat="43.35744" lon="6.61088">
        <ele>281.357239</ele>
        <time>2020-07-22T09:14:38Z</time>
      </trkpt>
      <trkpt lat="43.35738" lon="6.61113">
        <ele>282.311584</ele>
        <time>2020-07-22T09:14:47Z</time>
      </trkpt>
      <trkpt lat="43.3574" lon="6.61139">
        <ele>279.582123</ele>
        <time>2020-07-22T09:14:56Z</time>
      </trkpt>
      <trkpt lat="43.35739" lon="6.61165">
        <ele>279.764069</ele>
        <time>2020-07-22T09:15:06Z</time>
      </trkpt>
      <trkpt lat="43.35735" lon="6.61192">
        <ele>282.074066</ele>
        <time>2020-07-22T09:15:16Z</time>
      </trkpt>
      <trkpt lat="43.35732" lon="6.61217">
        <ele>281.730621</ele>
        <time>2020-07-22T09:15:26Z</time>
      </trkpt>
      <trkpt lat="43.35724" lon="6.6124">
        <ele>281.31781</ele>
        <time>2020-07-22T09:15:36Z</time>
      </trkpt>
      <trkpt lat="43.3571" lon="6.61257">
        <ele>283.231842</ele>
        <time>2020-07-22T09:15:47Z</time>
      </trkpt>
      <trkpt lat="43.35692" lon="6.61261">
        <ele>286.707367</ele>
        <time>2020-07-22T09:15:57Z</time>
      </trkpt>
      <trkpt lat="43.35675" lon="6.61253">
        <ele>293.078583</ele>
        <time>2020-07-22T09:16:08Z</time>
      </trkpt>
      <trkpt lat="43.35655" lon="6.61247">
        <ele>299.035217</ele>
        <time>2020-07-22T09:18:32Z</time>
      </trkpt>
      <trkpt lat="43.35638" lon="6.61258">
        <ele>298.386414</ele>
        <time>2020-07-22T09:18:42Z</time>
      </trkpt>
      <trkpt lat="43.35619" lon="6.61268">
        <ele>299.434082</ele>
        <time>2020-07-22T09:18:53Z</time>
      </trkpt>
      <trkpt lat="43.35603" lon="6.61281">
        <ele>301.266785</ele>
        <time>2020-07-22T09:19:03Z</time>
      </trkpt>
      <trkpt lat="43.35591" lon="6.613">
        <ele>298.799286</ele>
        <time>2020-07-22T09:19:12Z</time>
      </trkpt>
      <trkpt lat="43.35577" lon="6.61318">
        <ele>297.636108</ele>
        <time>2020-07-22T09:19:22Z</time>
      </trkpt>
      <trkpt lat="43.35561" lon="6.61331">
        <ele>302.596954</ele>
        <time>2020-07-22T09:19:32Z</time>
      </trkpt>
      <trkpt lat="43.35546" lon="6.61344">
        <ele>306.819733</ele>
        <time>2020-07-22T09:19:42Z</time>
      </trkpt>
      <trkpt lat="43.35532" lon="6.61362">
        <ele>308.252777</ele>
        <time>2020-07-22T09:19:51Z</time>
      </trkpt>
      <trkpt lat="43.35523" lon="6.61385">
        <ele>306.859131</ele>
        <time>2020-07-22T09:20:01Z</time>
      </trkpt>
      <trkpt lat="43.35513" lon="6.61406">
        <ele>306.601135</ele>
        <time>2020-07-22T09:20:10Z</time>
      </trkpt>
      <trkpt lat="43.35505" lon="6.61429">
        <ele>304.774597</ele>
        <time>2020-07-22T09:20:20Z</time>
      </trkpt>
      <trkpt lat="43.35494" lon="6.61451">
        <ele>304.717468</ele>
        <time>2020-07-22T09:20:30Z</time>
      </trkpt>
      <trkpt lat="43.35478" lon="6.61463">
        <ele>308.447388</ele>
        <time>2020-07-22T09:20:41Z</time>
      </trkpt>
      <trkpt lat="43.35459" lon="6.61463">
        <ele>317.165894</ele>
        <time>2020-07-22T09:20:51Z</time>
      </trkpt>
      <trkpt lat="43.35448" lon="6.61482">
        <ele>316.791595</ele>
        <time>2020-07-22T09:21:01Z</time>
      </trkpt>
      <trkpt lat="43.35438" lon="6.61504">
        <ele>315.808075</ele>
        <time>2020-07-22T09:21:12Z</time>
      </trkpt>
      <trkpt lat="43.35425" lon="6.61527">
        <ele>315.184052</ele>
        <time>2020-07-22T09:21:21Z</time>
      </trkpt>
      <trkpt lat="43.35413" lon="6.61546">
        <ele>316.166748</ele>
        <time>2020-07-22T09:21:33Z</time>
      </trkpt>
      <trkpt lat="43.35399" lon="6.61565">
        <ele>318.405762</ele>
        <time>2020-07-22T09:21:45Z</time>
      </trkpt>
      <trkpt lat="43.35386" lon="6.61585">
        <ele>319.429901</ele>
        <time>2020-07-22T09:21:56Z</time>
      </trkpt>
      <trkpt lat="43.35372" lon="6.61607">
        <ele>317.750916</ele>
        <time>2020-07-22T09:22:06Z</time>
      </trkpt>
      <trkpt lat="43.35361" lon="6.61628">
        <ele>317.608521</ele>
        <time>2020-07-22T09:22:15Z</time>
      </trkpt>
      <trkpt lat="43.35354" lon="6.61651">
        <ele>317.659485</ele>
        <time>2020-07-22T09:22:25Z</time>
      </trkpt>
      <trkpt lat="43.35345" lon="6.61674">
        <ele>319.283539</ele>
        <time>2020-07-22T09:22:34Z</time>
      </trkpt>
      <trkpt lat="43.35336" lon="6.61696">
        <ele>317.744385</ele>
        <time>2020-07-22T09:22:43Z</time>
      </trkpt>
      <trkpt lat="43.35324" lon="6.61716">
        <ele>317.313141</ele>
        <time>2020-07-22T09:22:56Z</time>
      </trkpt>
      <trkpt lat="43.35312" lon="6.61734">
        <ele>318.460144</ele>
        <time>2020-07-22T09:23:07Z</time>
      </trkpt>
      <trkpt lat="43.35302" lon="6.61756">
        <ele>317.300385</ele>
        <time>2020-07-22T09:23:13Z</time>
      </trkpt>
      <trkpt lat="43.35293" lon="6.61782">
        <ele>315.224823</ele>
        <time>2020-07-22T09:23:18Z</time>
      </trkpt>
      <trkpt lat="43.35278" lon="6.61805">
        <ele>313.945892</ele>
        <time>2020-07-22T09:23:23Z</time>
      </trkpt>
      <trkpt lat="43.35265" lon="6.61828">
        <ele>312.503235</ele>
        <time>2020-07-22T09:23:27Z</time>
      </trkpt>
      <trkpt lat="43.35252" lon="6.61855">
        <ele>311.337799</ele>
        <time>2020-07-22T09:23:31Z</time>
      </trkpt>
      <trkpt lat="43.3524" lon="6.61874">
        <ele>310.180664</ele>
        <time>2020-07-22T09:23:34Z</time>
      </trkpt>
      <trkpt lat="43.35227" lon="6.61892">
        <ele>308.434143</ele>
        <time>2020-07-22T09:23:41Z</time>
      </trkpt>
      <trkpt lat="43.35208" lon="6.61907">
        <ele>310.113678</ele>
        <time>2020-07-22T09:23:49Z</time>
      </trkpt>
      <trkpt lat="43.35191" lon="6.61924">
        <ele>310.295776</ele>
        <time>2020-07-22T09:23:53Z</time>
      </trkpt>
      <trkpt lat="43.35172" lon="6.61944">
        <ele>308.336884</ele>
        <time>2020-07-22T09:23:57Z</time>
      </trkpt>
      <trkpt lat="43.35158" lon="6.61964">
        <ele>308.074219</ele>
        <time>2020-07-22T09:24:00Z</time>
      </trkpt>
      <trkpt lat="43.35145" lon="6.61987">
        <ele>306.256165</ele>
        <time>2020-07-22T09:24:03Z</time>
      </trkpt>
      <trkpt lat="43.35131" lon="6.6201">
        <ele>304.259674</ele>
        <time>2020-07-22T09:24:06Z</time>
      </trkpt>
      <trkpt lat="43.35117" lon="6.62033">
        <ele>303.236664</ele>
        <time>2020-07-22T09:24:09Z</time>
      </trkpt>
      <trkpt lat="43.35103" lon="6.62058">
        <ele>302.392334</ele>
        <time>2020-07-22T09:24:12Z</time>
      </trkpt>
      <trkpt lat="43.35094" lon="6.62076">
        <ele>301.375824</ele>
        <time>2020-07-22T09:24:14Z</time>
      </trkpt>
      <trkpt lat="43.35082" lon="6.62103">
        <ele>299.84494</ele>
        <time>2020-07-22T09:24:17Z</time>
      </trkpt>
      <trkpt lat="43.35072" lon="6.62128">
        <ele>299.296997</ele>
        <time>2020-07-22T09:24:20Z</time>
      </trkpt>
      <trkpt lat="43.35074" lon="6.62154">
        <ele>297.684174</ele>
        <time>2020-07-22T09:24:24Z</time>
      </trkpt>
      <trkpt lat="43.35082" lon="6.62182">
        <ele>295.954071</ele>
        <time>2020-07-22T09:24:28Z</time>
      </trkpt>
      <trkpt lat="43.35082" lon="6.62208">
        <ele>296.481201</ele>
        <time>2020-07-22T09:24:31Z</time>
      </trkpt>
      <trkpt lat="43.35076" lon="6.62234">
        <ele>294.947113</ele>
        <time>2020-07-22T09:24:34Z</time>
      </trkpt>
      <trkpt lat="43.35072" lon="6.62263">
        <ele>293.331665</ele>
        <time>2020-07-22T09:24:37Z</time>
      </trkpt>
      <trkpt lat="43.35067" lon="6.62292">
        <ele>290.936646</ele>
        <time>2020-07-22T09:24:40Z</time>
      </trkpt>
      <trkpt lat="43.35063" lon="6.62323">
        <ele>288.023865</ele>
        <time>2020-07-22T09:24:43Z</time>
      </trkpt>
      <trkpt lat="43.35063" lon="6.62356">
        <ele>285.872803</ele>
        <time>2020-07-22T09:24:46Z</time>
      </trkpt>
      <trkpt lat="43.35067" lon="6.62387">
        <ele>283.407104</ele>
        <time>2020-07-22T09:24:49Z</time>
      </trkpt>
      <trkpt lat="43.35067" lon="6.62417">
        <ele>281.348816</ele>
        <time>2020-07-22T09:24:53Z</time>
      </trkpt>
      <trkpt lat="43.35053" lon="6.6243">
        <ele>282.038544</ele>
        <time>2020-07-22T09:24:57Z</time>
      </trkpt>
      <trkpt lat="43.3503" lon="6.62422">
        <ele>282.622864</ele>
        <time>2020-07-22T09:25:01Z</time>
      </trkpt>
      <trkpt lat="43.35011" lon="6.62408">
        <ele>282.174042</ele>
        <time>2020-07-22T09:25:04Z</time>
      </trkpt>
      <trkpt lat="43.34992" lon="6.62392">
        <ele>282.687653</ele>
        <time>2020-07-22T09:25:07Z</time>
      </trkpt>
      <trkpt lat="43.34974" lon="6.62367">
        <ele>283.308014</ele>
        <time>2020-07-22T09:25:10Z</time>
      </trkpt>
      <trkpt lat="43.34958" lon="6.62343">
        <ele>284.075714</ele>
        <time>2020-07-22T09:25:13Z</time>
      </trkpt>
      <trkpt lat="43.34939" lon="6.62325">
        <ele>283.715637</ele>
        <time>2020-07-22T09:25:16Z</time>
      </trkpt>
      <trkpt lat="43.34918" lon="6.62314">
        <ele>281.734772</ele>
        <time>2020-07-22T09:25:19Z</time>
      </trkpt>
      <trkpt lat="43.34899" lon="6.62312">
        <ele>278.648987</ele>
        <time>2020-07-22T09:25:22Z</time>
      </trkpt>
      <trkpt lat="43.3488" lon="6.62317">
        <ele>274.66626</ele>
        <time>2020-07-22T09:25:25Z</time>
      </trkpt>
      <trkpt lat="43.3486" lon="6.62325">
        <ele>270.579407</ele>
        <time>2020-07-22T09:25:28Z</time>
      </trkpt>
      <trkpt lat="43.34838" lon="6.62331">
        <ele>268.306091</ele>
        <time>2020-07-22T09:25:31Z</time>
      </trkpt>
      <trkpt lat="43.34814" lon="6.62336">
        <ele>266.990662</ele>
        <time>2020-07-22T09:25:34Z</time>
      </trkpt>
      <trkpt lat="43.3479" lon="6.62337">
        <ele>266.350739</ele>
        <time>2020-07-22T09:25:37Z</time>
      </trkpt>
      <trkpt lat="43.34766" lon="6.62339">
        <ele>266.157501</ele>
        <time>2020-07-22T09:25:40Z</time>
      </trkpt>
      <trkpt lat="43.34745" lon="6.6234">
        <ele>266.637512</ele>
        <time>2020-07-22T09:25:43Z</time>
      </trkpt>
      <trkpt lat="43.34726" lon="6.6234">
        <ele>267.154541</ele>
        <time>2020-07-22T09:25:46Z</time>
      </trkpt>
      <trkpt lat="43.34707" lon="6.62338">
        <ele>268.16864</ele>
        <time>2020-07-22T09:25:50Z</time>
      </trkpt>
      <trkpt lat="43.34687" lon="6.62335">
        <ele>269.210022</ele>
        <time>2020-07-22T09:25:57Z</time>
      </trkpt>
      <trkpt lat="43.3467" lon="6.62332">
        <ele>269.890015</ele>
        <time>2020-07-22T09:26:03Z</time>
      </trkpt>
      <trkpt lat="43.34647" lon="6.62329">
        <ele>270.663574</ele>
        <time>2020-07-22T09:26:08Z</time>
      </trkpt>
      <trkpt lat="43.34627" lon="6.62329">
        <ele>271.003998</ele>
        <time>2020-07-22T09:26:13Z</time>
      </trkpt>
      <trkpt lat="43.34606" lon="6.62328">
        <ele>271.174072</ele>
        <time>2020-07-22T09:26:19Z</time>
      </trkpt>
      <trkpt lat="43.34584" lon="6.62328">
        <ele>271.131836</ele>
        <time>2020-07-22T09:26:24Z</time>
      </trkpt>
      <trkpt lat="43.34563" lon="6.62331">
        <ele>270.77597</ele>
        <time>2020-07-22T09:26:29Z</time>
      </trkpt>
      <trkpt lat="43.34543" lon="6.62338">
        <ele>270.40564</ele>
        <time>2020-07-22T09:26:34Z</time>
      </trkpt>
      <trkpt lat="43.34526" lon="6.62347">
        <ele>270.495514</ele>
        <time>2020-07-22T09:26:38Z</time>
      </trkpt>
      <trkpt lat="43.34511" lon="6.62363">
        <ele>268.507202</ele>
        <time>2020-07-22T09:26:42Z</time>
      </trkpt>
      <trkpt lat="43.34492" lon="6.62384">
        <ele>267.511536</ele>
        <time>2020-07-22T09:26:46Z</time>
      </trkpt>
      <trkpt lat="43.34479" lon="6.62406">
        <ele>267.86615</ele>
        <time>2020-07-22T09:26:49Z</time>
      </trkpt>
      <trkpt lat="43.34472" lon="6.62434">
        <ele>267.607239</ele>
        <time>2020-07-22T09:26:52Z</time>
      </trkpt>
      <trkpt lat="43.34468" lon="6.62466">
        <ele>266.741272</ele>
        <time>2020-07-22T09:26:55Z</time>
      </trkpt>
      <trkpt lat="43.34469" lon="6.62498">
        <ele>267.048981</ele>
        <time>2020-07-22T09:26:58Z</time>
      </trkpt>
      <trkpt lat="43.34471" lon="6.62532">
        <ele>267.055298</ele>
        <time>2020-07-22T09:27:01Z</time>
      </trkpt>
      <trkpt lat="43.34482" lon="6.62561">
        <ele>267.774567</ele>
        <time>2020-07-22T09:27:04Z</time>
      </trkpt>
      <trkpt lat="43.34499" lon="6.62588">
        <ele>266.703735</ele>
        <time>2020-07-22T09:27:07Z</time>
      </trkpt>
      <trkpt lat="43.34519" lon="6.62612">
        <ele>263.615326</ele>
        <time>2020-07-22T09:27:10Z</time>
      </trkpt>
      <trkpt lat="43.34537" lon="6.62634">
        <ele>260.365967</ele>
        <time>2020-07-22T09:27:13Z</time>
      </trkpt>
      <trkpt lat="43.34551" lon="6.62662">
        <ele>259.296448</ele>
        <time>2020-07-22T09:27:16Z</time>
      </trkpt>
      <trkpt lat="43.34562" lon="6.62689">
        <ele>254.990997</ele>
        <time>2020-07-22T09:27:19Z</time>
      </trkpt>
      <trkpt lat="43.34564" lon="6.62719">
        <ele>253.885178</ele>
        <time>2020-07-22T09:27:23Z</time>
      </trkpt>
      <trkpt lat="43.34554" lon="6.6274">
        <ele>253.248795</ele>
        <time>2020-07-22T09:27:26Z</time>
      </trkpt>
      <trkpt lat="43.34539" lon="6.62759">
        <ele>255.328918</ele>
        <time>2020-07-22T09:27:29Z</time>
      </trkpt>
      <trkpt lat="43.34525" lon="6.62779">
        <ele>257.579926</ele>
        <time>2020-07-22T09:27:32Z</time>
      </trkpt>
      <trkpt lat="43.34523" lon="6.62811">
        <ele>257.719086</ele>
        <time>2020-07-22T09:27:36Z</time>
      </trkpt>
      <trkpt lat="43.34531" lon="6.62835">
        <ele>254.030548</ele>
        <time>2020-07-22T09:27:39Z</time>
      </trkpt>
      <trkpt lat="43.34541" lon="6.62862">
        <ele>251.295349</ele>
        <time>2020-07-22T09:27:42Z</time>
      </trkpt>
      <trkpt lat="43.34553" lon="6.62888">
        <ele>249.164291</ele>
        <time>2020-07-22T09:27:45Z</time>
      </trkpt>
      <trkpt lat="43.34564" lon="6.62913">
        <ele>246.651474</ele>
        <time>2020-07-22T09:27:48Z</time>
      </trkpt>
      <trkpt lat="43.34568" lon="6.62938">
        <ele>243.251907</ele>
        <time>2020-07-22T09:27:51Z</time>
      </trkpt>
      <trkpt lat="43.34558" lon="6.6296">
        <ele>243.799194</ele>
        <time>2020-07-22T09:27:55Z</time>
      </trkpt>
      <trkpt lat="43.34537" lon="6.62962">
        <ele>247.704346</ele>
        <time>2020-07-22T09:27:59Z</time>
      </trkpt>
      <trkpt lat="43.34517" lon="6.62975">
        <ele>247.99028</ele>
        <time>2020-07-22T09:28:03Z</time>
      </trkpt>
      <trkpt lat="43.34499" lon="6.62988">
        <ele>248.469269</ele>
        <time>2020-07-22T09:28:06Z</time>
      </trkpt>
      <trkpt lat="43.34482" lon="6.63004">
        <ele>248.680191</ele>
        <time>2020-07-22T09:28:09Z</time>
      </trkpt>
      <trkpt lat="43.34469" lon="6.63021">
        <ele>248.683472</ele>
        <time>2020-07-22T09:28:12Z</time>
      </trkpt>
      <trkpt lat="43.3447" lon="6.63048">
        <ele>246.23703</ele>
        <time>2020-07-22T09:28:16Z</time>
      </trkpt>
      <trkpt lat="43.34478" lon="6.63078">
        <ele>239.630402</ele>
        <time>2020-07-22T09:28:20Z</time>
      </trkpt>
      <trkpt lat="43.34485" lon="6.63105">
        <ele>237.215286</ele>
        <time>2020-07-22T09:28:23Z</time>
      </trkpt>
      <trkpt lat="43.34494" lon="6.63132">
        <ele>235.353119</ele>
        <time>2020-07-22T09:28:26Z</time>
      </trkpt>
      <trkpt lat="43.34505" lon="6.6316">
        <ele>232.803757</ele>
        <time>2020-07-22T09:28:29Z</time>
      </trkpt>
      <trkpt lat="43.34513" lon="6.63192">
        <ele>232.083755</ele>
        <time>2020-07-22T09:28:32Z</time>
      </trkpt>
      <trkpt lat="43.34523" lon="6.63224">
        <ele>230.755005</ele>
        <time>2020-07-22T09:28:35Z</time>
      </trkpt>
      <trkpt lat="43.34537" lon="6.63255">
        <ele>226.714996</ele>
        <time>2020-07-22T09:28:38Z</time>
      </trkpt>
      <trkpt lat="43.34549" lon="6.63288">
        <ele>223.513855</ele>
        <time>2020-07-22T09:28:41Z</time>
      </trkpt>
      <trkpt lat="43.34559" lon="6.63321">
        <ele>221.460007</ele>
        <time>2020-07-22T09:28:44Z</time>
      </trkpt>
      <trkpt lat="43.34565" lon="6.63349">
        <ele>219.545975</ele>
        <time>2020-07-22T09:28:47Z</time>
      </trkpt>
      <trkpt lat="43.34564" lon="6.63379">
        <ele>218.436127</ele>
        <time>2020-07-22T09:28:50Z</time>
      </trkpt>
      <trkpt lat="43.34558" lon="6.6341">
        <ele>218.352798</ele>
        <time>2020-07-22T09:28:53Z</time>
      </trkpt>
      <trkpt lat="43.34548" lon="6.63438">
        <ele>217.721802</ele>
        <time>2020-07-22T09:28:56Z</time>
      </trkpt>
      <trkpt lat="43.34533" lon="6.6346">
        <ele>219.191544</ele>
        <time>2020-07-22T09:28:59Z</time>
      </trkpt>
      <trkpt lat="43.34517" lon="6.63481">
        <ele>217.826416</ele>
        <time>2020-07-22T09:29:02Z</time>
      </trkpt>
      <trkpt lat="43.34499" lon="6.635">
        <ele>216.367264</ele>
        <time>2020-07-22T09:29:05Z</time>
      </trkpt>
      <trkpt lat="43.34477" lon="6.63515">
        <ele>216.401123</ele>
        <time>2020-07-22T09:29:08Z</time>
      </trkpt>
      <trkpt lat="43.34456" lon="6.6353">
        <ele>214.655075</ele>
        <time>2020-07-22T09:29:11Z</time>
      </trkpt>
      <trkpt lat="43.34432" lon="6.63544">
        <ele>213.548798</ele>
        <time>2020-07-22T09:29:14Z</time>
      </trkpt>
      <trkpt lat="43.34408" lon="6.63555">
        <ele>213.397873</ele>
        <time>2020-07-22T09:29:17Z</time>
      </trkpt>
      <trkpt lat="43.34388" lon="6.63566">
        <ele>214.995911</ele>
        <time>2020-07-22T09:29:20Z</time>
      </trkpt>
      <trkpt lat="43.34374" lon="6.63584">
        <ele>215.073486</ele>
        <time>2020-07-22T09:29:23Z</time>
      </trkpt>
      <trkpt lat="43.34367" lon="6.63612">
        <ele>211.498184</ele>
        <time>2020-07-22T09:29:26Z</time>
      </trkpt>
      <trkpt lat="43.34365" lon="6.63641">
        <ele>208.12088</ele>
        <time>2020-07-22T09:29:29Z</time>
      </trkpt>
      <trkpt lat="43.34365" lon="6.6367">
        <ele>207.05867</ele>
        <time>2020-07-22T09:29:32Z</time>
      </trkpt>
      <trkpt lat="43.34368" lon="6.63701">
        <ele>204.104996</ele>
        <time>2020-07-22T09:29:35Z</time>
      </trkpt>
      <trkpt lat="43.34369" lon="6.63732">
        <ele>201.145004</ele>
        <time>2020-07-22T09:29:38Z</time>
      </trkpt>
      <trkpt lat="43.34366" lon="6.63763">
        <ele>199.633377</ele>
        <time>2020-07-22T09:29:41Z</time>
      </trkpt>
      <trkpt lat="43.34358" lon="6.63794">
        <ele>198.244995</ele>
        <time>2020-07-22T09:29:44Z</time>
      </trkpt>
      <trkpt lat="43.34346" lon="6.63824">
        <ele>196.565308</ele>
        <time>2020-07-22T09:29:47Z</time>
      </trkpt>
      <trkpt lat="43.34338" lon="6.63849">
        <ele>194.575714</ele>
        <time>2020-07-22T09:29:50Z</time>
      </trkpt>
      <trkpt lat="43.34349" lon="6.63875">
        <ele>190.361496</ele>
        <time>2020-07-22T09:29:54Z</time>
      </trkpt>
      <trkpt lat="43.34345" lon="6.63897">
        <ele>188.222504</ele>
        <time>2020-07-22T09:29:58Z</time>
      </trkpt>
      <trkpt lat="43.34323" lon="6.63892">
        <ele>189.446808</ele>
        <time>2020-07-22T09:30:03Z</time>
      </trkpt>
      <trkpt lat="43.34303" lon="6.6388">
        <ele>191.808594</ele>
        <time>2020-07-22T09:30:07Z</time>
      </trkpt>
      <trkpt lat="43.34284" lon="6.63872">
        <ele>192.909622</ele>
        <time>2020-07-22T09:30:10Z</time>
      </trkpt>
      <trkpt lat="43.34265" lon="6.63873">
        <ele>192.415619</ele>
        <time>2020-07-22T09:30:13Z</time>
      </trkpt>
      <trkpt lat="43.34241" lon="6.63877">
        <ele>190.77153</ele>
        <time>2020-07-22T09:30:16Z</time>
      </trkpt>
      <trkpt lat="43.34218" lon="6.63879">
        <ele>189.989716</ele>
        <time>2020-07-22T09:30:19Z</time>
      </trkpt>
      <trkpt lat="43.34209" lon="6.63876">
        <ele>189.717422</ele>
        <time>2020-07-22T09:30:37Z</time>
      </trkpt>
      <trkpt lat="43.342" lon="6.63847">
        <ele>188.183151</ele>
        <time>2020-07-22T09:32:03Z</time>
      </trkpt>
      <trkpt lat="43.34189" lon="6.63823">
        <ele>183.832718</ele>
        <time>2020-07-22T09:32:07Z</time>
      </trkpt>
      <trkpt lat="43.3417" lon="6.63819">
        <ele>178.917755</ele>
        <time>2020-07-22T09:32:11Z</time>
      </trkpt>
      <trkpt lat="43.34147" lon="6.63819">
        <ele>174.66684</ele>
        <time>2020-07-22T09:32:15Z</time>
      </trkpt>
      <trkpt lat="43.34124" lon="6.63818">
        <ele>170.32254</ele>
        <time>2020-07-22T09:32:19Z</time>
      </trkpt>
      <trkpt lat="43.34104" lon="6.63821">
        <ele>168.120071</ele>
        <time>2020-07-22T09:32:24Z</time>
      </trkpt>
      <trkpt lat="43.34085" lon="6.63823">
        <ele>165.787247</ele>
        <time>2020-07-22T09:32:29Z</time>
      </trkpt>
      <trkpt lat="43.34064" lon="6.63823">
        <ele>162.799316</ele>
        <time>2020-07-22T09:32:33Z</time>
      </trkpt>
      <trkpt lat="43.34045" lon="6.63822">
        <ele>159.876892</ele>
        <time>2020-07-22T09:32:36Z</time>
      </trkpt>
      <trkpt lat="43.34026" lon="6.63818">
        <ele>156.675003</ele>
        <time>2020-07-22T09:32:41Z</time>
      </trkpt>
      <trkpt lat="43.34007" lon="6.63804">
        <ele>151.242508</ele>
        <time>2020-07-22T09:32:46Z</time>
      </trkpt>
      <trkpt lat="43.33986" lon="6.63794">
        <ele>146.740005</ele>
        <time>2020-07-22T09:32:50Z</time>
      </trkpt>
      <trkpt lat="43.33964" lon="6.63792">
        <ele>144.820007</ele>
        <time>2020-07-22T09:32:53Z</time>
      </trkpt>
      <trkpt lat="43.3394" lon="6.63792">
        <ele>142.736404</ele>
        <time>2020-07-22T09:32:56Z</time>
      </trkpt>
      <trkpt lat="43.33914" lon="6.6379">
        <ele>139.626877</ele>
        <time>2020-07-22T09:32:59Z</time>
      </trkpt>
      <trkpt lat="43.33888" lon="6.63793">
        <ele>136.468857</ele>
        <time>2020-07-22T09:33:02Z</time>
      </trkpt>
      <trkpt lat="43.33865" lon="6.63801">
        <ele>133.745148</ele>
        <time>2020-07-22T09:33:05Z</time>
      </trkpt>
      <trkpt lat="43.33841" lon="6.63805">
        <ele>130.072357</ele>
        <time>2020-07-22T09:33:08Z</time>
      </trkpt>
      <trkpt lat="43.33816" lon="6.63809">
        <ele>125.914795</ele>
        <time>2020-07-22T09:33:11Z</time>
      </trkpt>
      <trkpt lat="43.33798" lon="6.6382">
        <ele>124.66301</ele>
        <time>2020-07-22T09:33:13Z</time>
      </trkpt>
      <trkpt lat="43.33777" lon="6.63834">
        <ele>123.042763</ele>
        <time>2020-07-22T09:33:16Z</time>
      </trkpt>
      <trkpt lat="43.33758" lon="6.6384">
        <ele>120.40995</ele>
        <time>2020-07-22T09:33:20Z</time>
      </trkpt>
      <trkpt lat="43.33741" lon="6.63822">
        <ele>116.965004</ele>
        <time>2020-07-22T09:33:24Z</time>
      </trkpt>
      <trkpt lat="43.33724" lon="6.63801">
        <ele>113.032501</ele>
        <time>2020-07-22T09:33:27Z</time>
      </trkpt>
      <trkpt lat="43.33708" lon="6.63786">
        <ele>110.294998</ele>
        <time>2020-07-22T09:33:29Z</time>
      </trkpt>
      <trkpt lat="43.3369" lon="6.63771">
        <ele>107.372498</ele>
        <time>2020-07-22T09:33:31Z</time>
      </trkpt>
      <trkpt lat="43.3367" lon="6.63759">
        <ele>104.859512</ele>
        <time>2020-07-22T09:33:33Z</time>
      </trkpt>
      <trkpt lat="43.33647" lon="6.6375">
        <ele>102.976379</ele>
        <time>2020-07-22T09:33:35Z</time>
      </trkpt>
      <trkpt lat="43.33625" lon="6.63743">
        <ele>100.826378</ele>
        <time>2020-07-22T09:33:37Z</time>
      </trkpt>
      <trkpt lat="43.33603" lon="6.6374">
        <ele>98.408386</ele>
        <time>2020-07-22T09:33:39Z</time>
      </trkpt>
      <trkpt lat="43.33579" lon="6.63738">
        <ele>95.780617</ele>
        <time>2020-07-22T09:33:41Z</time>
      </trkpt>
      <trkpt lat="43.33556" lon="6.63737">
        <ele>93.054863</ele>
        <time>2020-07-22T09:33:43Z</time>
      </trkpt>
      <trkpt lat="43.33536" lon="6.63736">
        <ele>91.078751</ele>
        <time>2020-07-22T09:33:45Z</time>
      </trkpt>
      <trkpt lat="43.33511" lon="6.63726">
        <ele>88.471252</ele>
        <time>2020-07-22T09:33:48Z</time>
      </trkpt>
      <trkpt lat="43.33494" lon="6.63715">
        <ele>86.596397</ele>
        <time>2020-07-22T09:33:50Z</time>
      </trkpt>
      <trkpt lat="43.33476" lon="6.63703">
        <ele>84.522163</ele>
        <time>2020-07-22T09:33:52Z</time>
      </trkpt>
      <trkpt lat="43.33456" lon="6.63691">
        <ele>82.107498</ele>
        <time>2020-07-22T09:33:54Z</time>
      </trkpt>
      <trkpt lat="43.33435" lon="6.63678">
        <ele>80.875702</ele>
        <time>2020-07-22T09:33:56Z</time>
      </trkpt>
      <trkpt lat="43.33413" lon="6.63667">
        <ele>80.438126</ele>
        <time>2020-07-22T09:33:58Z</time>
      </trkpt>
      <trkpt lat="43.33395" lon="6.63659">
        <ele>79.912598</ele>
        <time>2020-07-22T09:34:00Z</time>
      </trkpt>
      <trkpt lat="43.33375" lon="6.63656">
        <ele>79.001579</ele>
        <time>2020-07-22T09:34:03Z</time>
      </trkpt>
      <trkpt lat="43.33353" lon="6.63646">
        <ele>77.58696</ele>
        <time>2020-07-22T09:34:06Z</time>
      </trkpt>
      <trkpt lat="43.3333" lon="6.63639">
        <ele>75.40255</ele>
        <time>2020-07-22T09:34:09Z</time>
      </trkpt>
      <trkpt lat="43.33306" lon="6.63633">
        <ele>71.887909</ele>
        <time>2020-07-22T09:34:12Z</time>
      </trkpt>
      <trkpt lat="43.33286" lon="6.6363">
        <ele>68.371376</ele>
        <time>2020-07-22T09:34:15Z</time>
      </trkpt>
      <trkpt lat="43.33269" lon="6.63648">
        <ele>66.727715</ele>
        <time>2020-07-22T09:34:18Z</time>
      </trkpt>
      <trkpt lat="43.33251" lon="6.63673">
        <ele>64.396301</ele>
        <time>2020-07-22T09:34:21Z</time>
      </trkpt>
      <trkpt lat="43.33236" lon="6.63692">
        <ele>63.473461</ele>
        <time>2020-07-22T09:34:23Z</time>
      </trkpt>
      <trkpt lat="43.33218" lon="6.63709">
        <ele>63.204063</ele>
        <time>2020-07-22T09:34:25Z</time>
      </trkpt>
      <trkpt lat="43.33199" lon="6.63724">
        <ele>61.916874</ele>
        <time>2020-07-22T09:34:27Z</time>
      </trkpt>
      <trkpt lat="43.33179" lon="6.63735">
        <ele>61.48875</ele>
        <time>2020-07-22T09:34:29Z</time>
      </trkpt>
      <trkpt lat="43.3316" lon="6.63746">
        <ele>61.760887</ele>
        <time>2020-07-22T09:34:31Z</time>
      </trkpt>
      <trkpt lat="43.33142" lon="6.63759">
        <ele>61.667744</ele>
        <time>2020-07-22T09:34:33Z</time>
      </trkpt>
      <trkpt lat="43.33125" lon="6.6377">
        <ele>61.046734</ele>
        <time>2020-07-22T09:34:35Z</time>
      </trkpt>
      <trkpt lat="43.33102" lon="6.63781">
        <ele>58.702847</ele>
        <time>2020-07-22T09:34:38Z</time>
      </trkpt>
      <trkpt lat="43.33078" lon="6.63781">
        <ele>57.206112</ele>
        <time>2020-07-22T09:34:41Z</time>
      </trkpt>
      <trkpt lat="43.33052" lon="6.63779">
        <ele>56.085068</ele>
        <time>2020-07-22T09:34:44Z</time>
      </trkpt>
      <trkpt lat="43.33028" lon="6.63784">
        <ele>55.862938</ele>
        <time>2020-07-22T09:34:47Z</time>
      </trkpt>
      <trkpt lat="43.33005" lon="6.63792">
        <ele>56.490002</ele>
        <time>2020-07-22T09:34:50Z</time>
      </trkpt>
      <trkpt lat="43.32984" lon="6.63791">
        <ele>55.59375</ele>
        <time>2020-07-22T09:34:53Z</time>
      </trkpt>
      <trkpt lat="43.32964" lon="6.63788">
        <ele>54.445</ele>
        <time>2020-07-22T09:34:56Z</time>
      </trkpt>
      <trkpt lat="43.32943" lon="6.63785">
        <ele>53.271751</ele>
        <time>2020-07-22T09:34:59Z</time>
      </trkpt>
      <trkpt lat="43.32921" lon="6.63781">
        <ele>52.132275</ele>
        <time>2020-07-22T09:35:02Z</time>
      </trkpt>
      <trkpt lat="43.32898" lon="6.6378">
        <ele>52.638176</ele>
        <time>2020-07-22T09:35:05Z</time>
      </trkpt>
      <trkpt lat="43.32875" lon="6.63778">
        <ele>53.477482</ele>
        <time>2020-07-22T09:35:08Z</time>
      </trkpt>
      <trkpt lat="43.32854" lon="6.63777">
        <ele>54.384998</ele>
        <time>2020-07-22T09:35:11Z</time>
      </trkpt>
      <trkpt lat="43.32836" lon="6.63784">
        <ele>54.502811</ele>
        <time>2020-07-22T09:35:14Z</time>
      </trkpt>
      <trkpt lat="43.32816" lon="6.6379">
        <ele>53.1623</ele>
        <time>2020-07-22T09:35:19Z</time>
      </trkpt>
      <trkpt lat="43.32796" lon="6.63787">
        <ele>52.138138</ele>
        <time>2020-07-22T09:35:26Z</time>
      </trkpt>
      <trkpt lat="43.32778" lon="6.63777">
        <ele>52.612583</ele>
        <time>2020-07-22T09:35:31Z</time>
      </trkpt>
      <trkpt lat="43.32755" lon="6.63766">
        <ele>53.224079</ele>
        <time>2020-07-22T09:35:35Z</time>
      </trkpt>
      <trkpt lat="43.32737" lon="6.63764">
        <ele>52.622158</ele>
        <time>2020-07-22T09:35:39Z</time>
      </trkpt>
      <trkpt lat="43.32718" lon="6.63759">
        <ele>52.67313</ele>
        <time>2020-07-22T09:35:45Z</time>
      </trkpt>
      <trkpt lat="43.32697" lon="6.63757">
        <ele>52.241501</ele>
        <time>2020-07-22T09:35:50Z</time>
      </trkpt>
      <trkpt lat="43.32677" lon="6.63755">
        <ele>52.528851</ele>
        <time>2020-07-22T09:35:55Z</time>
      </trkpt>
      <trkpt lat="43.32658" lon="6.63752">
        <ele>53.31715</ele>
        <time>2020-07-22T09:36:00Z</time>
      </trkpt>
      <trkpt lat="43.32637" lon="6.63754">
        <ele>53.780075</ele>
        <time>2020-07-22T09:36:05Z</time>
      </trkpt>
      <trkpt lat="43.32617" lon="6.6376">
        <ele>54.252655</ele>
        <time>2020-07-22T09:36:10Z</time>
      </trkpt>
      <trkpt lat="43.32596" lon="6.63764">
        <ele>55.001884</ele>
        <time>2020-07-22T09:36:15Z</time>
      </trkpt>
      <trkpt lat="43.32579" lon="6.63753">
        <ele>56.689476</ele>
        <time>2020-07-22T09:36:19Z</time>
      </trkpt>
      <trkpt lat="43.32565" lon="6.63734">
        <ele>58.849152</ele>
        <time>2020-07-22T09:36:23Z</time>
      </trkpt>
      <trkpt lat="43.32548" lon="6.63716">
        <ele>60.347198</ele>
        <time>2020-07-22T09:36:28Z</time>
      </trkpt>
      <trkpt lat="43.32532" lon="6.63706">
        <ele>60.998188</ele>
        <time>2020-07-22T09:36:33Z</time>
      </trkpt>
      <trkpt lat="43.32518" lon="6.63688">
        <ele>62.22086</ele>
        <time>2020-07-22T09:36:38Z</time>
      </trkpt>
      <trkpt lat="43.32504" lon="6.63667">
        <ele>61.879837</ele>
        <time>2020-07-22T09:36:43Z</time>
      </trkpt>
      <trkpt lat="43.32492" lon="6.63647">
        <ele>60.177921</ele>
        <time>2020-07-22T09:36:47Z</time>
      </trkpt>
      <trkpt lat="43.32474" lon="6.63624">
        <ele>57.743015</ele>
        <time>2020-07-22T09:36:51Z</time>
      </trkpt>
      <trkpt lat="43.32459" lon="6.63607">
        <ele>55.643749</ele>
        <time>2020-07-22T09:36:54Z</time>
      </trkpt>
      <trkpt lat="43.32441" lon="6.63587">
        <ele>53.662502</ele>
        <time>2020-07-22T09:36:58Z</time>
      </trkpt>
      <trkpt lat="43.32422" lon="6.63566">
        <ele>51.48</ele>
        <time>2020-07-22T09:37:02Z</time>
      </trkpt>
      <trkpt lat="43.32405" lon="6.63551">
        <ele>49.728462</ele>
        <time>2020-07-22T09:37:05Z</time>
      </trkpt>
      <trkpt lat="43.32386" lon="6.63543">
        <ele>48.060001</ele>
        <time>2020-07-22T09:37:08Z</time>
      </trkpt>
      <trkpt lat="43.32362" lon="6.63536">
        <ele>45.703751</ele>
        <time>2020-07-22T09:37:12Z</time>
      </trkpt>
      <trkpt lat="43.32343" lon="6.63516">
        <ele>44.331249</ele>
        <time>2020-07-22T09:37:15Z</time>
      </trkpt>
      <trkpt lat="43.32323" lon="6.63497">
        <ele>43.298752</ele>
        <time>2020-07-22T09:37:18Z</time>
      </trkpt>
      <trkpt lat="43.32299" lon="6.6348">
        <ele>41.845001</ele>
        <time>2020-07-22T09:37:21Z</time>
      </trkpt>
      <trkpt lat="43.32272" lon="6.63477">
        <ele>41.207275</ele>
        <time>2020-07-22T09:37:24Z</time>
      </trkpt>
      <trkpt lat="43.32247" lon="6.63478">
        <ele>40.025375</ele>
        <time>2020-07-22T09:37:27Z</time>
      </trkpt>
      <trkpt lat="43.32223" lon="6.63476">
        <ele>38.103039</ele>
        <time>2020-07-22T09:37:30Z</time>
      </trkpt>
      <trkpt lat="43.32205" lon="6.63461">
        <ele>36.959511</ele>
        <time>2020-07-22T09:37:33Z</time>
      </trkpt>
      <trkpt lat="43.3219" lon="6.63435">
        <ele>36.826748</ele>
        <time>2020-07-22T09:37:36Z</time>
      </trkpt>
      <trkpt lat="43.32176" lon="6.63411">
        <ele>37.247349</ele>
        <time>2020-07-22T09:37:39Z</time>
      </trkpt>
      <trkpt lat="43.32161" lon="6.63386">
        <ele>37.933426</ele>
        <time>2020-07-22T09:37:43Z</time>
      </trkpt>
      <trkpt lat="43.32148" lon="6.63368">
        <ele>38.623398</ele>
        <time>2020-07-22T09:37:48Z</time>
      </trkpt>
      <trkpt lat="43.32136" lon="6.6335">
        <ele>39.581104</ele>
        <time>2020-07-22T09:37:54Z</time>
      </trkpt>
      <trkpt lat="43.32126" lon="6.63327">
        <ele>40.040001</ele>
        <time>2020-07-22T09:38:00Z</time>
      </trkpt>
      <trkpt lat="43.32112" lon="6.63304">
        <ele>38.525002</ele>
        <time>2020-07-22T09:38:05Z</time>
      </trkpt>
      <trkpt lat="43.321" lon="6.63286">
        <ele>37.0625</ele>
        <time>2020-07-22T09:38:08Z</time>
      </trkpt>
      <trkpt lat="43.32084" lon="6.63262">
        <ele>35.160038</ele>
        <time>2020-07-22T09:38:11Z</time>
      </trkpt>
      <trkpt lat="43.32068" lon="6.63236">
        <ele>33.769421</ele>
        <time>2020-07-22T09:38:14Z</time>
      </trkpt>
      <trkpt lat="43.32049" lon="6.63228">
        <ele>32.251831</ele>
        <time>2020-07-22T09:38:18Z</time>
      </trkpt>
      <trkpt lat="43.32028" lon="6.63243">
        <ele>30.25</ele>
        <time>2020-07-22T09:38:22Z</time>
      </trkpt>
      <trkpt lat="43.32008" lon="6.63249">
        <ele>28.73</ele>
        <time>2020-07-22T09:38:26Z</time>
      </trkpt>
      <trkpt lat="43.3199" lon="6.63239">
        <ele>27.796381</ele>
        <time>2020-07-22T09:38:29Z</time>
      </trkpt>
      <trkpt lat="43.31968" lon="6.63227">
        <ele>26.766815</ele>
        <time>2020-07-22T09:38:32Z</time>
      </trkpt>
      <trkpt lat="43.31942" lon="6.63224">
        <ele>25.297874</ele>
        <time>2020-07-22T09:38:35Z</time>
      </trkpt>
      <trkpt lat="43.31919" lon="6.6323">
        <ele>23.594057</ele>
        <time>2020-07-22T09:38:38Z</time>
      </trkpt>
      <trkpt lat="43.31899" lon="6.63236">
        <ele>22.047501</ele>
        <time>2020-07-22T09:38:41Z</time>
      </trkpt>
      <trkpt lat="43.31879" lon="6.6324">
        <ele>20.873751</ele>
        <time>2020-07-22T09:38:44Z</time>
      </trkpt>
      <trkpt lat="43.3186" lon="6.63232">
        <ele>20.362499</ele>
        <time>2020-07-22T09:38:47Z</time>
      </trkpt>
      <trkpt lat="43.31845" lon="6.63217">
        <ele>19.4125</ele>
        <time>2020-07-22T09:38:50Z</time>
      </trkpt>
      <trkpt lat="43.31826" lon="6.632">
        <ele>18.008751</ele>
        <time>2020-07-22T09:38:53Z</time>
      </trkpt>
      <trkpt lat="43.31798" lon="6.63191">
        <ele>14.744125</ele>
        <time>2020-07-22T09:38:56Z</time>
      </trkpt>
      <trkpt lat="43.31779" lon="6.63188">
        <ele>12.048116</ele>
        <time>2020-07-22T09:38:58Z</time>
      </trkpt>
      <trkpt lat="43.31759" lon="6.63185">
        <ele>10.35</ele>
        <time>2020-07-22T09:39:01Z</time>
      </trkpt>
      <trkpt lat="43.31748" lon="6.63183">
        <ele>9.8525</ele>
        <time>2020-07-22T09:39:52Z</time>
      </trkpt>
      <trkpt lat="43.31759" lon="6.6316">
        <ele>9.51</ele>
        <time>2020-07-22T09:40:07Z</time>
      </trkpt>
      <trkpt lat="43.31775" lon="6.63141">
        <ele>9.816</ele>
        <time>2020-07-22T09:40:12Z</time>
      </trkpt>
      <trkpt lat="43.31792" lon="6.63121">
        <ele>10.669744</ele>
        <time>2020-07-22T09:40:17Z</time>
      </trkpt>
      <trkpt lat="43.31794" lon="6.63098">
        <ele>9.533612</ele>
        <time>2020-07-22T09:40:22Z</time>
      </trkpt>
      <trkpt lat="43.31785" lon="6.63077">
        <ele>7.855463</ele>
        <time>2020-07-22T09:40:47Z</time>
      </trkpt>
      <trkpt lat="43.31776" lon="6.63052">
        <ele>7.026306</ele>
        <time>2020-07-22T09:40:51Z</time>
      </trkpt>
      <trkpt lat="43.31757" lon="6.63043">
        <ele>7</ele>
        <time>2020-07-22T09:40:55Z</time>
      </trkpt>
      <trkpt lat="43.31739" lon="6.63051">
        <ele>7</ele>
        <time>2020-07-22T09:40:59Z</time>
      </trkpt>
      <trkpt lat="43.31724" lon="6.63069">
        <ele>7.135</ele>
        <time>2020-07-22T09:41:04Z</time>
      </trkpt>
      <trkpt lat="43.31706" lon="6.63071">
        <ele>7.5325</ele>
        <time>2020-07-22T09:41:08Z</time>
      </trkpt>
      <trkpt lat="43.31681" lon="6.6307">
        <ele>8</ele>
        <time>2020-07-22T09:41:12Z</time>
      </trkpt>
      <trkpt lat="43.31658" lon="6.63066">
        <ele>8</ele>
        <time>2020-07-22T09:41:16Z</time>
      </trkpt>
      <trkpt lat="43.31638" lon="6.63064">
        <ele>7.965</ele>
        <time>2020-07-22T09:41:20Z</time>
      </trkpt>
      <trkpt lat="43.31619" lon="6.63062">
        <ele>7.525</ele>
        <time>2020-07-22T09:41:24Z</time>
      </trkpt>
      <trkpt lat="43.31599" lon="6.63059">
        <ele>7.0775</ele>
        <time>2020-07-22T09:41:28Z</time>
      </trkpt>
      <trkpt lat="43.31579" lon="6.63057">
        <ele>7</ele>
        <time>2020-07-22T09:41:32Z</time>
      </trkpt>
      <trkpt lat="43.31559" lon="6.63059">
        <ele>7</ele>
        <time>2020-07-22T09:41:36Z</time>
      </trkpt>
      <trkpt lat="43.31536" lon="6.63062">
        <ele>7</ele>
        <time>2020-07-22T09:41:40Z</time>
      </trkpt>
      <trkpt lat="43.31515" lon="6.63069">
        <ele>7</ele>
        <time>2020-07-22T09:41:44Z</time>
      </trkpt>
      <trkpt lat="43.31497" lon="6.63076">
        <ele>7</ele>
        <time>2020-07-22T09:41:49Z</time>
      </trkpt>
      <trkpt lat="43.31478" lon="6.63089">
        <ele>7</ele>
        <time>2020-07-22T09:41:54Z</time>
      </trkpt>
      <trkpt lat="43.3146" lon="6.63098">
        <ele>7</ele>
        <time>2020-07-22T09:42:01Z</time>
      </trkpt>
      <trkpt lat="43.31442" lon="6.63095">
        <ele>6.680412</ele>
        <time>2020-07-22T09:42:07Z</time>
      </trkpt>
      <trkpt lat="43.31426" lon="6.63108">
        <ele>6.265078</ele>
        <time>2020-07-22T09:42:13Z</time>
      </trkpt>
      <trkpt lat="43.3142" lon="6.63132">
        <ele>6.087762</ele>
        <time>2020-07-22T09:42:36Z</time>
      </trkpt>
      <trkpt lat="43.31401" lon="6.63141">
        <ele>6</ele>
        <time>2020-07-22T09:42:48Z</time>
      </trkpt>
      <trkpt lat="43.31381" lon="6.63146">
        <ele>6</ele>
        <time>2020-07-22T09:42:58Z</time>
      </trkpt>
      <trkpt lat="43.31363" lon="6.63153">
        <ele>5.941744</ele>
        <time>2020-07-22T09:43:03Z</time>
      </trkpt>
      <trkpt lat="43.31346" lon="6.63163">
        <ele>5.5475</ele>
        <time>2020-07-22T09:43:07Z</time>
      </trkpt>
      <trkpt lat="43.31323" lon="6.63179">
        <ele>5.0675</ele>
        <time>2020-07-22T09:43:11Z</time>
      </trkpt>
      <trkpt lat="43.31302" lon="6.63193">
        <ele>5</ele>
        <time>2020-07-22T09:43:15Z</time>
      </trkpt>
      <trkpt lat="43.31284" lon="6.63203">
        <ele>5</ele>
        <time>2020-07-22T09:43:19Z</time>
      </trkpt>
      <trkpt lat="43.31264" lon="6.63215">
        <ele>4.785</ele>
        <time>2020-07-22T09:43:24Z</time>
      </trkpt>
      <trkpt lat="43.31246" lon="6.63226">
        <ele>4.3875</ele>
        <time>2020-07-22T09:43:29Z</time>
      </trkpt>
      <trkpt lat="43.31227" lon="6.63235">
        <ele>4</ele>
        <time>2020-07-22T09:43:33Z</time>
      </trkpt>
      <trkpt lat="43.31209" lon="6.63247">
        <ele>4</ele>
        <time>2020-07-22T09:43:37Z</time>
      </trkpt>
      <trkpt lat="43.31192" lon="6.63254">
        <ele>4</ele>
        <time>2020-07-22T09:43:41Z</time>
      </trkpt>
      <trkpt lat="43.31175" lon="6.63267">
        <ele>3.8375</ele>
        <time>2020-07-22T09:43:46Z</time>
      </trkpt>
      <trkpt lat="43.31157" lon="6.63276">
        <ele>3.535484</ele>
        <time>2020-07-22T09:43:51Z</time>
      </trkpt>
      <trkpt lat="43.31138" lon="6.63286">
        <ele>3.349356</ele>
        <time>2020-07-22T09:43:56Z</time>
      </trkpt>
      <trkpt lat="43.31117" lon="6.63297">
        <ele>3.5275</ele>
        <time>2020-07-22T09:44:01Z</time>
      </trkpt>
      <trkpt lat="43.31099" lon="6.63308">
        <ele>3.7375</ele>
        <time>2020-07-22T09:44:06Z</time>
      </trkpt>
      <trkpt lat="43.31082" lon="6.63318">
        <ele>3.745969</ele>
        <time>2020-07-22T09:44:11Z</time>
      </trkpt>
      <trkpt lat="43.31062" lon="6.63328">
        <ele>3.454737</ele>
        <time>2020-07-22T09:44:16Z</time>
      </trkpt>
      <trkpt lat="43.31044" lon="6.63337">
        <ele>3.27125</ele>
        <time>2020-07-22T09:44:21Z</time>
      </trkpt>
      <trkpt lat="43.31029" lon="6.63328">
        <ele>3.14375</ele>
        <time>2020-07-22T09:44:29Z</time>
      </trkpt>
      <trkpt lat="43.31016" lon="6.63308">
        <ele>2.888737</ele>
        <time>2020-07-22T09:44:36Z</time>
      </trkpt>
      <trkpt lat="43.31007" lon="6.63284">
        <ele>2.518238</ele>
        <time>2020-07-22T09:44:41Z</time>
      </trkpt>
      <trkpt lat="43.30998" lon="6.63257">
        <ele>1.9375</ele>
        <time>2020-07-22T09:44:46Z</time>
      </trkpt>
      <trkpt lat="43.30989" lon="6.63232">
        <ele>1.6875</ele>
        <time>2020-07-22T09:44:51Z</time>
      </trkpt>
      <trkpt lat="43.30981" lon="6.63205">
        <ele>1.4875</ele>
        <time>2020-07-22T09:45:02Z</time>
      </trkpt>
      <trkpt lat="43.30973" lon="6.63182">
        <ele>1.2725</ele>
        <time>2020-07-22T09:45:08Z</time>
      </trkpt>
      <trkpt lat="43.30962" lon="6.63161">
        <ele>1.0175</ele>
        <time>2020-07-22T09:45:28Z</time>
      </trkpt>
      <trkpt lat="43.30947" lon="6.6315">
        <ele>1</ele>
        <time>2020-07-22T09:45:37Z</time>
      </trkpt>
      <trkpt lat="43.30935" lon="6.63136">
        <ele>1</ele>
        <time>2020-07-22T09:45:44Z</time>
      </trkpt>
      <trkpt lat="43.30919" lon="6.63149">
        <ele>1</ele>
        <time>2020-07-22T09:45:48Z</time>
      </trkpt>
      <trkpt lat="43.30904" lon="6.63169">
        <ele>1.076906</ele>
        <time>2020-07-22T09:45:53Z</time>
      </trkpt>
      <trkpt lat="43.30889" lon="6.63184">
        <ele>1.01425</ele>
        <time>2020-07-22T09:45:58Z</time>
      </trkpt>
      <trkpt lat="43.30873" lon="6.63199">
        <ele>1</ele>
        <time>2020-07-22T09:46:03Z</time>
      </trkpt>
      <trkpt lat="43.30853" lon="6.63215">
        <ele>1.174453</ele>
        <time>2020-07-22T09:46:08Z</time>
      </trkpt>
      <trkpt lat="43.30833" lon="6.63232">
        <ele>1.14625</ele>
        <time>2020-07-22T09:46:12Z</time>
      </trkpt>
      <trkpt lat="43.30813" lon="6.63242">
        <ele>1.212062</ele>
        <time>2020-07-22T09:46:16Z</time>
      </trkpt>
      <trkpt lat="43.30794" lon="6.63243">
        <ele>1.583069</ele>
        <time>2020-07-22T09:46:21Z</time>
      </trkpt>
      <trkpt lat="43.30778" lon="6.63228">
        <ele>2.725</ele>
        <time>2020-07-22T09:46:30Z</time>
      </trkpt>
      <trkpt lat="43.30761" lon="6.63225">
        <ele>4.072472</ele>
        <time>2020-07-22T09:46:37Z</time>
      </trkpt>
      <trkpt lat="43.30746" lon="6.63238">
        <ele>4.067006</ele>
        <time>2020-07-22T09:46:45Z</time>
      </trkpt>
      <trkpt lat="43.3073" lon="6.63235">
        <ele>5.2116</ele>
        <time>2020-07-22T09:46:53Z</time>
      </trkpt>
      <trkpt lat="43.30707" lon="6.63229">
        <ele>6.638125</ele>
        <time>2020-07-22T09:47:01Z</time>
      </trkpt>
      <trkpt lat="43.30687" lon="6.63241">
        <ele>6.2829</ele>
        <time>2020-07-22T09:47:07Z</time>
      </trkpt>
      <trkpt lat="43.30668" lon="6.6324">
        <ele>6.530325</ele>
        <time>2020-07-22T09:47:13Z</time>
      </trkpt>
      <trkpt lat="43.30647" lon="6.63238">
        <ele>6.952056</ele>
        <time>2020-07-22T09:47:18Z</time>
      </trkpt>
      <trkpt lat="43.30629" lon="6.63229">
        <ele>6.873625</ele>
        <time>2020-07-22T09:47:24Z</time>
      </trkpt>
      <trkpt lat="43.30608" lon="6.63226">
        <ele>5.6735</ele>
        <time>2020-07-22T09:47:30Z</time>
      </trkpt>
      <trkpt lat="43.30587" lon="6.63226">
        <ele>3.875937</ele>
        <time>2020-07-22T09:47:36Z</time>
      </trkpt>
      <trkpt lat="43.30572" lon="6.63231">
        <ele>2.2968</ele>
        <time>2020-07-22T09:47:46Z</time>
      </trkpt>
      <trkpt lat="43.30558" lon="6.63213">
        <ele>2.665081</ele>
        <time>2020-07-22T09:48:04Z</time>
      </trkpt>
      <trkpt lat="43.30544" lon="6.63192">
        <ele>3.878125</ele>
        <time>2020-07-22T09:48:15Z</time>
      </trkpt>
      <trkpt lat="43.30535" lon="6.63167">
        <ele>5.0107</ele>
        <time>2020-07-22T09:48:23Z</time>
      </trkpt>
      <trkpt lat="43.30526" lon="6.63143">
        <ele>5.156934</ele>
        <time>2020-07-22T09:48:32Z</time>
      </trkpt>
      <trkpt lat="43.30524" lon="6.63117">
        <ele>6.1804</ele>
        <time>2020-07-22T09:48:38Z</time>
      </trkpt>
      <trkpt lat="43.30521" lon="6.63089">
        <ele>6.81625</ele>
        <time>2020-07-22T09:48:47Z</time>
      </trkpt>
      <trkpt lat="43.3052" lon="6.6306">
        <ele>6.0075</ele>
        <time>2020-07-22T09:48:52Z</time>
      </trkpt>
      <trkpt lat="43.30518" lon="6.63034">
        <ele>5.275</ele>
        <time>2020-07-22T09:48:59Z</time>
      </trkpt>
      <trkpt lat="43.30518" lon="6.63008">
        <ele>4.26</ele>
        <time>2020-07-22T09:49:04Z</time>
      </trkpt>
      <trkpt lat="43.30516" lon="6.62979">
        <ele>3.0995</ele>
        <time>2020-07-22T09:49:09Z</time>
      </trkpt>
      <trkpt lat="43.30511" lon="6.62955">
        <ele>2.63</ele>
        <time>2020-07-22T09:49:13Z</time>
      </trkpt>
      <trkpt lat="43.30502" lon="6.62929">
        <ele>2.195</ele>
        <time>2020-07-22T09:49:17Z</time>
      </trkpt>
      <trkpt lat="43.30491" lon="6.6291">
        <ele>1.645</ele>
        <time>2020-07-22T09:49:24Z</time>
      </trkpt>
      <trkpt lat="43.30478" lon="6.62889">
        <ele>1.653547</ele>
        <time>2020-07-22T09:49:31Z</time>
      </trkpt>
      <trkpt lat="43.30466" lon="6.62867">
        <ele>1.869453</ele>
        <time>2020-07-22T09:49:39Z</time>
      </trkpt>
      <trkpt lat="43.30453" lon="6.62849">
        <ele>1.76935</ele>
        <time>2020-07-22T09:49:48Z</time>
      </trkpt>
      <trkpt lat="43.3044" lon="6.62829">
        <ele>1.538216</ele>
        <time>2020-07-22T09:50:03Z</time>
      </trkpt>
      <trkpt lat="43.30425" lon="6.62809">
        <ele>1.32125</ele>
        <time>2020-07-22T09:50:10Z</time>
      </trkpt>
      <trkpt lat="43.3041" lon="6.62786">
        <ele>1.31875</ele>
        <time>2020-07-22T09:50:15Z</time>
      </trkpt>
      <trkpt lat="43.30395" lon="6.62766">
        <ele>1.289681</ele>
        <time>2020-07-22T09:50:20Z</time>
      </trkpt>
      <trkpt lat="43.30379" lon="6.62749">
        <ele>1.165</ele>
        <time>2020-07-22T09:50:25Z</time>
      </trkpt>
      <trkpt lat="43.3036" lon="6.62735">
        <ele>0.935</ele>
        <time>2020-07-22T09:50:29Z</time>
      </trkpt>
      <trkpt lat="43.30342" lon="6.62723">
        <ele>0.725578</ele>
        <time>2020-07-22T09:50:34Z</time>
      </trkpt>
      <trkpt lat="43.30326" lon="6.6271">
        <ele>0.6075</ele>
        <time>2020-07-22T09:50:43Z</time>
      </trkpt>
      <trkpt lat="43.30308" lon="6.62698">
        <ele>0.71</ele>
        <time>2020-07-22T09:50:49Z</time>
      </trkpt>
      <trkpt lat="43.30289" lon="6.62685">
        <ele>1.026675</ele>
        <time>2020-07-22T09:50:54Z</time>
      </trkpt>
      <trkpt lat="43.30271" lon="6.62674">
        <ele>1.229313</ele>
        <time>2020-07-22T09:50:58Z</time>
      </trkpt>
      <trkpt lat="43.30253" lon="6.62664">
        <ele>1.261531</ele>
        <time>2020-07-22T09:51:03Z</time>
      </trkpt>
      <trkpt lat="43.30234" lon="6.62654">
        <ele>1.165166</ele>
        <time>2020-07-22T09:51:10Z</time>
      </trkpt>
      <trkpt lat="43.30214" lon="6.62643">
        <ele>0.98375</ele>
        <time>2020-07-22T09:51:15Z</time>
      </trkpt>
      <trkpt lat="43.30196" lon="6.62634">
        <ele>1.453344</ele>
        <time>2020-07-22T09:51:20Z</time>
      </trkpt>
      <trkpt lat="43.30179" lon="6.62623">
        <ele>1.884275</ele>
        <time>2020-07-22T09:51:25Z</time>
      </trkpt>
      <trkpt lat="43.30161" lon="6.62614">
        <ele>1.9765</ele>
        <time>2020-07-22T09:51:29Z</time>
      </trkpt>
      <trkpt lat="43.30141" lon="6.62602">
        <ele>1.868</ele>
        <time>2020-07-22T09:51:34Z</time>
      </trkpt>
      <trkpt lat="43.30123" lon="6.62593">
        <ele>1.5675</ele>
        <time>2020-07-22T09:51:39Z</time>
      </trkpt>
      <trkpt lat="43.30105" lon="6.62585">
        <ele>1.2525</ele>
        <time>2020-07-22T09:51:44Z</time>
      </trkpt>
      <trkpt lat="43.30086" lon="6.62578">
        <ele>0.93</ele>
        <time>2020-07-22T09:51:48Z</time>
      </trkpt>
      <trkpt lat="43.30069" lon="6.6258">
        <ele>0.83625</ele>
        <time>2020-07-22T09:51:52Z</time>
      </trkpt>
      <trkpt lat="43.30051" lon="6.62578">
        <ele>0.85</ele>
        <time>2020-07-22T09:51:59Z</time>
      </trkpt>
      <trkpt lat="43.30034" lon="6.62568">
        <ele>0.9825</ele>
        <time>2020-07-22T09:52:04Z</time>
      </trkpt>
      <trkpt lat="43.30015" lon="6.62565">
        <ele>1.025</ele>
        <time>2020-07-22T09:52:08Z</time>
      </trkpt>
      <trkpt lat="43.29993" lon="6.62563">
        <ele>1.0325</ele>
        <time>2020-07-22T09:52:13Z</time>
      </trkpt>
      <trkpt lat="43.29973" lon="6.62556">
        <ele>1.2025</ele>
        <time>2020-07-22T09:52:19Z</time>
      </trkpt>
      <trkpt lat="43.29953" lon="6.62551">
        <ele>1.3325</ele>
        <time>2020-07-22T09:52:24Z</time>
      </trkpt>
      <trkpt lat="43.29934" lon="6.62547">
        <ele>1.569587</ele>
        <time>2020-07-22T09:52:29Z</time>
      </trkpt>
      <trkpt lat="43.29915" lon="6.62543">
        <ele>1.9</ele>
        <time>2020-07-22T09:52:35Z</time>
      </trkpt>
      <trkpt lat="43.29895" lon="6.62539">
        <ele>2.319175</ele>
        <time>2020-07-22T09:52:40Z</time>
      </trkpt>
      <trkpt lat="43.29874" lon="6.62535">
        <ele>2.773169</ele>
        <time>2020-07-22T09:52:44Z</time>
      </trkpt>
      <trkpt lat="43.29854" lon="6.62531">
        <ele>3.315625</ele>
        <time>2020-07-22T09:52:48Z</time>
      </trkpt>
      <trkpt lat="43.29833" lon="6.62525">
        <ele>3.972519</ele>
        <time>2020-07-22T09:52:53Z</time>
      </trkpt>
      <trkpt lat="43.29813" lon="6.62516">
        <ele>4.785281</ele>
        <time>2020-07-22T09:52:58Z</time>
      </trkpt>
      <trkpt lat="43.29794" lon="6.6251">
        <ele>4.815437</ele>
        <time>2020-07-22T09:53:02Z</time>
      </trkpt>
      <trkpt lat="43.29773" lon="6.625">
        <ele>4.885675</ele>
        <time>2020-07-22T09:53:06Z</time>
      </trkpt>
      <trkpt lat="43.29752" lon="6.62491">
        <ele>4.593825</ele>
        <time>2020-07-22T09:53:10Z</time>
      </trkpt>
      <trkpt lat="43.29732" lon="6.62482">
        <ele>4.4093</ele>
        <time>2020-07-22T09:53:14Z</time>
      </trkpt>
      <trkpt lat="43.29715" lon="6.62474">
        <ele>4.544765</ele>
        <time>2020-07-22T09:53:20Z</time>
      </trkpt>
      <trkpt lat="43.29698" lon="6.62465">
        <ele>4.865278</ele>
        <time>2020-07-22T09:53:29Z</time>
      </trkpt>
      <trkpt lat="43.29683" lon="6.62448">
        <ele>5.930531</ele>
        <time>2020-07-22T09:53:34Z</time>
      </trkpt>
      <trkpt lat="43.2967" lon="6.62425">
        <ele>6.816875</ele>
        <time>2020-07-22T09:53:39Z</time>
      </trkpt>
      <trkpt lat="43.29661" lon="6.62401">
        <ele>6.8961</ele>
        <time>2020-07-22T09:53:44Z</time>
      </trkpt>
      <trkpt lat="43.29656" lon="6.62377">
        <ele>6.868125</ele>
        <time>2020-07-22T09:53:49Z</time>
      </trkpt>
      <trkpt lat="43.29653" lon="6.62353">
        <ele>7.098187</ele>
        <time>2020-07-22T09:53:59Z</time>
      </trkpt>
      <trkpt lat="43.29655" lon="6.62324">
        <ele>6.347359</ele>
        <time>2020-07-22T09:54:05Z</time>
      </trkpt>
      <trkpt lat="43.2966" lon="6.62297">
        <ele>6.662828</ele>
        <time>2020-07-22T09:54:12Z</time>
      </trkpt>
      <trkpt lat="43.29665" lon="6.62272">
        <ele>7.152794</ele>
        <time>2020-07-22T09:54:18Z</time>
      </trkpt>
      <trkpt lat="43.29668" lon="6.62243">
        <ele>7.19755</ele>
        <time>2020-07-22T09:54:22Z</time>
      </trkpt>
      <trkpt lat="43.29669" lon="6.62217">
        <ele>6.6363</ele>
        <time>2020-07-22T09:54:25Z</time>
      </trkpt>
      <trkpt lat="43.29668" lon="6.6219">
        <ele>5.766125</ele>
        <time>2020-07-22T09:54:28Z</time>
      </trkpt>
      <trkpt lat="43.29667" lon="6.62158">
        <ele>4.909225</ele>
        <time>2020-07-22T09:54:32Z</time>
      </trkpt>
      <trkpt lat="43.29666" lon="6.62127">
        <ele>4.543287</ele>
        <time>2020-07-22T09:54:36Z</time>
      </trkpt>
      <trkpt lat="43.29663" lon="6.62096">
        <ele>3.97865</ele>
        <time>2020-07-22T09:54:40Z</time>
      </trkpt>
      <trkpt lat="43.29657" lon="6.62067">
        <ele>2.999913</ele>
        <time>2020-07-22T09:54:44Z</time>
      </trkpt>
      <trkpt lat="43.29648" lon="6.6204">
        <ele>2.57125</ele>
        <time>2020-07-22T09:54:48Z</time>
      </trkpt>
      <trkpt lat="43.29639" lon="6.62019">
        <ele>2.2525</ele>
        <time>2020-07-22T09:54:51Z</time>
      </trkpt>
      <trkpt lat="43.29629" lon="6.61997">
        <ele>1.83125</ele>
        <time>2020-07-22T09:54:54Z</time>
      </trkpt>
      <trkpt lat="43.29617" lon="6.61976">
        <ele>1.555812</ele>
        <time>2020-07-22T09:54:57Z</time>
      </trkpt>
      <trkpt lat="43.29607" lon="6.61953">
        <ele>2.00705</ele>
        <time>2020-07-22T09:55:00Z</time>
      </trkpt>
      <trkpt lat="43.29597" lon="6.61932">
        <ele>2.275844</ele>
        <time>2020-07-22T09:55:03Z</time>
      </trkpt>
      <trkpt lat="43.29585" lon="6.61908">
        <ele>2.53</ele>
        <time>2020-07-22T09:55:07Z</time>
      </trkpt>
      <trkpt lat="43.29573" lon="6.61883">
        <ele>3.24</ele>
        <time>2020-07-22T09:55:12Z</time>
      </trkpt>
      <trkpt lat="43.29564" lon="6.61861">
        <ele>3.849247</ele>
        <time>2020-07-22T09:55:16Z</time>
      </trkpt>
      <trkpt lat="43.29556" lon="6.61834">
        <ele>4.463644</ele>
        <time>2020-07-22T09:55:20Z</time>
      </trkpt>
      <trkpt lat="43.29551" lon="6.6181">
        <ele>4.9674</ele>
        <time>2020-07-22T09:55:23Z</time>
      </trkpt>
      <trkpt lat="43.29547" lon="6.61784">
        <ele>5.166838</ele>
        <time>2020-07-22T09:55:26Z</time>
      </trkpt>
      <trkpt lat="43.29541" lon="6.61753">
        <ele>5.048853</ele>
        <time>2020-07-22T09:55:30Z</time>
      </trkpt>
      <trkpt lat="43.29533" lon="6.61724">
        <ele>5.1025</ele>
        <time>2020-07-22T09:55:34Z</time>
      </trkpt>
      <trkpt lat="43.29522" lon="6.61698">
        <ele>4.845</ele>
        <time>2020-07-22T09:55:38Z</time>
      </trkpt>
      <trkpt lat="43.29511" lon="6.61677">
        <ele>4.5075</ele>
        <time>2020-07-22T09:55:41Z</time>
      </trkpt>
      <trkpt lat="43.295" lon="6.61655">
        <ele>4.414688</ele>
        <time>2020-07-22T09:55:44Z</time>
      </trkpt>
      <trkpt lat="43.29488" lon="6.61633">
        <ele>4.611669</ele>
        <time>2020-07-22T09:55:47Z</time>
      </trkpt>
      <trkpt lat="43.29477" lon="6.61608">
        <ele>4.49045</ele>
        <time>2020-07-22T09:55:50Z</time>
      </trkpt>
      <trkpt lat="43.29465" lon="6.61584">
        <ele>4.235</ele>
        <time>2020-07-22T09:55:53Z</time>
      </trkpt>
      <trkpt lat="43.29453" lon="6.6156">
        <ele>3.965</ele>
        <time>2020-07-22T09:55:56Z</time>
      </trkpt>
      <trkpt lat="43.29441" lon="6.61537">
        <ele>4.141106</ele>
        <time>2020-07-22T09:55:59Z</time>
      </trkpt>
      <trkpt lat="43.2943" lon="6.61515">
        <ele>4.063025</ele>
        <time>2020-07-22T09:56:02Z</time>
      </trkpt>
      <trkpt lat="43.29415" lon="6.61493">
        <ele>3.174519</ele>
        <time>2020-07-22T09:56:06Z</time>
      </trkpt>
      <trkpt lat="43.294" lon="6.61477">
        <ele>2.483331</ele>
        <time>2020-07-22T09:56:10Z</time>
      </trkpt>
      <trkpt lat="43.29383" lon="6.6146">
        <ele>2.657759</ele>
        <time>2020-07-22T09:56:14Z</time>
      </trkpt>
      <trkpt lat="43.29365" lon="6.6144">
        <ele>2.939787</ele>
        <time>2020-07-22T09:56:18Z</time>
      </trkpt>
      <trkpt lat="43.2935" lon="6.61425">
        <ele>2.994575</ele>
        <time>2020-07-22T09:56:21Z</time>
      </trkpt>
      <trkpt lat="43.29334" lon="6.6141">
        <ele>2.704781</ele>
        <time>2020-07-22T09:56:24Z</time>
      </trkpt>
      <trkpt lat="43.29319" lon="6.61393">
        <ele>2.674406</ele>
        <time>2020-07-22T09:56:27Z</time>
      </trkpt>
      <trkpt lat="43.29303" lon="6.61376">
        <ele>2.9523</ele>
        <time>2020-07-22T09:56:30Z</time>
      </trkpt>
      <trkpt lat="43.29287" lon="6.6136">
        <ele>2.844112</ele>
        <time>2020-07-22T09:56:33Z</time>
      </trkpt>
      <trkpt lat="43.29272" lon="6.61344">
        <ele>2.577641</ele>
        <time>2020-07-22T09:56:36Z</time>
      </trkpt>
      <trkpt lat="43.29254" lon="6.61325">
        <ele>2.276175</ele>
        <time>2020-07-22T09:56:40Z</time>
      </trkpt>
      <trkpt lat="43.29239" lon="6.61305">
        <ele>1.780994</ele>
        <time>2020-07-22T09:56:44Z</time>
      </trkpt>
      <trkpt lat="43.29226" lon="6.61284">
        <ele>1.62375</ele>
        <time>2020-07-22T09:56:48Z</time>
      </trkpt>
      <trkpt lat="43.29216" lon="6.61262">
        <ele>1.743094</ele>
        <time>2020-07-22T09:56:52Z</time>
      </trkpt>
      <trkpt lat="43.29208" lon="6.6124">
        <ele>1.728881</ele>
        <time>2020-07-22T09:56:56Z</time>
      </trkpt>
      <trkpt lat="43.29201" lon="6.61213">
        <ele>1.463444</ele>
        <time>2020-07-22T09:57:00Z</time>
      </trkpt>
      <trkpt lat="43.29195" lon="6.61189">
        <ele>1.373866</ele>
        <time>2020-07-22T09:57:03Z</time>
      </trkpt>
      <trkpt lat="43.29189" lon="6.61164">
        <ele>1.475581</ele>
        <time>2020-07-22T09:57:06Z</time>
      </trkpt>
      <trkpt lat="43.29183" lon="6.61138">
        <ele>1.638406</ele>
        <time>2020-07-22T09:57:09Z</time>
      </trkpt>
      <trkpt lat="43.29176" lon="6.61112">
        <ele>1.895003</ele>
        <time>2020-07-22T09:57:12Z</time>
      </trkpt>
      <trkpt lat="43.29169" lon="6.61086">
        <ele>1.99165</ele>
        <time>2020-07-22T09:57:15Z</time>
      </trkpt>
      <trkpt lat="43.29162" lon="6.61062">
        <ele>1.923437</ele>
        <time>2020-07-22T09:57:18Z</time>
      </trkpt>
      <trkpt lat="43.29154" lon="6.61032">
        <ele>1.80375</ele>
        <time>2020-07-22T09:57:22Z</time>
      </trkpt>
      <trkpt lat="43.29145" lon="6.61004">
        <ele>2.4513</ele>
        <time>2020-07-22T09:57:26Z</time>
      </trkpt>
      <trkpt lat="43.29134" lon="6.60983">
        <ele>2.6809</ele>
        <time>2020-07-22T09:57:30Z</time>
      </trkpt>
      <trkpt lat="43.29121" lon="6.60958">
        <ele>2.4875</ele>
        <time>2020-07-22T09:57:35Z</time>
      </trkpt>
      <trkpt lat="43.29107" lon="6.60941">
        <ele>2.564262</ele>
        <time>2020-07-22T09:57:40Z</time>
      </trkpt>
      <trkpt lat="43.2909" lon="6.60928">
        <ele>2.3139</ele>
        <time>2020-07-22T09:57:46Z</time>
      </trkpt>
      <trkpt lat="43.29075" lon="6.60913">
        <ele>1.919062</ele>
        <time>2020-07-22T09:57:53Z</time>
      </trkpt>
      <trkpt lat="43.29063" lon="6.60894">
        <ele>1.7975</ele>
        <time>2020-07-22T09:57:59Z</time>
      </trkpt>
      <trkpt lat="43.29051" lon="6.60873">
        <ele>2.139225</ele>
        <time>2020-07-22T09:58:05Z</time>
      </trkpt>
      <trkpt lat="43.29038" lon="6.60855">
        <ele>2.04425</ele>
        <time>2020-07-22T09:58:10Z</time>
      </trkpt>
      <trkpt lat="43.29026" lon="6.60832">
        <ele>1.885</ele>
        <time>2020-07-22T09:58:15Z</time>
      </trkpt>
      <trkpt lat="43.29021" lon="6.60803">
        <ele>2.520703</ele>
        <time>2020-07-22T09:58:20Z</time>
      </trkpt>
      <trkpt lat="43.29018" lon="6.60777">
        <ele>3.105231</ele>
        <time>2020-07-22T09:58:24Z</time>
      </trkpt>
      <trkpt lat="43.29015" lon="6.60751">
        <ele>3.6531</ele>
        <time>2020-07-22T09:58:28Z</time>
      </trkpt>
      <trkpt lat="43.29013" lon="6.60725">
        <ele>4.107047</ele>
        <time>2020-07-22T09:58:32Z</time>
      </trkpt>
      <trkpt lat="43.29009" lon="6.607">
        <ele>4.4175</ele>
        <time>2020-07-22T09:58:36Z</time>
      </trkpt>
      <trkpt lat="43.29004" lon="6.60675">
        <ele>4.8475</ele>
        <time>2020-07-22T09:58:41Z</time>
      </trkpt>
      <trkpt lat="43.28997" lon="6.60646">
        <ele>5.2325</ele>
        <time>2020-07-22T09:58:46Z</time>
      </trkpt>
      <trkpt lat="43.28989" lon="6.60622">
        <ele>5.784481</ele>
        <time>2020-07-22T09:58:50Z</time>
      </trkpt>
      <trkpt lat="43.28978" lon="6.60594">
        <ele>6.274006</ele>
        <time>2020-07-22T09:58:54Z</time>
      </trkpt>
      <trkpt lat="43.28965" lon="6.60569">
        <ele>6.45125</ele>
        <time>2020-07-22T09:58:58Z</time>
      </trkpt>
      <trkpt lat="43.28954" lon="6.60548">
        <ele>6.6575</ele>
        <time>2020-07-22T09:59:02Z</time>
      </trkpt>
      <trkpt lat="43.28943" lon="6.60528">
        <ele>7.01375</ele>
        <time>2020-07-22T09:59:06Z</time>
      </trkpt>
      <trkpt lat="43.2893" lon="6.60504">
        <ele>7.805882</ele>
        <time>2020-07-22T09:59:11Z</time>
      </trkpt>
      <trkpt lat="43.28918" lon="6.60483">
        <ele>8.932216</ele>
        <time>2020-07-22T09:59:15Z</time>
      </trkpt>
      <trkpt lat="43.28903" lon="6.60462">
        <ele>9.5745</ele>
        <time>2020-07-22T09:59:19Z</time>
      </trkpt>
      <trkpt lat="43.28885" lon="6.6044">
        <ele>9.556188</ele>
        <time>2020-07-22T09:59:23Z</time>
      </trkpt>
      <trkpt lat="43.28866" lon="6.60418">
        <ele>9.4394</ele>
        <time>2020-07-22T09:59:27Z</time>
      </trkpt>
      <trkpt lat="43.28849" lon="6.60397">
        <ele>9.46125</ele>
        <time>2020-07-22T09:59:31Z</time>
      </trkpt>
      <trkpt lat="43.28836" lon="6.60378">
        <ele>9.464</ele>
        <time>2020-07-22T09:59:35Z</time>
      </trkpt>
      <trkpt lat="43.28822" lon="6.60356">
        <ele>9.172063</ele>
        <time>2020-07-22T09:59:40Z</time>
      </trkpt>
      <trkpt lat="43.28809" lon="6.60333">
        <ele>8.936609</ele>
        <time>2020-07-22T09:59:45Z</time>
      </trkpt>
      <trkpt lat="43.28796" lon="6.60311">
        <ele>8.881001</ele>
        <time>2020-07-22T09:59:50Z</time>
      </trkpt>
      <trkpt lat="43.28784" lon="6.60289">
        <ele>8.741037</ele>
        <time>2020-07-22T09:59:54Z</time>
      </trkpt>
      <trkpt lat="43.2877" lon="6.60268">
        <ele>8.41</ele>
        <time>2020-07-22T09:59:58Z</time>
      </trkpt>
      <trkpt lat="43.28758" lon="6.60246">
        <ele>8.434125</ele>
        <time>2020-07-22T10:00:03Z</time>
      </trkpt>
      <trkpt lat="43.28746" lon="6.60223">
        <ele>8.701656</ele>
        <time>2020-07-22T10:00:08Z</time>
      </trkpt>
      <trkpt lat="43.28733" lon="6.60201">
        <ele>8.63</ele>
        <time>2020-07-22T10:00:12Z</time>
      </trkpt>
      <trkpt lat="43.28719" lon="6.60177">
        <ele>8.67005</ele>
        <time>2020-07-22T10:00:16Z</time>
      </trkpt>
      <trkpt lat="43.28707" lon="6.60154">
        <ele>8.921875</ele>
        <time>2020-07-22T10:00:20Z</time>
      </trkpt>
      <trkpt lat="43.28695" lon="6.60135">
        <ele>9.110125</ele>
        <time>2020-07-22T10:00:24Z</time>
      </trkpt>
      <trkpt lat="43.28683" lon="6.60113">
        <ele>8.909594</ele>
        <time>2020-07-22T10:00:28Z</time>
      </trkpt>
      <trkpt lat="43.28672" lon="6.60094">
        <ele>8.742484</ele>
        <time>2020-07-22T10:00:32Z</time>
      </trkpt>
      <trkpt lat="43.28659" lon="6.6007">
        <ele>8.836794</ele>
        <time>2020-07-22T10:00:37Z</time>
      </trkpt>
      <trkpt lat="43.28645" lon="6.60046">
        <ele>9.26</ele>
        <time>2020-07-22T10:00:42Z</time>
      </trkpt>
      <trkpt lat="43.28631" lon="6.60023">
        <ele>9.72</ele>
        <time>2020-07-22T10:00:46Z</time>
      </trkpt>
      <trkpt lat="43.28619" lon="6.60002">
        <ele>10.21</ele>
        <time>2020-07-22T10:00:49Z</time>
      </trkpt>
      <trkpt lat="43.28606" lon="6.59979">
        <ele>10.89525</ele>
        <time>2020-07-22T10:00:52Z</time>
      </trkpt>
      <trkpt lat="43.28593" lon="6.59957">
        <ele>11.472387</ele>
        <time>2020-07-22T10:00:55Z</time>
      </trkpt>
      <trkpt lat="43.28581" lon="6.59936">
        <ele>11.66345</ele>
        <time>2020-07-22T10:00:58Z</time>
      </trkpt>
      <trkpt lat="43.2857" lon="6.59914">
        <ele>11.2975</ele>
        <time>2020-07-22T10:01:01Z</time>
      </trkpt>
      <trkpt lat="43.28561" lon="6.59891">
        <ele>10.73</ele>
        <time>2020-07-22T10:01:04Z</time>
      </trkpt>
      <trkpt lat="43.28552" lon="6.59862">
        <ele>10.232325</ele>
        <time>2020-07-22T10:01:08Z</time>
      </trkpt>
      <trkpt lat="43.28545" lon="6.59835">
        <ele>9.80925</ele>
        <time>2020-07-22T10:01:13Z</time>
      </trkpt>
      <trkpt lat="43.28538" lon="6.59809">
        <ele>9.488538</ele>
        <time>2020-07-22T10:01:18Z</time>
      </trkpt>
      <trkpt lat="43.28531" lon="6.59781">
        <ele>9.406463</ele>
        <time>2020-07-22T10:01:21Z</time>
      </trkpt>
      <trkpt lat="43.28523" lon="6.59752">
        <ele>9.1347</ele>
        <time>2020-07-22T10:01:24Z</time>
      </trkpt>
      <trkpt lat="43.28516" lon="6.59725">
        <ele>8.44</ele>
        <time>2020-07-22T10:01:27Z</time>
      </trkpt>
      <trkpt lat="43.28508" lon="6.59699">
        <ele>7.69</ele>
        <time>2020-07-22T10:01:30Z</time>
      </trkpt>
      <trkpt lat="43.285" lon="6.59668">
        <ele>6.550675</ele>
        <time>2020-07-22T10:01:34Z</time>
      </trkpt>
      <trkpt lat="43.28492" lon="6.59639">
        <ele>5.355325</ele>
        <time>2020-07-22T10:01:38Z</time>
      </trkpt>
      <trkpt lat="43.28484" lon="6.59609">
        <ele>4.544634</ele>
        <time>2020-07-22T10:01:42Z</time>
      </trkpt>
      <trkpt lat="43.28478" lon="6.59582">
        <ele>4.328625</ele>
        <time>2020-07-22T10:01:46Z</time>
      </trkpt>
      <trkpt lat="43.28472" lon="6.59556">
        <ele>3.995</ele>
        <time>2020-07-22T10:01:50Z</time>
      </trkpt>
      <trkpt lat="43.28465" lon="6.59527">
        <ele>4.254759</ele>
        <time>2020-07-22T10:01:55Z</time>
      </trkpt>
      <trkpt lat="43.28458" lon="6.59502">
        <ele>4.323694</ele>
        <time>2020-07-22T10:01:59Z</time>
      </trkpt>
      <trkpt lat="43.2845" lon="6.59474">
        <ele>4.371412</ele>
        <time>2020-07-22T10:02:03Z</time>
      </trkpt>
      <trkpt lat="43.28444" lon="6.59447">
        <ele>4.576831</ele>
        <time>2020-07-22T10:02:07Z</time>
      </trkpt>
      <trkpt lat="43.28436" lon="6.5942">
        <ele>4.374431</ele>
        <time>2020-07-22T10:02:13Z</time>
      </trkpt>
      <trkpt lat="43.28427" lon="6.59393">
        <ele>3.755459</ele>
        <time>2020-07-22T10:02:18Z</time>
      </trkpt>
      <trkpt lat="43.2842" lon="6.59366">
        <ele>3.50425</ele>
        <time>2020-07-22T10:02:22Z</time>
      </trkpt>
      <trkpt lat="43.28411" lon="6.59337">
        <ele>3.37125</ele>
        <time>2020-07-22T10:02:26Z</time>
      </trkpt>
      <trkpt lat="43.28403" lon="6.59312">
        <ele>3.35125</ele>
        <time>2020-07-22T10:02:30Z</time>
      </trkpt>
      <trkpt lat="43.28397" lon="6.59285">
        <ele>3.47625</ele>
        <time>2020-07-22T10:02:34Z</time>
      </trkpt>
      <trkpt lat="43.2839" lon="6.59259">
        <ele>3.5375</ele>
        <time>2020-07-22T10:02:38Z</time>
      </trkpt>
      <trkpt lat="43.28382" lon="6.5923">
        <ele>3.7875</ele>
        <time>2020-07-22T10:02:42Z</time>
      </trkpt>
      <trkpt lat="43.28374" lon="6.59198">
        <ele>4.365538</ele>
        <time>2020-07-22T10:02:46Z</time>
      </trkpt>
      <trkpt lat="43.28365" lon="6.59167">
        <ele>4.49875</ele>
        <time>2020-07-22T10:02:50Z</time>
      </trkpt>
      <trkpt lat="43.28357" lon="6.59141">
        <ele>4.32625</ele>
        <time>2020-07-22T10:02:54Z</time>
      </trkpt>
      <trkpt lat="43.2835" lon="6.59112">
        <ele>4.290653</ele>
        <time>2020-07-22T10:02:59Z</time>
      </trkpt>
      <trkpt lat="43.28342" lon="6.59082">
        <ele>4.543906</ele>
        <time>2020-07-22T10:03:03Z</time>
      </trkpt>
      <trkpt lat="43.28334" lon="6.5905">
        <ele>4.96625</ele>
        <time>2020-07-22T10:03:07Z</time>
      </trkpt>
      <trkpt lat="43.28327" lon="6.59026">
        <ele>4.85125</ele>
        <time>2020-07-22T10:03:10Z</time>
      </trkpt>
      <trkpt lat="43.28319" lon="6.58997">
        <ele>4.685</ele>
        <time>2020-07-22T10:03:14Z</time>
      </trkpt>
      <trkpt lat="43.28312" lon="6.58968">
        <ele>4.595</ele>
        <time>2020-07-22T10:03:18Z</time>
      </trkpt>
      <trkpt lat="43.28305" lon="6.58942">
        <ele>4.4825</ele>
        <time>2020-07-22T10:03:22Z</time>
      </trkpt>
      <trkpt lat="43.28297" lon="6.58912">
        <ele>4.564319</ele>
        <time>2020-07-22T10:03:26Z</time>
      </trkpt>
      <trkpt lat="43.2829" lon="6.58888">
        <ele>4.855865</ele>
        <time>2020-07-22T10:03:29Z</time>
      </trkpt>
      <trkpt lat="43.28283" lon="6.58863">
        <ele>5.077144</ele>
        <time>2020-07-22T10:03:32Z</time>
      </trkpt>
      <trkpt lat="43.28275" lon="6.58838">
        <ele>5.09665</ele>
        <time>2020-07-22T10:03:35Z</time>
      </trkpt>
      <trkpt lat="43.28267" lon="6.58808">
        <ele>5.379206</ele>
        <time>2020-07-22T10:03:39Z</time>
      </trkpt>
      <trkpt lat="43.2826" lon="6.58782">
        <ele>5.50125</ele>
        <time>2020-07-22T10:03:43Z</time>
      </trkpt>
      <trkpt lat="43.28252" lon="6.58756">
        <ele>5.511831</ele>
        <time>2020-07-22T10:03:47Z</time>
      </trkpt>
      <trkpt lat="43.28246" lon="6.58732">
        <ele>5.511072</ele>
        <time>2020-07-22T10:03:51Z</time>
      </trkpt>
      <trkpt lat="43.28238" lon="6.58703">
        <ele>5.352</ele>
        <time>2020-07-22T10:03:55Z</time>
      </trkpt>
      <trkpt lat="43.28231" lon="6.58673">
        <ele>5.39</ele>
        <time>2020-07-22T10:03:59Z</time>
      </trkpt>
      <trkpt lat="43.28223" lon="6.58645">
        <ele>5.63875</ele>
        <time>2020-07-22T10:04:03Z</time>
      </trkpt>
      <trkpt lat="43.28216" lon="6.58619">
        <ele>5.862044</ele>
        <time>2020-07-22T10:04:07Z</time>
      </trkpt>
      <trkpt lat="43.28198" lon="6.58612">
        <ele>5.566094</ele>
        <time>2020-07-22T10:04:11Z</time>
      </trkpt>
      <trkpt lat="43.28191" lon="6.58642">
        <ele>4.65805</ele>
        <time>2020-07-22T10:04:16Z</time>
      </trkpt>
      <trkpt lat="43.28188" lon="6.58673">
        <ele>3.805</ele>
        <time>2020-07-22T10:06:17Z</time>
      </trkpt>
      <trkpt lat="43.2818" lon="6.58697">
        <ele>3.085</ele>
        <time>2020-07-22T10:06:25Z</time>
      </trkpt>
      <trkpt lat="43.28178" lon="6.58721">
        <ele>2.63875</ele>
        <time>2020-07-22T10:06:32Z</time>
      </trkpt>
      <trkpt lat="43.28182" lon="6.58737">
        <ele>2.5575</ele>
        <time>2020-07-22T10:13:26Z</time>
      </trkpt>
      <trkpt lat="43.28184" lon="6.58708">
        <ele>3.10125</ele>
        <time>2020-07-22T12:15:35Z</time>
      </trkpt>
    </trkseg>
  </trk>
</gpx>